<?xml version="1.0" encoding="UTF-8" standalone="no" ?>
<gpx xmlns="http://www.topografix.com/GPX/1/1" xmlns:xsi="http://www.w3.org/2001/XMLSchema-instance" xsi:schemaLocation="http://www.topografix.com/GPX/1/1 http://www.topografix.com/GPX/1/1/gpx.xsd" version="1.1" creator="VisuGPX - https://www.visugpx.com">
  <metadata>
    <name>Road trip fait P/E</name>
  </metadata>
  <trk>
    <name><![CDATA[Road trip fait P/E_6]]></name>
    <extensions>
      <line xmlns="http://www.topografix.com/GPX/gpx_style/0/2">
        <color>00FFFF</color>
        <width>4</width>
      </line>
    </extensions>
    <trkseg>
      <trkpt lat="38.44762" lon="-8.39182">
        <ele>49.44886</ele>
        <time>2021-07-10T16:53:30Z</time>
      </trkpt>
      <trkpt lat="38.44762" lon="-8.39182">
        <ele>49.44886</ele>
        <time>2021-07-10T16:53:30Z</time>
      </trkpt>
      <trkpt lat="38.44763" lon="-8.3918">
        <ele>41.07985</ele>
        <time>2021-07-11T07:28:28Z</time>
      </trkpt>
      <trkpt lat="38.44762" lon="-8.39178">
        <ele>41.32999</ele>
        <time>2021-07-11T07:29:27Z</time>
      </trkpt>
      <trkpt lat="38.44757" lon="-8.39185">
        <ele>40.68852</ele>
        <time>2021-07-11T07:29:49Z</time>
      </trkpt>
      <trkpt lat="38.4475" lon="-8.39209">
        <ele>39.21075</ele>
        <time>2021-07-11T07:30:00Z</time>
      </trkpt>
      <trkpt lat="38.4475" lon="-8.39214">
        <ele>38.4057</ele>
        <time>2021-07-11T07:30:11Z</time>
      </trkpt>
      <trkpt lat="38.4464" lon="-8.39289">
        <ele>35.79854</ele>
        <time>2021-07-11T07:30:22Z</time>
      </trkpt>
      <trkpt lat="38.44543" lon="-8.39356">
        <ele>34.39853</ele>
        <time>2021-07-11T07:30:33Z</time>
      </trkpt>
      <trkpt lat="38.44373" lon="-8.39359">
        <ele>31.91421</ele>
        <time>2021-07-11T07:30:44Z</time>
      </trkpt>
      <trkpt lat="38.44207" lon="-8.39406">
        <ele>32.77756</ele>
        <time>2021-07-11T07:30:55Z</time>
      </trkpt>
      <trkpt lat="38.44042" lon="-8.3946">
        <ele>33.15334</ele>
        <time>2021-07-11T07:31:06Z</time>
      </trkpt>
      <trkpt lat="38.43868" lon="-8.39569">
        <ele>37.61776</ele>
        <time>2021-07-11T07:31:17Z</time>
      </trkpt>
      <trkpt lat="38.43765" lon="-8.39737">
        <ele>39.14702</ele>
        <time>2021-07-11T07:31:28Z</time>
      </trkpt>
      <trkpt lat="38.43709" lon="-8.39948">
        <ele>34.46755</ele>
        <time>2021-07-11T07:31:39Z</time>
      </trkpt>
      <trkpt lat="38.43603" lon="-8.40126">
        <ele>38.70729</ele>
        <time>2021-07-11T07:31:50Z</time>
      </trkpt>
      <trkpt lat="38.43439" lon="-8.40288">
        <ele>41.13802</ele>
        <time>2021-07-11T07:32:01Z</time>
      </trkpt>
      <trkpt lat="38.43251" lon="-8.40476">
        <ele>32.99099</ele>
        <time>2021-07-11T07:32:12Z</time>
      </trkpt>
      <trkpt lat="38.43058" lon="-8.40669">
        <ele>34.37501</ele>
        <time>2021-07-11T07:32:23Z</time>
      </trkpt>
      <trkpt lat="38.42853" lon="-8.40799">
        <ele>33.35065</ele>
        <time>2021-07-11T07:32:34Z</time>
      </trkpt>
      <trkpt lat="38.42653" lon="-8.40805">
        <ele>30.64581</ele>
        <time>2021-07-11T07:32:45Z</time>
      </trkpt>
      <trkpt lat="38.42498" lon="-8.40872">
        <ele>20.19288</ele>
        <time>2021-07-11T07:32:56Z</time>
      </trkpt>
      <trkpt lat="38.42399" lon="-8.40915">
        <ele>15.91094</ele>
        <time>2021-07-11T07:33:07Z</time>
      </trkpt>
      <trkpt lat="38.42294" lon="-8.40688">
        <ele>12.35328</ele>
        <time>2021-07-11T07:33:18Z</time>
      </trkpt>
      <trkpt lat="38.42168" lon="-8.40576">
        <ele>14.25582</ele>
        <time>2021-07-11T07:33:29Z</time>
      </trkpt>
      <trkpt lat="38.42115" lon="-8.40355">
        <ele>22.87069</ele>
        <time>2021-07-11T07:33:40Z</time>
      </trkpt>
      <trkpt lat="38.42094" lon="-8.40124">
        <ele>32.54709</ele>
        <time>2021-07-11T07:33:51Z</time>
      </trkpt>
      <trkpt lat="38.42101" lon="-8.39908">
        <ele>41.0607</ele>
        <time>2021-07-11T07:34:02Z</time>
      </trkpt>
      <trkpt lat="38.42145" lon="-8.39712">
        <ele>47.36654</ele>
        <time>2021-07-11T07:34:13Z</time>
      </trkpt>
      <trkpt lat="38.42204" lon="-8.39628">
        <ele>47.85535</ele>
        <time>2021-07-11T07:34:24Z</time>
      </trkpt>
      <trkpt lat="38.42248" lon="-8.39519">
        <ele>56.3653</ele>
        <time>2021-07-11T07:34:35Z</time>
      </trkpt>
      <trkpt lat="38.42266" lon="-8.39386">
        <ele>64.70778</ele>
        <time>2021-07-11T07:34:46Z</time>
      </trkpt>
      <trkpt lat="38.42122" lon="-8.3938">
        <ele>65.38726</ele>
        <time>2021-07-11T07:34:57Z</time>
      </trkpt>
      <trkpt lat="38.42021" lon="-8.39342">
        <ele>66.51605</ele>
        <time>2021-07-11T07:35:08Z</time>
      </trkpt>
      <trkpt lat="38.42068" lon="-8.39226">
        <ele>59.96958</ele>
        <time>2021-07-11T07:35:19Z</time>
      </trkpt>
      <trkpt lat="38.4195" lon="-8.39223">
        <ele>55.63788</ele>
        <time>2021-07-11T07:35:30Z</time>
      </trkpt>
      <trkpt lat="38.41826" lon="-8.39197">
        <ele>54.83165</ele>
        <time>2021-07-11T07:35:41Z</time>
      </trkpt>
      <trkpt lat="38.41707" lon="-8.39204">
        <ele>53.56549</ele>
        <time>2021-07-11T07:35:52Z</time>
      </trkpt>
      <trkpt lat="38.41641" lon="-8.39225">
        <ele>63.57622</ele>
        <time>2021-07-11T07:36:03Z</time>
      </trkpt>
      <trkpt lat="38.41563" lon="-8.39184">
        <ele>70.85536</ele>
        <time>2021-07-11T07:36:14Z</time>
      </trkpt>
      <trkpt lat="38.41527" lon="-8.39111">
        <ele>78.55141</ele>
        <time>2021-07-11T07:36:25Z</time>
      </trkpt>
      <trkpt lat="38.41565" lon="-8.39046">
        <ele>75.20055</ele>
        <time>2021-07-11T07:36:36Z</time>
      </trkpt>
      <trkpt lat="38.41487" lon="-8.38946">
        <ele>83.27585</ele>
        <time>2021-07-11T07:36:47Z</time>
      </trkpt>
      <trkpt lat="38.41394" lon="-8.38848">
        <ele>86.71607</ele>
        <time>2021-07-11T07:36:58Z</time>
      </trkpt>
      <trkpt lat="38.41323" lon="-8.38744">
        <ele>85.6858</ele>
        <time>2021-07-11T07:37:09Z</time>
      </trkpt>
      <trkpt lat="38.41219" lon="-8.38696">
        <ele>89.41809</ele>
        <time>2021-07-11T07:37:20Z</time>
      </trkpt>
      <trkpt lat="38.41124" lon="-8.38664">
        <ele>95.02849</ele>
        <time>2021-07-11T07:37:31Z</time>
      </trkpt>
      <trkpt lat="38.41008" lon="-8.38591">
        <ele>98.38811</ele>
        <time>2021-07-11T07:37:42Z</time>
      </trkpt>
      <trkpt lat="38.4091" lon="-8.38503">
        <ele>105.9367</ele>
        <time>2021-07-11T07:37:53Z</time>
      </trkpt>
      <trkpt lat="38.40806" lon="-8.38463">
        <ele>111.1151</ele>
        <time>2021-07-11T07:38:04Z</time>
      </trkpt>
      <trkpt lat="38.40705" lon="-8.38465">
        <ele>114.1495</ele>
        <time>2021-07-11T07:38:15Z</time>
      </trkpt>
      <trkpt lat="38.40622" lon="-8.38387">
        <ele>107.8445</ele>
        <time>2021-07-11T07:38:26Z</time>
      </trkpt>
      <trkpt lat="38.40538" lon="-8.38398">
        <ele>104.8161</ele>
        <time>2021-07-11T07:38:37Z</time>
      </trkpt>
      <trkpt lat="38.40509" lon="-8.3839">
        <ele>109.1974</ele>
        <time>2021-07-11T07:38:48Z</time>
      </trkpt>
      <trkpt lat="38.40454" lon="-8.38339">
        <ele>101.5879</ele>
        <time>2021-07-11T07:38:59Z</time>
      </trkpt>
      <trkpt lat="38.40414" lon="-8.3827">
        <ele>93.16075</ele>
        <time>2021-07-11T07:39:10Z</time>
      </trkpt>
      <trkpt lat="38.40348" lon="-8.38208">
        <ele>86.98161</ele>
        <time>2021-07-11T07:39:21Z</time>
      </trkpt>
      <trkpt lat="38.40266" lon="-8.38198">
        <ele>87.3257</ele>
        <time>2021-07-11T07:39:32Z</time>
      </trkpt>
      <trkpt lat="38.40193" lon="-8.38197">
        <ele>92.0408</ele>
        <time>2021-07-11T07:39:43Z</time>
      </trkpt>
      <trkpt lat="38.40129" lon="-8.38132">
        <ele>85.53748</ele>
        <time>2021-07-11T07:39:54Z</time>
      </trkpt>
      <trkpt lat="38.40083" lon="-8.38042">
        <ele>84.59416</ele>
        <time>2021-07-11T07:40:05Z</time>
      </trkpt>
      <trkpt lat="38.40042" lon="-8.37924">
        <ele>90.60018</ele>
        <time>2021-07-11T07:40:16Z</time>
      </trkpt>
      <trkpt lat="38.39975" lon="-8.37834">
        <ele>92.71191</ele>
        <time>2021-07-11T07:40:27Z</time>
      </trkpt>
      <trkpt lat="38.39871" lon="-8.37766">
        <ele>99.91054</ele>
        <time>2021-07-11T07:40:38Z</time>
      </trkpt>
      <trkpt lat="38.39788" lon="-8.37724">
        <ele>104.7623</ele>
        <time>2021-07-11T07:40:49Z</time>
      </trkpt>
      <trkpt lat="38.39733" lon="-8.37668">
        <ele>104.7449</ele>
        <time>2021-07-11T07:41:00Z</time>
      </trkpt>
      <trkpt lat="38.39658" lon="-8.37747">
        <ele>107.1168</ele>
        <time>2021-07-11T07:41:11Z</time>
      </trkpt>
      <trkpt lat="38.39547" lon="-8.37731">
        <ele>107.3802</ele>
        <time>2021-07-11T07:41:22Z</time>
      </trkpt>
      <trkpt lat="38.39493" lon="-8.3763">
        <ele>106.1735</ele>
        <time>2021-07-11T07:41:33Z</time>
      </trkpt>
      <trkpt lat="38.39436" lon="-8.37471">
        <ele>105.7405</ele>
        <time>2021-07-11T07:41:44Z</time>
      </trkpt>
      <trkpt lat="38.39349" lon="-8.3732">
        <ele>106.8464</ele>
        <time>2021-07-11T07:41:55Z</time>
      </trkpt>
      <trkpt lat="38.39233" lon="-8.37214">
        <ele>105.3798</ele>
        <time>2021-07-11T07:42:06Z</time>
      </trkpt>
      <trkpt lat="38.39121" lon="-8.37153">
        <ele>104.8438</ele>
        <time>2021-07-11T07:42:17Z</time>
      </trkpt>
      <trkpt lat="38.39011" lon="-8.37053">
        <ele>102.6751</ele>
        <time>2021-07-11T07:42:28Z</time>
      </trkpt>
      <trkpt lat="38.38916" lon="-8.36954">
        <ele>99.64468</ele>
        <time>2021-07-11T07:42:39Z</time>
      </trkpt>
      <trkpt lat="38.38828" lon="-8.36845">
        <ele>104.4661</ele>
        <time>2021-07-11T07:42:50Z</time>
      </trkpt>
      <trkpt lat="38.38731" lon="-8.36694">
        <ele>112.6817</ele>
        <time>2021-07-11T07:43:01Z</time>
      </trkpt>
      <trkpt lat="38.38638" lon="-8.36538">
        <ele>127.9845</ele>
        <time>2021-07-11T07:43:12Z</time>
      </trkpt>
      <trkpt lat="38.38557" lon="-8.36431">
        <ele>127.6524</ele>
        <time>2021-07-11T07:43:23Z</time>
      </trkpt>
      <trkpt lat="38.38534" lon="-8.36403">
        <ele>121.999</ele>
        <time>2021-07-11T07:43:34Z</time>
      </trkpt>
      <trkpt lat="38.38542" lon="-8.36345">
        <ele>125.9146</ele>
        <time>2021-07-11T07:43:45Z</time>
      </trkpt>
      <trkpt lat="38.38603" lon="-8.36111">
        <ele>127.8568</ele>
        <time>2021-07-11T07:43:56Z</time>
      </trkpt>
      <trkpt lat="38.38598" lon="-8.35851">
        <ele>123.5232</ele>
        <time>2021-07-11T07:44:07Z</time>
      </trkpt>
      <trkpt lat="38.38442" lon="-8.35663">
        <ele>122.9728</ele>
        <time>2021-07-11T07:44:18Z</time>
      </trkpt>
      <trkpt lat="38.38238" lon="-8.35483">
        <ele>121.8971</ele>
        <time>2021-07-11T07:44:29Z</time>
      </trkpt>
      <trkpt lat="38.38107" lon="-8.35226">
        <ele>116.0392</ele>
        <time>2021-07-11T07:44:40Z</time>
      </trkpt>
      <trkpt lat="38.38071" lon="-8.34967">
        <ele>113.4099</ele>
        <time>2021-07-11T07:44:51Z</time>
      </trkpt>
      <trkpt lat="38.3806" lon="-8.34828">
        <ele>112.9548</ele>
        <time>2021-07-11T07:45:02Z</time>
      </trkpt>
      <trkpt lat="38.37927" lon="-8.34762">
        <ele>114.1894</ele>
        <time>2021-07-11T07:45:13Z</time>
      </trkpt>
      <trkpt lat="38.3776" lon="-8.34679">
        <ele>109.3156</ele>
        <time>2021-07-11T07:45:24Z</time>
      </trkpt>
      <trkpt lat="38.37609" lon="-8.34587">
        <ele>107.2594</ele>
        <time>2021-07-11T07:45:35Z</time>
      </trkpt>
      <trkpt lat="38.37426" lon="-8.34499">
        <ele>107.165</ele>
        <time>2021-07-11T07:45:46Z</time>
      </trkpt>
      <trkpt lat="38.37295" lon="-8.34458">
        <ele>111.3526</ele>
        <time>2021-07-11T07:45:57Z</time>
      </trkpt>
      <trkpt lat="38.37113" lon="-8.34405">
        <ele>109.3199</ele>
        <time>2021-07-11T07:46:08Z</time>
      </trkpt>
      <trkpt lat="38.36965" lon="-8.34401">
        <ele>105.7956</ele>
        <time>2021-07-11T07:46:19Z</time>
      </trkpt>
      <trkpt lat="38.368" lon="-8.34314">
        <ele>107.6044</ele>
        <time>2021-07-11T07:46:30Z</time>
      </trkpt>
      <trkpt lat="38.36649" lon="-8.34238">
        <ele>108.8633</ele>
        <time>2021-07-11T07:46:41Z</time>
      </trkpt>
      <trkpt lat="38.36537" lon="-8.34215">
        <ele>109.553</ele>
        <time>2021-07-11T07:46:52Z</time>
      </trkpt>
      <trkpt lat="38.36434" lon="-8.34355">
        <ele>107.9105</ele>
        <time>2021-07-11T07:47:03Z</time>
      </trkpt>
      <trkpt lat="38.36263" lon="-8.34537">
        <ele>107.0342</ele>
        <time>2021-07-11T07:47:14Z</time>
      </trkpt>
      <trkpt lat="38.36116" lon="-8.34623">
        <ele>105.7015</ele>
        <time>2021-07-11T07:47:25Z</time>
      </trkpt>
      <trkpt lat="38.35929" lon="-8.34698">
        <ele>103.2951</ele>
        <time>2021-07-11T07:47:36Z</time>
      </trkpt>
      <trkpt lat="38.35741" lon="-8.34758">
        <ele>103.8606</ele>
        <time>2021-07-11T07:47:47Z</time>
      </trkpt>
      <trkpt lat="38.35627" lon="-8.34823">
        <ele>103.2948</ele>
        <time>2021-07-11T07:47:58Z</time>
      </trkpt>
      <trkpt lat="38.35611" lon="-8.34875">
        <ele>104.7761</ele>
        <time>2021-07-11T07:48:09Z</time>
      </trkpt>
      <trkpt lat="38.35552" lon="-8.34986">
        <ele>108.684</ele>
        <time>2021-07-11T07:48:20Z</time>
      </trkpt>
      <trkpt lat="38.35465" lon="-8.34981">
        <ele>110.678</ele>
        <time>2021-07-11T07:48:31Z</time>
      </trkpt>
      <trkpt lat="38.35325" lon="-8.34977">
        <ele>110.3046</ele>
        <time>2021-07-11T07:48:42Z</time>
      </trkpt>
      <trkpt lat="38.35208" lon="-8.35038">
        <ele>104.2958</ele>
        <time>2021-07-11T07:48:53Z</time>
      </trkpt>
      <trkpt lat="38.35142" lon="-8.35154">
        <ele>104.1583</ele>
        <time>2021-07-11T07:49:04Z</time>
      </trkpt>
      <trkpt lat="38.35041" lon="-8.35261">
        <ele>104.0897</ele>
        <time>2021-07-11T07:49:15Z</time>
      </trkpt>
      <trkpt lat="38.34975" lon="-8.35401">
        <ele>104.9868</ele>
        <time>2021-07-11T07:49:26Z</time>
      </trkpt>
      <trkpt lat="38.34917" lon="-8.3557">
        <ele>106.6716</ele>
        <time>2021-07-11T07:49:37Z</time>
      </trkpt>
      <trkpt lat="38.3484" lon="-8.35736">
        <ele>108.9687</ele>
        <time>2021-07-11T07:49:48Z</time>
      </trkpt>
      <trkpt lat="38.34736" lon="-8.35903">
        <ele>109.9124</ele>
        <time>2021-07-11T07:49:59Z</time>
      </trkpt>
      <trkpt lat="38.34675" lon="-8.36103">
        <ele>108.3633</ele>
        <time>2021-07-11T07:50:10Z</time>
      </trkpt>
      <trkpt lat="38.34607" lon="-8.36247">
        <ele>105.6638</ele>
        <time>2021-07-11T07:50:21Z</time>
      </trkpt>
      <trkpt lat="38.3451" lon="-8.36344">
        <ele>103.772</ele>
        <time>2021-07-11T07:50:32Z</time>
      </trkpt>
      <trkpt lat="38.3436" lon="-8.36385">
        <ele>99.00807</ele>
        <time>2021-07-11T07:50:43Z</time>
      </trkpt>
      <trkpt lat="38.34234" lon="-8.36415">
        <ele>99.12649</ele>
        <time>2021-07-11T07:50:54Z</time>
      </trkpt>
      <trkpt lat="38.34128" lon="-8.36402">
        <ele>103.3844</ele>
        <time>2021-07-11T07:51:05Z</time>
      </trkpt>
      <trkpt lat="38.34002" lon="-8.36479">
        <ele>104.3072</ele>
        <time>2021-07-11T07:51:16Z</time>
      </trkpt>
      <trkpt lat="38.33903" lon="-8.36546">
        <ele>101.5901</ele>
        <time>2021-07-11T07:51:27Z</time>
      </trkpt>
      <trkpt lat="38.33802" lon="-8.36649">
        <ele>96.19707</ele>
        <time>2021-07-11T07:51:38Z</time>
      </trkpt>
      <trkpt lat="38.33709" lon="-8.36719">
        <ele>90.89751</ele>
        <time>2021-07-11T07:51:49Z</time>
      </trkpt>
      <trkpt lat="38.33606" lon="-8.36817">
        <ele>93.81854</ele>
        <time>2021-07-11T07:52:00Z</time>
      </trkpt>
      <trkpt lat="38.33515" lon="-8.36957">
        <ele>96.05918</ele>
        <time>2021-07-11T07:52:11Z</time>
      </trkpt>
      <trkpt lat="38.33405" lon="-8.37122">
        <ele>94.77895</ele>
        <time>2021-07-11T07:52:22Z</time>
      </trkpt>
      <trkpt lat="38.33317" lon="-8.37253">
        <ele>97.29172</ele>
        <time>2021-07-11T07:52:33Z</time>
      </trkpt>
      <trkpt lat="38.33228" lon="-8.3741">
        <ele>97.0997</ele>
        <time>2021-07-11T07:52:44Z</time>
      </trkpt>
      <trkpt lat="38.33146" lon="-8.37576">
        <ele>100.0863</ele>
        <time>2021-07-11T07:52:55Z</time>
      </trkpt>
      <trkpt lat="38.33049" lon="-8.37762">
        <ele>100.8827</ele>
        <time>2021-07-11T07:53:06Z</time>
      </trkpt>
      <trkpt lat="38.32962" lon="-8.37943">
        <ele>95.43798</ele>
        <time>2021-07-11T07:53:17Z</time>
      </trkpt>
      <trkpt lat="38.32884" lon="-8.38095">
        <ele>95.89968</ele>
        <time>2021-07-11T07:53:28Z</time>
      </trkpt>
      <trkpt lat="38.32799" lon="-8.38265">
        <ele>98.90456</ele>
        <time>2021-07-11T07:53:39Z</time>
      </trkpt>
      <trkpt lat="38.32712" lon="-8.3844">
        <ele>98.99999</ele>
        <time>2021-07-11T07:53:50Z</time>
      </trkpt>
      <trkpt lat="38.32629" lon="-8.38604">
        <ele>98.96427</ele>
        <time>2021-07-11T07:54:01Z</time>
      </trkpt>
      <trkpt lat="38.32545" lon="-8.38769">
        <ele>96.04859</ele>
        <time>2021-07-11T07:54:12Z</time>
      </trkpt>
      <trkpt lat="38.32463" lon="-8.38935">
        <ele>97.31299</ele>
        <time>2021-07-11T07:54:23Z</time>
      </trkpt>
      <trkpt lat="38.32385" lon="-8.39075">
        <ele>94.43357</ele>
        <time>2021-07-11T07:54:34Z</time>
      </trkpt>
      <trkpt lat="38.32286" lon="-8.39157">
        <ele>91.18174</ele>
        <time>2021-07-11T07:54:45Z</time>
      </trkpt>
      <trkpt lat="38.3222" lon="-8.39322">
        <ele>90.79518</ele>
        <time>2021-07-11T07:54:56Z</time>
      </trkpt>
      <trkpt lat="38.3216" lon="-8.39488">
        <ele>90.15004</ele>
        <time>2021-07-11T07:55:07Z</time>
      </trkpt>
      <trkpt lat="38.32097" lon="-8.39577">
        <ele>90.67709</ele>
        <time>2021-07-11T07:55:18Z</time>
      </trkpt>
      <trkpt lat="38.31971" lon="-8.39617">
        <ele>86.9097</ele>
        <time>2021-07-11T07:55:29Z</time>
      </trkpt>
      <trkpt lat="38.31846" lon="-8.39664">
        <ele>80.59606</ele>
        <time>2021-07-11T07:55:40Z</time>
      </trkpt>
      <trkpt lat="38.31741" lon="-8.39699">
        <ele>89.72776</ele>
        <time>2021-07-11T07:55:51Z</time>
      </trkpt>
      <trkpt lat="38.31641" lon="-8.39753">
        <ele>87.09957</ele>
        <time>2021-07-11T07:56:02Z</time>
      </trkpt>
      <trkpt lat="38.31561" lon="-8.39787">
        <ele>89.39593</ele>
        <time>2021-07-11T07:56:13Z</time>
      </trkpt>
      <trkpt lat="38.31459" lon="-8.39822">
        <ele>95.7569</ele>
        <time>2021-07-11T07:56:24Z</time>
      </trkpt>
      <trkpt lat="38.31362" lon="-8.399">
        <ele>92.45533</ele>
        <time>2021-07-11T07:56:35Z</time>
      </trkpt>
      <trkpt lat="38.31265" lon="-8.39966">
        <ele>91.75716</ele>
        <time>2021-07-11T07:56:46Z</time>
      </trkpt>
      <trkpt lat="38.31153" lon="-8.40016">
        <ele>89.91071</ele>
        <time>2021-07-11T07:56:57Z</time>
      </trkpt>
      <trkpt lat="38.31045" lon="-8.40041">
        <ele>88.76639</ele>
        <time>2021-07-11T07:57:08Z</time>
      </trkpt>
      <trkpt lat="38.30987" lon="-8.40105">
        <ele>86.48709</ele>
        <time>2021-07-11T07:57:19Z</time>
      </trkpt>
      <trkpt lat="38.30937" lon="-8.40219">
        <ele>85.40453</ele>
        <time>2021-07-11T07:57:30Z</time>
      </trkpt>
      <trkpt lat="38.30835" lon="-8.40264">
        <ele>83.36863</ele>
        <time>2021-07-11T07:57:41Z</time>
      </trkpt>
      <trkpt lat="38.3075" lon="-8.40327">
        <ele>82.12328</ele>
        <time>2021-07-11T07:57:52Z</time>
      </trkpt>
      <trkpt lat="38.30658" lon="-8.40378">
        <ele>82.13715</ele>
        <time>2021-07-11T07:58:03Z</time>
      </trkpt>
      <trkpt lat="38.30582" lon="-8.40457">
        <ele>79.15491</ele>
        <time>2021-07-11T07:58:14Z</time>
      </trkpt>
      <trkpt lat="38.30515" lon="-8.40524">
        <ele>78.74073</ele>
        <time>2021-07-11T07:58:25Z</time>
      </trkpt>
      <trkpt lat="38.30477" lon="-8.40637">
        <ele>79.1534</ele>
        <time>2021-07-11T07:58:36Z</time>
      </trkpt>
      <trkpt lat="38.30506" lon="-8.40769">
        <ele>77.20804</ele>
        <time>2021-07-11T07:58:47Z</time>
      </trkpt>
      <trkpt lat="38.30503" lon="-8.40871">
        <ele>76.42966</ele>
        <time>2021-07-11T07:58:58Z</time>
      </trkpt>
      <trkpt lat="38.30466" lon="-8.40986">
        <ele>77.31667</ele>
        <time>2021-07-11T07:59:09Z</time>
      </trkpt>
      <trkpt lat="38.30429" lon="-8.41127">
        <ele>77.29568</ele>
        <time>2021-07-11T07:59:20Z</time>
      </trkpt>
      <trkpt lat="38.30378" lon="-8.41229">
        <ele>75.15847</ele>
        <time>2021-07-11T07:59:31Z</time>
      </trkpt>
      <trkpt lat="38.30375" lon="-8.41227">
        <ele>73.31738</ele>
        <time>2021-07-11T07:59:53Z</time>
      </trkpt>
      <trkpt lat="38.30365" lon="-8.41103">
        <ele>80.95272</ele>
        <time>2021-07-11T08:00:04Z</time>
      </trkpt>
      <trkpt lat="38.30396" lon="-8.40833">
        <ele>76.00514</ele>
        <time>2021-07-11T08:00:15Z</time>
      </trkpt>
      <trkpt lat="38.30285" lon="-8.40663">
        <ele>74.7067</ele>
        <time>2021-07-11T08:00:26Z</time>
      </trkpt>
      <trkpt lat="38.30083" lon="-8.40484">
        <ele>68.68619</ele>
        <time>2021-07-11T08:00:37Z</time>
      </trkpt>
      <trkpt lat="38.29881" lon="-8.4044">
        <ele>73.69189</ele>
        <time>2021-07-11T08:00:48Z</time>
      </trkpt>
      <trkpt lat="38.29671" lon="-8.40477">
        <ele>65.0827</ele>
        <time>2021-07-11T08:00:59Z</time>
      </trkpt>
      <trkpt lat="38.29499" lon="-8.40537">
        <ele>62.14346</ele>
        <time>2021-07-11T08:01:10Z</time>
      </trkpt>
      <trkpt lat="38.29323" lon="-8.40389">
        <ele>52.32295</ele>
        <time>2021-07-11T08:01:21Z</time>
      </trkpt>
      <trkpt lat="38.29115" lon="-8.40329">
        <ele>35.6349</ele>
        <time>2021-07-11T08:01:32Z</time>
      </trkpt>
      <trkpt lat="38.2896" lon="-8.40446">
        <ele>21.22502</ele>
        <time>2021-07-11T08:01:43Z</time>
      </trkpt>
      <trkpt lat="38.28795" lon="-8.40485">
        <ele>9.339877</ele>
        <time>2021-07-11T08:01:54Z</time>
      </trkpt>
      <trkpt lat="38.28659" lon="-8.40374">
        <ele>8.577981</ele>
        <time>2021-07-11T08:02:05Z</time>
      </trkpt>
      <trkpt lat="38.2848" lon="-8.40167">
        <ele>11.37455</ele>
        <time>2021-07-11T08:02:16Z</time>
      </trkpt>
      <trkpt lat="38.28304" lon="-8.39968">
        <ele>15.65587</ele>
        <time>2021-07-11T08:02:27Z</time>
      </trkpt>
      <trkpt lat="38.28126" lon="-8.39766">
        <ele>22.00021</ele>
        <time>2021-07-11T08:02:38Z</time>
      </trkpt>
      <trkpt lat="38.2795" lon="-8.39566">
        <ele>23.49577</ele>
        <time>2021-07-11T08:02:49Z</time>
      </trkpt>
      <trkpt lat="38.27809" lon="-8.39383">
        <ele>16.51927</ele>
        <time>2021-07-11T08:03:00Z</time>
      </trkpt>
      <trkpt lat="38.27858" lon="-8.39105">
        <ele>8.307227</ele>
        <time>2021-07-11T08:03:11Z</time>
      </trkpt>
      <trkpt lat="38.2791" lon="-8.38799">
        <ele>8.631122</ele>
        <time>2021-07-11T08:03:22Z</time>
      </trkpt>
      <trkpt lat="38.27918" lon="-8.38485">
        <ele>8.199545</ele>
        <time>2021-07-11T08:03:33Z</time>
      </trkpt>
      <trkpt lat="38.27901" lon="-8.38184">
        <ele>7.52035</ele>
        <time>2021-07-11T08:03:44Z</time>
      </trkpt>
      <trkpt lat="38.27817" lon="-8.37913">
        <ele>8.678909</ele>
        <time>2021-07-11T08:03:55Z</time>
      </trkpt>
      <trkpt lat="38.27657" lon="-8.37666">
        <ele>7.603717</ele>
        <time>2021-07-11T08:04:06Z</time>
      </trkpt>
      <trkpt lat="38.27458" lon="-8.37552">
        <ele>13.92664</ele>
        <time>2021-07-11T08:04:17Z</time>
      </trkpt>
      <trkpt lat="38.27393" lon="-8.37335">
        <ele>19.36648</ele>
        <time>2021-07-11T08:04:28Z</time>
      </trkpt>
      <trkpt lat="38.27359" lon="-8.37018">
        <ele>12.4089</ele>
        <time>2021-07-11T08:04:39Z</time>
      </trkpt>
      <trkpt lat="38.27326" lon="-8.36714">
        <ele>11.40395</ele>
        <time>2021-07-11T08:04:50Z</time>
      </trkpt>
      <trkpt lat="38.2725" lon="-8.3642">
        <ele>10.74357</ele>
        <time>2021-07-11T08:05:01Z</time>
      </trkpt>
      <trkpt lat="38.27178" lon="-8.36136">
        <ele>12.80627</ele>
        <time>2021-07-11T08:05:12Z</time>
      </trkpt>
      <trkpt lat="38.27189" lon="-8.35906">
        <ele>9.855091</ele>
        <time>2021-07-11T08:05:23Z</time>
      </trkpt>
      <trkpt lat="38.27103" lon="-8.35838">
        <ele>13.31753</ele>
        <time>2021-07-11T08:05:34Z</time>
      </trkpt>
      <trkpt lat="38.26945" lon="-8.3573">
        <ele>19.74515</ele>
        <time>2021-07-11T08:05:45Z</time>
      </trkpt>
      <trkpt lat="38.26787" lon="-8.3549">
        <ele>30.2905</ele>
        <time>2021-07-11T08:05:56Z</time>
      </trkpt>
      <trkpt lat="38.26668" lon="-8.35232">
        <ele>32.63341</ele>
        <time>2021-07-11T08:06:07Z</time>
      </trkpt>
      <trkpt lat="38.26608" lon="-8.34937">
        <ele>44.34011</ele>
        <time>2021-07-11T08:06:18Z</time>
      </trkpt>
      <trkpt lat="38.26568" lon="-8.34743">
        <ele>49.97196</ele>
        <time>2021-07-11T08:06:29Z</time>
      </trkpt>
      <trkpt lat="38.2652" lon="-8.34718">
        <ele>49.80681</ele>
        <time>2021-07-11T08:06:40Z</time>
      </trkpt>
      <trkpt lat="38.26405" lon="-8.3492">
        <ele>49.74598</ele>
        <time>2021-07-11T08:06:51Z</time>
      </trkpt>
      <trkpt lat="38.26269" lon="-8.35151">
        <ele>51.19224</ele>
        <time>2021-07-11T08:07:02Z</time>
      </trkpt>
      <trkpt lat="38.26104" lon="-8.35344">
        <ele>48.16707</ele>
        <time>2021-07-11T08:07:13Z</time>
      </trkpt>
      <trkpt lat="38.25901" lon="-8.3556">
        <ele>49.24151</ele>
        <time>2021-07-11T08:07:24Z</time>
      </trkpt>
      <trkpt lat="38.25701" lon="-8.357">
        <ele>39.96884</ele>
        <time>2021-07-11T08:07:35Z</time>
      </trkpt>
      <trkpt lat="38.25478" lon="-8.35756">
        <ele>23.53268</ele>
        <time>2021-07-11T08:07:46Z</time>
      </trkpt>
      <trkpt lat="38.2534" lon="-8.35802">
        <ele>11.75172</ele>
        <time>2021-07-11T08:07:57Z</time>
      </trkpt>
      <trkpt lat="38.25306" lon="-8.35897">
        <ele>10.25844</ele>
        <time>2021-07-11T08:08:08Z</time>
      </trkpt>
      <trkpt lat="38.25162" lon="-8.3591">
        <ele>9.183672</ele>
        <time>2021-07-11T08:08:19Z</time>
      </trkpt>
      <trkpt lat="38.25074" lon="-8.35862">
        <ele>7.637437</ele>
        <time>2021-07-11T08:08:30Z</time>
      </trkpt>
      <trkpt lat="38.2493" lon="-8.359">
        <ele>7.896779</ele>
        <time>2021-07-11T08:08:41Z</time>
      </trkpt>
      <trkpt lat="38.24892" lon="-8.35909">
        <ele>9.198165</ele>
        <time>2021-07-11T08:08:52Z</time>
      </trkpt>
      <trkpt lat="38.24891" lon="-8.3591">
        <ele>9.277379</ele>
        <time>2021-07-11T08:09:52Z</time>
      </trkpt>
      <trkpt lat="38.24886" lon="-8.35908">
        <ele>8.998999</ele>
        <time>2021-07-11T08:10:11Z</time>
      </trkpt>
      <trkpt lat="38.24827" lon="-8.35815">
        <ele>9.382694</ele>
        <time>2021-07-11T08:10:22Z</time>
      </trkpt>
      <trkpt lat="38.24811" lon="-8.35787">
        <ele>9.386321</ele>
        <time>2021-07-11T08:10:33Z</time>
      </trkpt>
      <trkpt lat="38.24779" lon="-8.35719">
        <ele>9.925876</ele>
        <time>2021-07-11T08:10:44Z</time>
      </trkpt>
      <trkpt lat="38.24738" lon="-8.35645">
        <ele>10.56497</ele>
        <time>2021-07-11T08:10:55Z</time>
      </trkpt>
      <trkpt lat="38.24705" lon="-8.35483">
        <ele>5.438033</ele>
        <time>2021-07-11T08:11:06Z</time>
      </trkpt>
      <trkpt lat="38.24715" lon="-8.35311">
        <ele>5.292246</ele>
        <time>2021-07-11T08:11:17Z</time>
      </trkpt>
      <trkpt lat="38.24688" lon="-8.35118">
        <ele>6.94417</ele>
        <time>2021-07-11T08:11:28Z</time>
      </trkpt>
      <trkpt lat="38.24667" lon="-8.34979">
        <ele>11.11526</ele>
        <time>2021-07-11T08:11:39Z</time>
      </trkpt>
      <trkpt lat="38.24645" lon="-8.34869">
        <ele>20.96247</ele>
        <time>2021-07-11T08:11:50Z</time>
      </trkpt>
      <trkpt lat="38.24647" lon="-8.34874">
        <ele>18.21759</ele>
        <time>2021-07-11T08:12:01Z</time>
      </trkpt>
      <trkpt lat="38.2465" lon="-8.34875">
        <ele>15.93756</ele>
        <time>2021-07-11T08:12:15Z</time>
      </trkpt>
      <trkpt lat="38.24648" lon="-8.34878">
        <ele>11.00835</ele>
        <time>2021-07-11T08:13:14Z</time>
      </trkpt>
      <trkpt lat="38.24648" lon="-8.34879">
        <ele>7.802497</ele>
        <time>2021-07-11T08:14:14Z</time>
      </trkpt>
      <trkpt lat="38.24647" lon="-8.34874">
        <ele>8.001434</ele>
        <time>2021-07-11T08:15:09Z</time>
      </trkpt>
      <trkpt lat="38.2465" lon="-8.3487">
        <ele>8.500644</ele>
        <time>2021-07-11T08:15:27Z</time>
      </trkpt>
      <trkpt lat="38.24702" lon="-8.34795">
        <ele>8.873346</ele>
        <time>2021-07-11T08:15:38Z</time>
      </trkpt>
      <trkpt lat="38.247" lon="-8.34735">
        <ele>9.054477</ele>
        <time>2021-07-11T08:15:49Z</time>
      </trkpt>
      <trkpt lat="38.24699" lon="-8.34729">
        <ele>10.7502</ele>
        <time>2021-07-11T08:16:28Z</time>
      </trkpt>
      <trkpt lat="38.24695" lon="-8.34648">
        <ele>9.203674</ele>
        <time>2021-07-11T08:16:39Z</time>
      </trkpt>
      <trkpt lat="38.24701" lon="-8.34554">
        <ele>8.537509</ele>
        <time>2021-07-11T08:16:50Z</time>
      </trkpt>
      <trkpt lat="38.24696" lon="-8.34462">
        <ele>9.069308</ele>
        <time>2021-07-11T08:17:01Z</time>
      </trkpt>
      <trkpt lat="38.24686" lon="-8.34407">
        <ele>9.621271</ele>
        <time>2021-07-11T08:17:12Z</time>
      </trkpt>
      <trkpt lat="38.24653" lon="-8.34326">
        <ele>9.275342</ele>
        <time>2021-07-11T08:17:23Z</time>
      </trkpt>
      <trkpt lat="38.24643" lon="-8.34242">
        <ele>8.49753</ele>
        <time>2021-07-11T08:17:34Z</time>
      </trkpt>
      <trkpt lat="38.24632" lon="-8.34153">
        <ele>9.337034</ele>
        <time>2021-07-11T08:17:45Z</time>
      </trkpt>
      <trkpt lat="38.24615" lon="-8.34047">
        <ele>8.538822</ele>
        <time>2021-07-11T08:17:56Z</time>
      </trkpt>
      <trkpt lat="38.24588" lon="-8.33953">
        <ele>9.856685</ele>
        <time>2021-07-11T08:18:07Z</time>
      </trkpt>
      <trkpt lat="38.24552" lon="-8.33832">
        <ele>9.365033</ele>
        <time>2021-07-11T08:18:18Z</time>
      </trkpt>
      <trkpt lat="38.24519" lon="-8.33727">
        <ele>11.05442</ele>
        <time>2021-07-11T08:18:29Z</time>
      </trkpt>
      <trkpt lat="38.24472" lon="-8.33629">
        <ele>11.94819</ele>
        <time>2021-07-11T08:18:40Z</time>
      </trkpt>
      <trkpt lat="38.24426" lon="-8.3355">
        <ele>9.470507</ele>
        <time>2021-07-11T08:18:51Z</time>
      </trkpt>
      <trkpt lat="38.24365" lon="-8.33471">
        <ele>12.33873</ele>
        <time>2021-07-11T08:19:02Z</time>
      </trkpt>
      <trkpt lat="38.2429" lon="-8.33413">
        <ele>11.03699</ele>
        <time>2021-07-11T08:19:13Z</time>
      </trkpt>
      <trkpt lat="38.24213" lon="-8.33351">
        <ele>10.75713</ele>
        <time>2021-07-11T08:19:24Z</time>
      </trkpt>
      <trkpt lat="38.24133" lon="-8.33309">
        <ele>11.52784</ele>
        <time>2021-07-11T08:19:35Z</time>
      </trkpt>
      <trkpt lat="38.2405" lon="-8.33293">
        <ele>11.59301</ele>
        <time>2021-07-11T08:19:46Z</time>
      </trkpt>
      <trkpt lat="38.23974" lon="-8.33264">
        <ele>13.71649</ele>
        <time>2021-07-11T08:19:57Z</time>
      </trkpt>
      <trkpt lat="38.23888" lon="-8.33249">
        <ele>14.86415</ele>
        <time>2021-07-11T08:20:08Z</time>
      </trkpt>
      <trkpt lat="38.23808" lon="-8.33255">
        <ele>10.83716</ele>
        <time>2021-07-11T08:20:19Z</time>
      </trkpt>
      <trkpt lat="38.23732" lon="-8.33246">
        <ele>7.486288</ele>
        <time>2021-07-11T08:20:30Z</time>
      </trkpt>
      <trkpt lat="38.23644" lon="-8.33251">
        <ele>6.953699</ele>
        <time>2021-07-11T08:20:41Z</time>
      </trkpt>
      <trkpt lat="38.2356" lon="-8.33273">
        <ele>10.23732</ele>
        <time>2021-07-11T08:20:52Z</time>
      </trkpt>
      <trkpt lat="38.23467" lon="-8.33295">
        <ele>10.67693</ele>
        <time>2021-07-11T08:21:03Z</time>
      </trkpt>
      <trkpt lat="38.23375" lon="-8.33324">
        <ele>8.349859</ele>
        <time>2021-07-11T08:21:14Z</time>
      </trkpt>
      <trkpt lat="38.23269" lon="-8.33353">
        <ele>6.460981</ele>
        <time>2021-07-11T08:21:25Z</time>
      </trkpt>
      <trkpt lat="38.23169" lon="-8.33366">
        <ele>2.471184</ele>
        <time>2021-07-11T08:21:36Z</time>
      </trkpt>
      <trkpt lat="38.23082" lon="-8.33379">
        <ele>7.839363</ele>
        <time>2021-07-11T08:21:47Z</time>
      </trkpt>
      <trkpt lat="38.22988" lon="-8.33376">
        <ele>10.02694</ele>
        <time>2021-07-11T08:21:58Z</time>
      </trkpt>
      <trkpt lat="38.22867" lon="-8.33357">
        <ele>8.922056</ele>
        <time>2021-07-11T08:22:09Z</time>
      </trkpt>
      <trkpt lat="38.22767" lon="-8.33342">
        <ele>10.32244</ele>
        <time>2021-07-11T08:22:20Z</time>
      </trkpt>
      <trkpt lat="38.22682" lon="-8.33325">
        <ele>8.923465</ele>
        <time>2021-07-11T08:22:31Z</time>
      </trkpt>
      <trkpt lat="38.22574" lon="-8.333">
        <ele>8.13251</ele>
        <time>2021-07-11T08:22:42Z</time>
      </trkpt>
      <trkpt lat="38.22489" lon="-8.33264">
        <ele>9.365492</ele>
        <time>2021-07-11T08:22:53Z</time>
      </trkpt>
      <trkpt lat="38.2243" lon="-8.33228">
        <ele>9.300894</ele>
        <time>2021-07-11T08:23:04Z</time>
      </trkpt>
      <trkpt lat="38.22356" lon="-8.33175">
        <ele>8.652783</ele>
        <time>2021-07-11T08:23:15Z</time>
      </trkpt>
      <trkpt lat="38.22267" lon="-8.33107">
        <ele>8.847508</ele>
        <time>2021-07-11T08:23:26Z</time>
      </trkpt>
      <trkpt lat="38.22186" lon="-8.33056">
        <ele>9.175436</ele>
        <time>2021-07-11T08:23:37Z</time>
      </trkpt>
      <trkpt lat="38.22094" lon="-8.32993">
        <ele>9.771261</ele>
        <time>2021-07-11T08:23:48Z</time>
      </trkpt>
      <trkpt lat="38.22015" lon="-8.32936">
        <ele>8.083141</ele>
        <time>2021-07-11T08:23:59Z</time>
      </trkpt>
      <trkpt lat="38.21942" lon="-8.32899">
        <ele>8.062124</ele>
        <time>2021-07-11T08:24:10Z</time>
      </trkpt>
      <trkpt lat="38.21845" lon="-8.32867">
        <ele>13.14949</ele>
        <time>2021-07-11T08:24:21Z</time>
      </trkpt>
      <trkpt lat="38.21762" lon="-8.32794">
        <ele>12.58373</ele>
        <time>2021-07-11T08:24:32Z</time>
      </trkpt>
      <trkpt lat="38.2169" lon="-8.32722">
        <ele>16.10121</ele>
        <time>2021-07-11T08:24:43Z</time>
      </trkpt>
      <trkpt lat="38.21651" lon="-8.32668">
        <ele>13.73083</ele>
        <time>2021-07-11T08:24:54Z</time>
      </trkpt>
      <trkpt lat="38.21621" lon="-8.32605">
        <ele>12.06607</ele>
        <time>2021-07-11T08:25:05Z</time>
      </trkpt>
      <trkpt lat="38.21557" lon="-8.32541">
        <ele>11.29921</ele>
        <time>2021-07-11T08:25:16Z</time>
      </trkpt>
      <trkpt lat="38.21495" lon="-8.325">
        <ele>11.50065</ele>
        <time>2021-07-11T08:25:27Z</time>
      </trkpt>
      <trkpt lat="38.21413" lon="-8.32502">
        <ele>8.740051</ele>
        <time>2021-07-11T08:25:38Z</time>
      </trkpt>
      <trkpt lat="38.21303" lon="-8.32454">
        <ele>10.26407</ele>
        <time>2021-07-11T08:25:49Z</time>
      </trkpt>
      <trkpt lat="38.21163" lon="-8.32439">
        <ele>10.73764</ele>
        <time>2021-07-11T08:26:00Z</time>
      </trkpt>
      <trkpt lat="38.21022" lon="-8.32434">
        <ele>9.976716</ele>
        <time>2021-07-11T08:26:11Z</time>
      </trkpt>
      <trkpt lat="38.20845" lon="-8.32443">
        <ele>9.738493</ele>
        <time>2021-07-11T08:26:22Z</time>
      </trkpt>
      <trkpt lat="38.20657" lon="-8.32456">
        <ele>8.954148</ele>
        <time>2021-07-11T08:26:33Z</time>
      </trkpt>
      <trkpt lat="38.20474" lon="-8.32458">
        <ele>5.169032</ele>
        <time>2021-07-11T08:26:44Z</time>
      </trkpt>
      <trkpt lat="38.20308" lon="-8.32426">
        <ele>8.516481</ele>
        <time>2021-07-11T08:26:55Z</time>
      </trkpt>
      <trkpt lat="38.20158" lon="-8.32325">
        <ele>4.246837</ele>
        <time>2021-07-11T08:27:06Z</time>
      </trkpt>
      <trkpt lat="38.20027" lon="-8.32214">
        <ele>1.800289</ele>
        <time>2021-07-11T08:27:17Z</time>
      </trkpt>
      <trkpt lat="38.19929" lon="-8.32108">
        <ele>5.068121</ele>
        <time>2021-07-11T08:27:28Z</time>
      </trkpt>
      <trkpt lat="38.19843" lon="-8.32019">
        <ele>12.33119</ele>
        <time>2021-07-11T08:27:39Z</time>
      </trkpt>
      <trkpt lat="38.1974" lon="-8.31864">
        <ele>17.46079</ele>
        <time>2021-07-11T08:27:50Z</time>
      </trkpt>
      <trkpt lat="38.19665" lon="-8.31706">
        <ele>17.7698</ele>
        <time>2021-07-11T08:28:01Z</time>
      </trkpt>
      <trkpt lat="38.1963" lon="-8.31543">
        <ele>4.828489</ele>
        <time>2021-07-11T08:28:12Z</time>
      </trkpt>
      <trkpt lat="38.19618" lon="-8.31324">
        <ele>11.83972</ele>
        <time>2021-07-11T08:28:23Z</time>
      </trkpt>
      <trkpt lat="38.19588" lon="-8.3116">
        <ele>13.09957</ele>
        <time>2021-07-11T08:28:34Z</time>
      </trkpt>
      <trkpt lat="38.19533" lon="-8.30985">
        <ele>14.24353</ele>
        <time>2021-07-11T08:28:45Z</time>
      </trkpt>
      <trkpt lat="38.19479" lon="-8.30823">
        <ele>14.50321</ele>
        <time>2021-07-11T08:28:56Z</time>
      </trkpt>
      <trkpt lat="38.1939" lon="-8.30663">
        <ele>14.07191</ele>
        <time>2021-07-11T08:29:07Z</time>
      </trkpt>
      <trkpt lat="38.19301" lon="-8.30522">
        <ele>18.02759</ele>
        <time>2021-07-11T08:29:18Z</time>
      </trkpt>
      <trkpt lat="38.192" lon="-8.30398">
        <ele>15.68317</ele>
        <time>2021-07-11T08:29:29Z</time>
      </trkpt>
      <trkpt lat="38.19093" lon="-8.30304">
        <ele>12.85856</ele>
        <time>2021-07-11T08:29:40Z</time>
      </trkpt>
      <trkpt lat="38.18959" lon="-8.30257">
        <ele>12.36989</ele>
        <time>2021-07-11T08:29:51Z</time>
      </trkpt>
      <trkpt lat="38.18874" lon="-8.30242">
        <ele>11.57231</ele>
        <time>2021-07-11T08:30:02Z</time>
      </trkpt>
      <trkpt lat="38.18767" lon="-8.30308">
        <ele>12.57203</ele>
        <time>2021-07-11T08:30:13Z</time>
      </trkpt>
      <trkpt lat="38.18668" lon="-8.30386">
        <ele>17.07957</ele>
        <time>2021-07-11T08:30:24Z</time>
      </trkpt>
      <trkpt lat="38.1857" lon="-8.30511">
        <ele>14.55817</ele>
        <time>2021-07-11T08:30:35Z</time>
      </trkpt>
      <trkpt lat="38.18481" lon="-8.30628">
        <ele>13.18701</ele>
        <time>2021-07-11T08:30:46Z</time>
      </trkpt>
      <trkpt lat="38.18411" lon="-8.30747">
        <ele>12.30003</ele>
        <time>2021-07-11T08:30:57Z</time>
      </trkpt>
      <trkpt lat="38.18374" lon="-8.30906">
        <ele>12.96577</ele>
        <time>2021-07-11T08:31:08Z</time>
      </trkpt>
      <trkpt lat="38.18346" lon="-8.31082">
        <ele>14.68612</ele>
        <time>2021-07-11T08:31:19Z</time>
      </trkpt>
      <trkpt lat="38.18327" lon="-8.3127">
        <ele>18.10874</ele>
        <time>2021-07-11T08:31:30Z</time>
      </trkpt>
      <trkpt lat="38.18315" lon="-8.31413">
        <ele>15.44247</ele>
        <time>2021-07-11T08:31:41Z</time>
      </trkpt>
      <trkpt lat="38.18279" lon="-8.31496">
        <ele>16.99286</ele>
        <time>2021-07-11T08:31:52Z</time>
      </trkpt>
      <trkpt lat="38.18238" lon="-8.31653">
        <ele>17.00259</ele>
        <time>2021-07-11T08:32:03Z</time>
      </trkpt>
      <trkpt lat="38.18156" lon="-8.31787">
        <ele>17.80516</ele>
        <time>2021-07-11T08:32:14Z</time>
      </trkpt>
      <trkpt lat="38.18068" lon="-8.31872">
        <ele>17.59651</ele>
        <time>2021-07-11T08:32:25Z</time>
      </trkpt>
      <trkpt lat="38.17978" lon="-8.31965">
        <ele>20.21974</ele>
        <time>2021-07-11T08:32:36Z</time>
      </trkpt>
      <trkpt lat="38.17848" lon="-8.32112">
        <ele>19.24809</ele>
        <time>2021-07-11T08:32:47Z</time>
      </trkpt>
      <trkpt lat="38.17775" lon="-8.32199">
        <ele>20.62706</ele>
        <time>2021-07-11T08:32:58Z</time>
      </trkpt>
      <trkpt lat="38.17753" lon="-8.32226">
        <ele>19.89031</ele>
        <time>2021-07-11T08:33:09Z</time>
      </trkpt>
      <trkpt lat="38.17754" lon="-8.32225">
        <ele>20.07071</ele>
        <time>2021-07-11T08:34:09Z</time>
      </trkpt>
      <trkpt lat="38.17755" lon="-8.32225">
        <ele>18.0968</ele>
        <time>2021-07-11T08:35:09Z</time>
      </trkpt>
      <trkpt lat="38.17754" lon="-8.32225">
        <ele>18.68562</ele>
        <time>2021-07-11T08:36:08Z</time>
      </trkpt>
      <trkpt lat="38.17754" lon="-8.32226">
        <ele>18.29059</ele>
        <time>2021-07-11T08:37:08Z</time>
      </trkpt>
      <trkpt lat="38.17754" lon="-8.32225">
        <ele>19.76525</ele>
        <time>2021-07-11T08:38:08Z</time>
      </trkpt>
      <trkpt lat="38.17751" lon="-8.3223">
        <ele>19.48975</ele>
        <time>2021-07-11T08:38:23Z</time>
      </trkpt>
      <trkpt lat="38.17697" lon="-8.32283">
        <ele>19.23543</ele>
        <time>2021-07-11T08:38:34Z</time>
      </trkpt>
      <trkpt lat="38.17611" lon="-8.32343">
        <ele>16.5959</ele>
        <time>2021-07-11T08:38:45Z</time>
      </trkpt>
      <trkpt lat="38.17516" lon="-8.32408">
        <ele>11.1016</ele>
        <time>2021-07-11T08:38:56Z</time>
      </trkpt>
      <trkpt lat="38.17411" lon="-8.32482">
        <ele>5.367895</ele>
        <time>2021-07-11T08:39:07Z</time>
      </trkpt>
      <trkpt lat="38.17298" lon="-8.32576">
        <ele>17.05101</ele>
        <time>2021-07-11T08:39:18Z</time>
      </trkpt>
      <trkpt lat="38.17166" lon="-8.32671">
        <ele>16.39121</ele>
        <time>2021-07-11T08:39:29Z</time>
      </trkpt>
      <trkpt lat="38.17018" lon="-8.32726">
        <ele>13.23242</ele>
        <time>2021-07-11T08:39:40Z</time>
      </trkpt>
      <trkpt lat="38.16893" lon="-8.32775">
        <ele>14.81548</ele>
        <time>2021-07-11T08:39:51Z</time>
      </trkpt>
      <trkpt lat="38.16784" lon="-8.32853">
        <ele>15.22618</ele>
        <time>2021-07-11T08:40:03Z</time>
      </trkpt>
      <trkpt lat="38.16706" lon="-8.32909">
        <ele>13.27043</ele>
        <time>2021-07-11T08:40:14Z</time>
      </trkpt>
      <trkpt lat="38.16671" lon="-8.32843">
        <ele>15.44605</ele>
        <time>2021-07-11T08:40:25Z</time>
      </trkpt>
      <trkpt lat="38.16587" lon="-8.32807">
        <ele>14.20818</ele>
        <time>2021-07-11T08:40:36Z</time>
      </trkpt>
      <trkpt lat="38.16463" lon="-8.32798">
        <ele>11.48942</ele>
        <time>2021-07-11T08:40:47Z</time>
      </trkpt>
      <trkpt lat="38.16343" lon="-8.32796">
        <ele>10.10186</ele>
        <time>2021-07-11T08:40:58Z</time>
      </trkpt>
      <trkpt lat="38.1624" lon="-8.32811">
        <ele>11.11065</ele>
        <time>2021-07-11T08:41:09Z</time>
      </trkpt>
      <trkpt lat="38.16121" lon="-8.32824">
        <ele>11.11062</ele>
        <time>2021-07-11T08:41:20Z</time>
      </trkpt>
      <trkpt lat="38.16012" lon="-8.32844">
        <ele>11.91089</ele>
        <time>2021-07-11T08:41:31Z</time>
      </trkpt>
      <trkpt lat="38.15914" lon="-8.32865">
        <ele>11.76381</ele>
        <time>2021-07-11T08:41:42Z</time>
      </trkpt>
      <trkpt lat="38.15815" lon="-8.32924">
        <ele>13.95344</ele>
        <time>2021-07-11T08:41:53Z</time>
      </trkpt>
      <trkpt lat="38.15746" lon="-8.33016">
        <ele>11.88166</ele>
        <time>2021-07-11T08:42:04Z</time>
      </trkpt>
      <trkpt lat="38.1569" lon="-8.33193">
        <ele>13.97101</ele>
        <time>2021-07-11T08:42:15Z</time>
      </trkpt>
      <trkpt lat="38.15599" lon="-8.33344">
        <ele>9.954024</ele>
        <time>2021-07-11T08:42:26Z</time>
      </trkpt>
      <trkpt lat="38.15502" lon="-8.33489">
        <ele>11.48675</ele>
        <time>2021-07-11T08:42:37Z</time>
      </trkpt>
      <trkpt lat="38.15383" lon="-8.33614">
        <ele>9.64102</ele>
        <time>2021-07-11T08:42:48Z</time>
      </trkpt>
      <trkpt lat="38.1527" lon="-8.33724">
        <ele>10.68578</ele>
        <time>2021-07-11T08:42:59Z</time>
      </trkpt>
      <trkpt lat="38.15166" lon="-8.3379">
        <ele>7.105177</ele>
        <time>2021-07-11T08:43:10Z</time>
      </trkpt>
      <trkpt lat="38.15069" lon="-8.33889">
        <ele>23.06408</ele>
        <time>2021-07-11T08:43:21Z</time>
      </trkpt>
      <trkpt lat="38.14973" lon="-8.33964">
        <ele>23.13625</ele>
        <time>2021-07-11T08:43:32Z</time>
      </trkpt>
      <trkpt lat="38.15014" lon="-8.34126">
        <ele>28.21146</ele>
        <time>2021-07-11T08:43:43Z</time>
      </trkpt>
      <trkpt lat="38.1504" lon="-8.34272">
        <ele>31.14513</ele>
        <time>2021-07-11T08:43:54Z</time>
      </trkpt>
      <trkpt lat="38.15014" lon="-8.34391">
        <ele>33.2154</ele>
        <time>2021-07-11T08:44:05Z</time>
      </trkpt>
      <trkpt lat="38.14972" lon="-8.34535">
        <ele>38.28878</ele>
        <time>2021-07-11T08:44:16Z</time>
      </trkpt>
      <trkpt lat="38.14935" lon="-8.34697">
        <ele>45.32768</ele>
        <time>2021-07-11T08:44:27Z</time>
      </trkpt>
      <trkpt lat="38.14858" lon="-8.34813">
        <ele>46.06677</ele>
        <time>2021-07-11T08:44:38Z</time>
      </trkpt>
      <trkpt lat="38.14751" lon="-8.34877">
        <ele>40.8522</ele>
        <time>2021-07-11T08:44:49Z</time>
      </trkpt>
      <trkpt lat="38.14621" lon="-8.35021">
        <ele>38.63885</ele>
        <time>2021-07-11T08:45:00Z</time>
      </trkpt>
      <trkpt lat="38.14433" lon="-8.35213">
        <ele>34.7759</ele>
        <time>2021-07-11T08:45:11Z</time>
      </trkpt>
      <trkpt lat="38.143" lon="-8.35427">
        <ele>33.13666</ele>
        <time>2021-07-11T08:45:22Z</time>
      </trkpt>
      <trkpt lat="38.14205" lon="-8.3562">
        <ele>29.0846</ele>
        <time>2021-07-11T08:45:33Z</time>
      </trkpt>
      <trkpt lat="38.14121" lon="-8.35714">
        <ele>26.78889</ele>
        <time>2021-07-11T08:45:44Z</time>
      </trkpt>
      <trkpt lat="38.13999" lon="-8.35601">
        <ele>24.42141</ele>
        <time>2021-07-11T08:45:55Z</time>
      </trkpt>
      <trkpt lat="38.13864" lon="-8.35679">
        <ele>23.84344</ele>
        <time>2021-07-11T08:46:06Z</time>
      </trkpt>
      <trkpt lat="38.13663" lon="-8.35825">
        <ele>27.07905</ele>
        <time>2021-07-11T08:46:17Z</time>
      </trkpt>
      <trkpt lat="38.1346" lon="-8.35937">
        <ele>28.51563</ele>
        <time>2021-07-11T08:46:28Z</time>
      </trkpt>
      <trkpt lat="38.1329" lon="-8.36019">
        <ele>25.19337</ele>
        <time>2021-07-11T08:46:39Z</time>
      </trkpt>
      <trkpt lat="38.13216" lon="-8.3617">
        <ele>22.71109</ele>
        <time>2021-07-11T08:46:50Z</time>
      </trkpt>
      <trkpt lat="38.13197" lon="-8.36274">
        <ele>16.20412</ele>
        <time>2021-07-11T08:47:01Z</time>
      </trkpt>
      <trkpt lat="38.13064" lon="-8.3632">
        <ele>17.36736</ele>
        <time>2021-07-11T08:47:12Z</time>
      </trkpt>
      <trkpt lat="38.12958" lon="-8.36399">
        <ele>18.6417</ele>
        <time>2021-07-11T08:47:23Z</time>
      </trkpt>
      <trkpt lat="38.1289" lon="-8.36293">
        <ele>20.627</ele>
        <time>2021-07-11T08:47:34Z</time>
      </trkpt>
      <trkpt lat="38.12815" lon="-8.36049">
        <ele>17.80517</ele>
        <time>2021-07-11T08:47:45Z</time>
      </trkpt>
      <trkpt lat="38.12725" lon="-8.35874">
        <ele>18.45482</ele>
        <time>2021-07-11T08:47:56Z</time>
      </trkpt>
      <trkpt lat="38.12581" lon="-8.35734">
        <ele>16.1197</ele>
        <time>2021-07-11T08:48:07Z</time>
      </trkpt>
      <trkpt lat="38.12392" lon="-8.35696">
        <ele>18.98368</ele>
        <time>2021-07-11T08:48:19Z</time>
      </trkpt>
      <trkpt lat="38.12181" lon="-8.35721">
        <ele>16.57221</ele>
        <time>2021-07-11T08:48:30Z</time>
      </trkpt>
      <trkpt lat="38.11974" lon="-8.35782">
        <ele>14.92834</ele>
        <time>2021-07-11T08:48:41Z</time>
      </trkpt>
      <trkpt lat="38.11738" lon="-8.35901">
        <ele>14.12096</ele>
        <time>2021-07-11T08:48:52Z</time>
      </trkpt>
      <trkpt lat="38.1154" lon="-8.36004">
        <ele>13.37392</ele>
        <time>2021-07-11T08:49:03Z</time>
      </trkpt>
      <trkpt lat="38.11419" lon="-8.36078">
        <ele>16.49139</ele>
        <time>2021-07-11T08:49:14Z</time>
      </trkpt>
      <trkpt lat="38.11405" lon="-8.36083">
        <ele>16.16572</ele>
        <time>2021-07-11T08:49:25Z</time>
      </trkpt>
      <trkpt lat="38.11329" lon="-8.35949">
        <ele>17.69097</ele>
        <time>2021-07-11T08:49:36Z</time>
      </trkpt>
      <trkpt lat="38.11234" lon="-8.3578">
        <ele>19.44641</ele>
        <time>2021-07-11T08:49:47Z</time>
      </trkpt>
      <trkpt lat="38.11208" lon="-8.35728">
        <ele>23.62964</ele>
        <time>2021-07-11T08:49:58Z</time>
      </trkpt>
      <trkpt lat="38.11165" lon="-8.35646">
        <ele>25.70915</ele>
        <time>2021-07-11T08:50:09Z</time>
      </trkpt>
      <trkpt lat="38.11055" lon="-8.35446">
        <ele>22.91453</ele>
        <time>2021-07-11T08:50:20Z</time>
      </trkpt>
      <trkpt lat="38.10998" lon="-8.35178">
        <ele>28.64797</ele>
        <time>2021-07-11T08:50:31Z</time>
      </trkpt>
      <trkpt lat="38.10844" lon="-8.35035">
        <ele>34.67677</ele>
        <time>2021-07-11T08:50:42Z</time>
      </trkpt>
      <trkpt lat="38.10619" lon="-8.34906">
        <ele>33.45613</ele>
        <time>2021-07-11T08:50:53Z</time>
      </trkpt>
      <trkpt lat="38.1041" lon="-8.34786">
        <ele>36.08877</ele>
        <time>2021-07-11T08:51:04Z</time>
      </trkpt>
      <trkpt lat="38.10201" lon="-8.34664">
        <ele>44.66872</ele>
        <time>2021-07-11T08:51:15Z</time>
      </trkpt>
      <trkpt lat="38.10004" lon="-8.34553">
        <ele>45.67546</ele>
        <time>2021-07-11T08:51:26Z</time>
      </trkpt>
      <trkpt lat="38.09813" lon="-8.34444">
        <ele>45.94884</ele>
        <time>2021-07-11T08:51:37Z</time>
      </trkpt>
      <trkpt lat="38.09617" lon="-8.34325">
        <ele>55.06336</ele>
        <time>2021-07-11T08:51:48Z</time>
      </trkpt>
      <trkpt lat="38.09457" lon="-8.34174">
        <ele>61.41791</ele>
        <time>2021-07-11T08:51:59Z</time>
      </trkpt>
      <trkpt lat="38.09292" lon="-8.34005">
        <ele>59.97302</ele>
        <time>2021-07-11T08:52:10Z</time>
      </trkpt>
      <trkpt lat="38.09116" lon="-8.33828">
        <ele>65.4878</ele>
        <time>2021-07-11T08:52:21Z</time>
      </trkpt>
      <trkpt lat="38.08938" lon="-8.33649">
        <ele>72.71671</ele>
        <time>2021-07-11T08:52:32Z</time>
      </trkpt>
      <trkpt lat="38.08816" lon="-8.33528">
        <ele>73.15122</ele>
        <time>2021-07-11T08:52:43Z</time>
      </trkpt>
      <trkpt lat="38.08774" lon="-8.33585">
        <ele>74.3855</ele>
        <time>2021-07-11T08:52:54Z</time>
      </trkpt>
      <trkpt lat="38.08719" lon="-8.33698">
        <ele>76.96145</ele>
        <time>2021-07-11T08:53:05Z</time>
      </trkpt>
      <trkpt lat="38.08624" lon="-8.33768">
        <ele>79.04024</ele>
        <time>2021-07-11T08:53:16Z</time>
      </trkpt>
      <trkpt lat="38.08475" lon="-8.33798">
        <ele>74.80634</ele>
        <time>2021-07-11T08:53:27Z</time>
      </trkpt>
      <trkpt lat="38.08353" lon="-8.33784">
        <ele>76.15964</ele>
        <time>2021-07-11T08:53:38Z</time>
      </trkpt>
      <trkpt lat="38.08227" lon="-8.33766">
        <ele>74.91911</ele>
        <time>2021-07-11T08:53:49Z</time>
      </trkpt>
      <trkpt lat="38.08102" lon="-8.33767">
        <ele>79.67414</ele>
        <time>2021-07-11T08:54:00Z</time>
      </trkpt>
      <trkpt lat="38.07979" lon="-8.33756">
        <ele>81.01618</ele>
        <time>2021-07-11T08:54:11Z</time>
      </trkpt>
      <trkpt lat="38.07873" lon="-8.33742">
        <ele>83.4757</ele>
        <time>2021-07-11T08:54:22Z</time>
      </trkpt>
      <trkpt lat="38.07839" lon="-8.33816">
        <ele>85.86628</ele>
        <time>2021-07-11T08:54:33Z</time>
      </trkpt>
      <trkpt lat="38.07803" lon="-8.3394">
        <ele>81.17676</ele>
        <time>2021-07-11T08:54:44Z</time>
      </trkpt>
      <trkpt lat="38.07748" lon="-8.34085">
        <ele>80.27397</ele>
        <time>2021-07-11T08:54:55Z</time>
      </trkpt>
      <trkpt lat="38.07687" lon="-8.3423">
        <ele>83.85132</ele>
        <time>2021-07-11T08:55:06Z</time>
      </trkpt>
      <trkpt lat="38.07637" lon="-8.34375">
        <ele>86.57661</ele>
        <time>2021-07-11T08:55:17Z</time>
      </trkpt>
      <trkpt lat="38.07628" lon="-8.34542">
        <ele>82.41908</ele>
        <time>2021-07-11T08:55:28Z</time>
      </trkpt>
      <trkpt lat="38.07639" lon="-8.34696">
        <ele>79.53</ele>
        <time>2021-07-11T08:55:39Z</time>
      </trkpt>
      <trkpt lat="38.0764" lon="-8.34706">
        <ele>80.58387</ele>
        <time>2021-07-11T08:55:50Z</time>
      </trkpt>
      <trkpt lat="38.07638" lon="-8.34711">
        <ele>80.98091</ele>
        <time>2021-07-11T08:56:03Z</time>
      </trkpt>
      <trkpt lat="38.07641" lon="-8.3481">
        <ele>81.7726</ele>
        <time>2021-07-11T08:56:14Z</time>
      </trkpt>
      <trkpt lat="38.07644" lon="-8.34951">
        <ele>83.46334</ele>
        <time>2021-07-11T08:56:25Z</time>
      </trkpt>
      <trkpt lat="38.07645" lon="-8.35131">
        <ele>86.43622</ele>
        <time>2021-07-11T08:56:36Z</time>
      </trkpt>
      <trkpt lat="38.07649" lon="-8.35282">
        <ele>84.44841</ele>
        <time>2021-07-11T08:56:47Z</time>
      </trkpt>
      <trkpt lat="38.07637" lon="-8.3543">
        <ele>82.20535</ele>
        <time>2021-07-11T08:56:58Z</time>
      </trkpt>
      <trkpt lat="38.07632" lon="-8.35588">
        <ele>84.35578</ele>
        <time>2021-07-11T08:57:09Z</time>
      </trkpt>
      <trkpt lat="38.07608" lon="-8.35743">
        <ele>90.22716</ele>
        <time>2021-07-11T08:57:20Z</time>
      </trkpt>
      <trkpt lat="38.07519" lon="-8.35909">
        <ele>92.59695</ele>
        <time>2021-07-11T08:57:31Z</time>
      </trkpt>
      <trkpt lat="38.0738" lon="-8.36003">
        <ele>92.64973</ele>
        <time>2021-07-11T08:57:42Z</time>
      </trkpt>
      <trkpt lat="38.07326" lon="-8.36052">
        <ele>83.54848</ele>
        <time>2021-07-11T08:57:53Z</time>
      </trkpt>
      <trkpt lat="38.0741" lon="-8.36004">
        <ele>86.00458</ele>
        <time>2021-07-11T08:58:04Z</time>
      </trkpt>
      <trkpt lat="38.07471" lon="-8.36121">
        <ele>86.46501</ele>
        <time>2021-07-11T08:58:15Z</time>
      </trkpt>
      <trkpt lat="38.07451" lon="-8.36243">
        <ele>85.11737</ele>
        <time>2021-07-11T08:58:26Z</time>
      </trkpt>
      <trkpt lat="38.07361" lon="-8.36407">
        <ele>85.76277</ele>
        <time>2021-07-11T08:58:37Z</time>
      </trkpt>
      <trkpt lat="38.0728" lon="-8.36568">
        <ele>81.57455</ele>
        <time>2021-07-11T08:58:48Z</time>
      </trkpt>
      <trkpt lat="38.07195" lon="-8.36739">
        <ele>83.96851</ele>
        <time>2021-07-11T08:58:59Z</time>
      </trkpt>
      <trkpt lat="38.07128" lon="-8.3688">
        <ele>83.19952</ele>
        <time>2021-07-11T08:59:10Z</time>
      </trkpt>
      <trkpt lat="38.07057" lon="-8.37021">
        <ele>82.64489</ele>
        <time>2021-07-11T08:59:21Z</time>
      </trkpt>
      <trkpt lat="38.06983" lon="-8.37168">
        <ele>78.64925</ele>
        <time>2021-07-11T08:59:32Z</time>
      </trkpt>
      <trkpt lat="38.0693" lon="-8.37283">
        <ele>81.80545</ele>
        <time>2021-07-11T08:59:43Z</time>
      </trkpt>
      <trkpt lat="38.06857" lon="-8.37418">
        <ele>82.3934</ele>
        <time>2021-07-11T08:59:54Z</time>
      </trkpt>
      <trkpt lat="38.06784" lon="-8.37562">
        <ele>78.92994</ele>
        <time>2021-07-11T09:00:05Z</time>
      </trkpt>
      <trkpt lat="38.067" lon="-8.37726">
        <ele>78.00962</ele>
        <time>2021-07-11T09:00:16Z</time>
      </trkpt>
      <trkpt lat="38.06617" lon="-8.37889">
        <ele>75.62832</ele>
        <time>2021-07-11T09:00:27Z</time>
      </trkpt>
      <trkpt lat="38.06548" lon="-8.38027">
        <ele>79.87579</ele>
        <time>2021-07-11T09:00:38Z</time>
      </trkpt>
      <trkpt lat="38.06457" lon="-8.38211">
        <ele>84.12076</ele>
        <time>2021-07-11T09:00:49Z</time>
      </trkpt>
      <trkpt lat="38.0644" lon="-8.38274">
        <ele>84.44281</ele>
        <time>2021-07-11T09:01:00Z</time>
      </trkpt>
      <trkpt lat="38.06442" lon="-8.38287">
        <ele>86.72461</ele>
        <time>2021-07-11T09:01:11Z</time>
      </trkpt>
      <trkpt lat="38.06442" lon="-8.38372">
        <ele>85.5574</ele>
        <time>2021-07-11T09:01:22Z</time>
      </trkpt>
      <trkpt lat="38.06491" lon="-8.38485">
        <ele>79.894</ele>
        <time>2021-07-11T09:01:33Z</time>
      </trkpt>
      <trkpt lat="38.06538" lon="-8.38616">
        <ele>78.02365</ele>
        <time>2021-07-11T09:01:44Z</time>
      </trkpt>
      <trkpt lat="38.06568" lon="-8.38687">
        <ele>75.54345</ele>
        <time>2021-07-11T09:01:55Z</time>
      </trkpt>
      <trkpt lat="38.06503" lon="-8.38742">
        <ele>75.02871</ele>
        <time>2021-07-11T09:02:06Z</time>
      </trkpt>
      <trkpt lat="38.06409" lon="-8.38872">
        <ele>74.27622</ele>
        <time>2021-07-11T09:02:17Z</time>
      </trkpt>
      <trkpt lat="38.0633" lon="-8.38955">
        <ele>70.15744</ele>
        <time>2021-07-11T09:02:28Z</time>
      </trkpt>
      <trkpt lat="38.06249" lon="-8.39014">
        <ele>67.05749</ele>
        <time>2021-07-11T09:02:39Z</time>
      </trkpt>
      <trkpt lat="38.06169" lon="-8.39083">
        <ele>63.45374</ele>
        <time>2021-07-11T09:02:50Z</time>
      </trkpt>
      <trkpt lat="38.06099" lon="-8.39186">
        <ele>66.0207</ele>
        <time>2021-07-11T09:03:01Z</time>
      </trkpt>
      <trkpt lat="38.06037" lon="-8.39239">
        <ele>64.39791</ele>
        <time>2021-07-11T09:03:12Z</time>
      </trkpt>
      <trkpt lat="38.06007" lon="-8.3932">
        <ele>55.67413</ele>
        <time>2021-07-11T09:03:23Z</time>
      </trkpt>
      <trkpt lat="38.05958" lon="-8.39391">
        <ele>58.54313</ele>
        <time>2021-07-11T09:03:34Z</time>
      </trkpt>
      <trkpt lat="38.05903" lon="-8.3946">
        <ele>59.43044</ele>
        <time>2021-07-11T09:03:45Z</time>
      </trkpt>
      <trkpt lat="38.05907" lon="-8.39583">
        <ele>54.16085</ele>
        <time>2021-07-11T09:03:56Z</time>
      </trkpt>
      <trkpt lat="38.05851" lon="-8.3968">
        <ele>49.69865</ele>
        <time>2021-07-11T09:04:07Z</time>
      </trkpt>
      <trkpt lat="38.05793" lon="-8.39723">
        <ele>46.96329</ele>
        <time>2021-07-11T09:04:18Z</time>
      </trkpt>
      <trkpt lat="38.05737" lon="-8.398">
        <ele>41.71892</ele>
        <time>2021-07-11T09:04:29Z</time>
      </trkpt>
      <trkpt lat="38.05674" lon="-8.39815">
        <ele>33.92772</ele>
        <time>2021-07-11T09:04:40Z</time>
      </trkpt>
      <trkpt lat="38.05696" lon="-8.39871">
        <ele>30.60025</ele>
        <time>2021-07-11T09:04:51Z</time>
      </trkpt>
      <trkpt lat="38.05773" lon="-8.39907">
        <ele>28.56198</ele>
        <time>2021-07-11T09:05:02Z</time>
      </trkpt>
      <trkpt lat="38.05837" lon="-8.39947">
        <ele>25.31558</ele>
        <time>2021-07-11T09:05:13Z</time>
      </trkpt>
      <trkpt lat="38.05855" lon="-8.39986">
        <ele>21.27425</ele>
        <time>2021-07-11T09:05:24Z</time>
      </trkpt>
      <trkpt lat="38.05856" lon="-8.39988">
        <ele>25.14112</ele>
        <time>2021-07-11T09:06:24Z</time>
      </trkpt>
      <trkpt lat="38.05855" lon="-8.39993">
        <ele>24.41272</ele>
        <time>2021-07-11T09:07:02Z</time>
      </trkpt>
      <trkpt lat="38.0585" lon="-8.40019">
        <ele>25.2018</ele>
        <time>2021-07-11T09:07:13Z</time>
      </trkpt>
      <trkpt lat="38.05836" lon="-8.40036">
        <ele>24.53748</ele>
        <time>2021-07-11T09:07:24Z</time>
      </trkpt>
      <trkpt lat="38.05833" lon="-8.40039">
        <ele>27.14215</ele>
        <time>2021-07-11T09:07:36Z</time>
      </trkpt>
      <trkpt lat="38.05829" lon="-8.40039">
        <ele>30.04077</ele>
        <time>2021-07-11T09:08:35Z</time>
      </trkpt>
      <trkpt lat="38.05782" lon="-8.40038">
        <ele>35.01311</ele>
        <time>2021-07-11T09:08:46Z</time>
      </trkpt>
      <trkpt lat="38.05737" lon="-8.40068">
        <ele>34.64038</ele>
        <time>2021-07-11T09:08:57Z</time>
      </trkpt>
      <trkpt lat="38.05701" lon="-8.40147">
        <ele>41.4191</ele>
        <time>2021-07-11T09:09:08Z</time>
      </trkpt>
      <trkpt lat="38.05614" lon="-8.40207">
        <ele>54.48719</ele>
        <time>2021-07-11T09:09:19Z</time>
      </trkpt>
      <trkpt lat="38.05527" lon="-8.40209">
        <ele>62.48139</ele>
        <time>2021-07-11T09:09:30Z</time>
      </trkpt>
      <trkpt lat="38.05447" lon="-8.40251">
        <ele>68.64081</ele>
        <time>2021-07-11T09:09:41Z</time>
      </trkpt>
      <trkpt lat="38.05373" lon="-8.40287">
        <ele>71.18455</ele>
        <time>2021-07-11T09:09:52Z</time>
      </trkpt>
      <trkpt lat="38.05312" lon="-8.40363">
        <ele>74.84579</ele>
        <time>2021-07-11T09:10:03Z</time>
      </trkpt>
      <trkpt lat="38.05215" lon="-8.40405">
        <ele>70.41244</ele>
        <time>2021-07-11T09:10:14Z</time>
      </trkpt>
      <trkpt lat="38.05116" lon="-8.40397">
        <ele>69.28148</ele>
        <time>2021-07-11T09:10:25Z</time>
      </trkpt>
      <trkpt lat="38.05087" lon="-8.4051">
        <ele>70.24613</ele>
        <time>2021-07-11T09:10:36Z</time>
      </trkpt>
      <trkpt lat="38.0506" lon="-8.40549">
        <ele>73.19759</ele>
        <time>2021-07-11T09:10:47Z</time>
      </trkpt>
      <trkpt lat="38.04999" lon="-8.40509">
        <ele>68.03254</ele>
        <time>2021-07-11T09:10:58Z</time>
      </trkpt>
      <trkpt lat="38.04951" lon="-8.40615">
        <ele>66.41276</ele>
        <time>2021-07-11T09:11:09Z</time>
      </trkpt>
      <trkpt lat="38.04895" lon="-8.40713">
        <ele>60.54292</ele>
        <time>2021-07-11T09:11:20Z</time>
      </trkpt>
      <trkpt lat="38.04872" lon="-8.40772">
        <ele>54.96492</ele>
        <time>2021-07-11T09:11:31Z</time>
      </trkpt>
      <trkpt lat="38.04859" lon="-8.40863">
        <ele>50.79385</ele>
        <time>2021-07-11T09:11:42Z</time>
      </trkpt>
      <trkpt lat="38.04803" lon="-8.40942">
        <ele>46.20235</ele>
        <time>2021-07-11T09:11:53Z</time>
      </trkpt>
      <trkpt lat="38.04737" lon="-8.40993">
        <ele>44.39626</ele>
        <time>2021-07-11T09:12:04Z</time>
      </trkpt>
      <trkpt lat="38.04768" lon="-8.41084">
        <ele>40.25768</ele>
        <time>2021-07-11T09:12:15Z</time>
      </trkpt>
      <trkpt lat="38.04845" lon="-8.41149">
        <ele>40.24033</ele>
        <time>2021-07-11T09:12:26Z</time>
      </trkpt>
      <trkpt lat="38.04892" lon="-8.41206">
        <ele>35.42579</ele>
        <time>2021-07-11T09:12:37Z</time>
      </trkpt>
      <trkpt lat="38.04895" lon="-8.41218">
        <ele>37.87145</ele>
        <time>2021-07-11T09:12:48Z</time>
      </trkpt>
      <trkpt lat="38.04894" lon="-8.41227">
        <ele>39.07135</ele>
        <time>2021-07-11T09:13:19Z</time>
      </trkpt>
      <trkpt lat="38.04896" lon="-8.41237">
        <ele>39.66545</ele>
        <time>2021-07-11T09:13:30Z</time>
      </trkpt>
      <trkpt lat="38.04895" lon="-8.41247">
        <ele>38.65595</ele>
        <time>2021-07-11T09:14:06Z</time>
      </trkpt>
      <trkpt lat="38.04877" lon="-8.41307">
        <ele>41.60258</ele>
        <time>2021-07-11T09:14:17Z</time>
      </trkpt>
      <trkpt lat="38.04873" lon="-8.41387">
        <ele>44.02246</ele>
        <time>2021-07-11T09:14:28Z</time>
      </trkpt>
      <trkpt lat="38.04821" lon="-8.41445">
        <ele>50.67766</ele>
        <time>2021-07-11T09:14:39Z</time>
      </trkpt>
      <trkpt lat="38.04796" lon="-8.41517">
        <ele>56.45896</ele>
        <time>2021-07-11T09:14:50Z</time>
      </trkpt>
      <trkpt lat="38.04754" lon="-8.41576">
        <ele>65.42965</ele>
        <time>2021-07-11T09:15:01Z</time>
      </trkpt>
      <trkpt lat="38.04709" lon="-8.4159">
        <ele>70.15077</ele>
        <time>2021-07-11T09:15:12Z</time>
      </trkpt>
      <trkpt lat="38.04682" lon="-8.41592">
        <ele>72.19541</ele>
        <time>2021-07-11T09:15:23Z</time>
      </trkpt>
      <trkpt lat="38.04625" lon="-8.41613">
        <ele>74.93009</ele>
        <time>2021-07-11T09:15:34Z</time>
      </trkpt>
      <trkpt lat="38.04528" lon="-8.41665">
        <ele>75.34631</ele>
        <time>2021-07-11T09:15:45Z</time>
      </trkpt>
      <trkpt lat="38.04459" lon="-8.41759">
        <ele>75.48673</ele>
        <time>2021-07-11T09:15:56Z</time>
      </trkpt>
      <trkpt lat="38.04398" lon="-8.41886">
        <ele>78.50246</ele>
        <time>2021-07-11T09:16:07Z</time>
      </trkpt>
      <trkpt lat="38.04323" lon="-8.42017">
        <ele>81.02404</ele>
        <time>2021-07-11T09:16:18Z</time>
      </trkpt>
      <trkpt lat="38.04256" lon="-8.42122">
        <ele>80.42228</ele>
        <time>2021-07-11T09:16:29Z</time>
      </trkpt>
      <trkpt lat="38.04245" lon="-8.4214">
        <ele>79.98516</ele>
        <time>2021-07-11T09:16:40Z</time>
      </trkpt>
      <trkpt lat="38.04241" lon="-8.42143">
        <ele>80.92064</ele>
        <time>2021-07-11T09:17:15Z</time>
      </trkpt>
      <trkpt lat="38.04239" lon="-8.42149">
        <ele>83.40709</ele>
        <time>2021-07-11T09:17:26Z</time>
      </trkpt>
      <trkpt lat="38.04236" lon="-8.42154">
        <ele>83.14415</ele>
        <time>2021-07-11T09:17:37Z</time>
      </trkpt>
      <trkpt lat="38.042" lon="-8.42211">
        <ele>81.21285</ele>
        <time>2021-07-11T09:17:48Z</time>
      </trkpt>
      <trkpt lat="38.04107" lon="-8.42337">
        <ele>87.18991</ele>
        <time>2021-07-11T09:17:59Z</time>
      </trkpt>
      <trkpt lat="38.04043" lon="-8.42464">
        <ele>83.86142</ele>
        <time>2021-07-11T09:18:10Z</time>
      </trkpt>
      <trkpt lat="38.0405" lon="-8.42365">
        <ele>80.32727</ele>
        <time>2021-07-11T09:18:21Z</time>
      </trkpt>
      <trkpt lat="38.03993" lon="-8.42279">
        <ele>77.92536</ele>
        <time>2021-07-11T09:18:32Z</time>
      </trkpt>
      <trkpt lat="38.03997" lon="-8.4228">
        <ele>79.19671</ele>
        <time>2021-07-11T09:18:59Z</time>
      </trkpt>
      <trkpt lat="38.03998" lon="-8.42275">
        <ele>77.22008</ele>
        <time>2021-07-11T09:19:21Z</time>
      </trkpt>
      <trkpt lat="38.03992" lon="-8.42264">
        <ele>77.09135</ele>
        <time>2021-07-11T09:19:32Z</time>
      </trkpt>
      <trkpt lat="38.03986" lon="-8.42257">
        <ele>77.97804</ele>
        <time>2021-07-11T09:19:43Z</time>
      </trkpt>
      <trkpt lat="38.03984" lon="-8.42251">
        <ele>78.5648</ele>
        <time>2021-07-11T09:19:54Z</time>
      </trkpt>
      <trkpt lat="38.03981" lon="-8.42252">
        <ele>79.63931</ele>
        <time>2021-07-11T09:20:54Z</time>
      </trkpt>
      <trkpt lat="38.03985" lon="-8.42254">
        <ele>79.26851</ele>
        <time>2021-07-11T09:21:05Z</time>
      </trkpt>
      <trkpt lat="38.0399" lon="-8.42259">
        <ele>78.53349</ele>
        <time>2021-07-11T09:21:16Z</time>
      </trkpt>
      <trkpt lat="38.03996" lon="-8.42273">
        <ele>78.3755</ele>
        <time>2021-07-11T09:21:27Z</time>
      </trkpt>
      <trkpt lat="38.03996" lon="-8.4228">
        <ele>78.08853</ele>
        <time>2021-07-11T09:21:38Z</time>
      </trkpt>
      <trkpt lat="38.03998" lon="-8.42284">
        <ele>79.07457</ele>
        <time>2021-07-11T09:22:34Z</time>
      </trkpt>
      <trkpt lat="38.03999" lon="-8.42278">
        <ele>79.20565</ele>
        <time>2021-07-11T09:22:55Z</time>
      </trkpt>
      <trkpt lat="38.0405" lon="-8.42341">
        <ele>80.21275</ele>
        <time>2021-07-11T09:23:06Z</time>
      </trkpt>
      <trkpt lat="38.04037" lon="-8.4246">
        <ele>84.5608</ele>
        <time>2021-07-11T09:23:17Z</time>
      </trkpt>
      <trkpt lat="38.03991" lon="-8.42575">
        <ele>81.02148</ele>
        <time>2021-07-11T09:23:28Z</time>
      </trkpt>
      <trkpt lat="38.03901" lon="-8.42686">
        <ele>82.90469</ele>
        <time>2021-07-11T09:23:39Z</time>
      </trkpt>
      <trkpt lat="38.03816" lon="-8.42761">
        <ele>82.57729</ele>
        <time>2021-07-11T09:23:50Z</time>
      </trkpt>
      <trkpt lat="38.03702" lon="-8.42794">
        <ele>83.82005</ele>
        <time>2021-07-11T09:24:01Z</time>
      </trkpt>
      <trkpt lat="38.03624" lon="-8.42878">
        <ele>84.49719</ele>
        <time>2021-07-11T09:24:12Z</time>
      </trkpt>
      <trkpt lat="38.03546" lon="-8.42969">
        <ele>84.04235</ele>
        <time>2021-07-11T09:24:23Z</time>
      </trkpt>
      <trkpt lat="38.0348" lon="-8.43076">
        <ele>83.5629</ele>
        <time>2021-07-11T09:24:34Z</time>
      </trkpt>
      <trkpt lat="38.03427" lon="-8.43194">
        <ele>83.80146</ele>
        <time>2021-07-11T09:24:45Z</time>
      </trkpt>
      <trkpt lat="38.03372" lon="-8.43334">
        <ele>83.1459</ele>
        <time>2021-07-11T09:24:56Z</time>
      </trkpt>
      <trkpt lat="38.03304" lon="-8.4343">
        <ele>83.48267</ele>
        <time>2021-07-11T09:25:07Z</time>
      </trkpt>
      <trkpt lat="38.03272" lon="-8.43569">
        <ele>79.45915</ele>
        <time>2021-07-11T09:25:18Z</time>
      </trkpt>
      <trkpt lat="38.03214" lon="-8.43682">
        <ele>79.61188</ele>
        <time>2021-07-11T09:25:29Z</time>
      </trkpt>
      <trkpt lat="38.0314" lon="-8.43804">
        <ele>80.48296</ele>
        <time>2021-07-11T09:25:40Z</time>
      </trkpt>
      <trkpt lat="38.03102" lon="-8.43954">
        <ele>83.364</ele>
        <time>2021-07-11T09:25:51Z</time>
      </trkpt>
      <trkpt lat="38.03062" lon="-8.44098">
        <ele>83.2878</ele>
        <time>2021-07-11T09:26:02Z</time>
      </trkpt>
      <trkpt lat="38.02987" lon="-8.44203">
        <ele>89.55504</ele>
        <time>2021-07-11T09:26:13Z</time>
      </trkpt>
      <trkpt lat="38.03029" lon="-8.44359">
        <ele>87.09182</ele>
        <time>2021-07-11T09:26:24Z</time>
      </trkpt>
      <trkpt lat="38.03066" lon="-8.44532">
        <ele>92.4881</ele>
        <time>2021-07-11T09:26:35Z</time>
      </trkpt>
      <trkpt lat="38.03092" lon="-8.44609">
        <ele>90.1277</ele>
        <time>2021-07-11T09:26:46Z</time>
      </trkpt>
      <trkpt lat="38.03095" lon="-8.4471">
        <ele>93.4323</ele>
        <time>2021-07-11T09:26:57Z</time>
      </trkpt>
      <trkpt lat="38.03063" lon="-8.44901">
        <ele>91.84132</ele>
        <time>2021-07-11T09:27:08Z</time>
      </trkpt>
      <trkpt lat="38.0302" lon="-8.45088">
        <ele>94.49726</ele>
        <time>2021-07-11T09:27:19Z</time>
      </trkpt>
      <trkpt lat="38.02958" lon="-8.45254">
        <ele>98.27215</ele>
        <time>2021-07-11T09:27:30Z</time>
      </trkpt>
      <trkpt lat="38.02922" lon="-8.4538">
        <ele>97.6795</ele>
        <time>2021-07-11T09:27:41Z</time>
      </trkpt>
      <trkpt lat="38.02906" lon="-8.45532">
        <ele>92.73075</ele>
        <time>2021-07-11T09:27:52Z</time>
      </trkpt>
      <trkpt lat="38.02892" lon="-8.45646">
        <ele>92.3282</ele>
        <time>2021-07-11T09:28:03Z</time>
      </trkpt>
      <trkpt lat="38.02859" lon="-8.45751">
        <ele>93.85176</ele>
        <time>2021-07-11T09:28:14Z</time>
      </trkpt>
      <trkpt lat="38.02809" lon="-8.45815">
        <ele>91.83165</ele>
        <time>2021-07-11T09:28:25Z</time>
      </trkpt>
      <trkpt lat="38.02764" lon="-8.45846">
        <ele>103.0349</ele>
        <time>2021-07-11T09:28:36Z</time>
      </trkpt>
      <trkpt lat="38.02743" lon="-8.45891">
        <ele>110.8206</ele>
        <time>2021-07-11T09:28:47Z</time>
      </trkpt>
      <trkpt lat="38.02709" lon="-8.45934">
        <ele>109.7504</ele>
        <time>2021-07-11T09:28:58Z</time>
      </trkpt>
      <trkpt lat="38.02698" lon="-8.45947">
        <ele>106.9841</ele>
        <time>2021-07-11T09:29:09Z</time>
      </trkpt>
      <trkpt lat="38.02693" lon="-8.45954">
        <ele>105.0037</ele>
        <time>2021-07-11T09:29:36Z</time>
      </trkpt>
      <trkpt lat="38.02629" lon="-8.46024">
        <ele>107.2207</ele>
        <time>2021-07-11T09:29:47Z</time>
      </trkpt>
      <trkpt lat="38.0256" lon="-8.46115">
        <ele>107.7869</ele>
        <time>2021-07-11T09:29:58Z</time>
      </trkpt>
      <trkpt lat="38.02491" lon="-8.46187">
        <ele>110.2234</ele>
        <time>2021-07-11T09:30:09Z</time>
      </trkpt>
      <trkpt lat="38.02471" lon="-8.46279">
        <ele>110.1565</ele>
        <time>2021-07-11T09:30:20Z</time>
      </trkpt>
      <trkpt lat="38.02479" lon="-8.46371">
        <ele>115.4392</ele>
        <time>2021-07-11T09:30:31Z</time>
      </trkpt>
      <trkpt lat="38.02504" lon="-8.46484">
        <ele>111.9197</ele>
        <time>2021-07-11T09:30:42Z</time>
      </trkpt>
      <trkpt lat="38.02525" lon="-8.46585">
        <ele>111.1648</ele>
        <time>2021-07-11T09:30:53Z</time>
      </trkpt>
      <trkpt lat="38.02539" lon="-8.46686">
        <ele>111.4555</ele>
        <time>2021-07-11T09:31:04Z</time>
      </trkpt>
      <trkpt lat="38.02512" lon="-8.46779">
        <ele>112.4597</ele>
        <time>2021-07-11T09:31:15Z</time>
      </trkpt>
      <trkpt lat="38.02471" lon="-8.46876">
        <ele>113.2106</ele>
        <time>2021-07-11T09:31:26Z</time>
      </trkpt>
      <trkpt lat="38.02442" lon="-8.46945">
        <ele>115.0826</ele>
        <time>2021-07-11T09:31:37Z</time>
      </trkpt>
      <trkpt lat="38.02411" lon="-8.47043">
        <ele>118.7171</ele>
        <time>2021-07-11T09:31:48Z</time>
      </trkpt>
      <trkpt lat="38.02405" lon="-8.47144">
        <ele>119.5549</ele>
        <time>2021-07-11T09:31:59Z</time>
      </trkpt>
      <trkpt lat="38.02412" lon="-8.47281">
        <ele>118.7989</ele>
        <time>2021-07-11T09:32:10Z</time>
      </trkpt>
      <trkpt lat="38.02418" lon="-8.47392">
        <ele>119.2392</ele>
        <time>2021-07-11T09:32:21Z</time>
      </trkpt>
      <trkpt lat="38.0242" lon="-8.47501">
        <ele>118.8152</ele>
        <time>2021-07-11T09:32:32Z</time>
      </trkpt>
      <trkpt lat="38.02432" lon="-8.47573">
        <ele>119.4173</ele>
        <time>2021-07-11T09:32:43Z</time>
      </trkpt>
      <trkpt lat="38.02444" lon="-8.47693">
        <ele>123.9981</ele>
        <time>2021-07-11T09:32:54Z</time>
      </trkpt>
      <trkpt lat="38.02473" lon="-8.47847">
        <ele>123.9704</ele>
        <time>2021-07-11T09:33:05Z</time>
      </trkpt>
      <trkpt lat="38.0252" lon="-8.47986">
        <ele>123.6061</ele>
        <time>2021-07-11T09:33:16Z</time>
      </trkpt>
      <trkpt lat="38.0251" lon="-8.48127">
        <ele>123.2982</ele>
        <time>2021-07-11T09:33:27Z</time>
      </trkpt>
      <trkpt lat="38.0248" lon="-8.48255">
        <ele>123.9135</ele>
        <time>2021-07-11T09:33:38Z</time>
      </trkpt>
      <trkpt lat="38.0243" lon="-8.48387">
        <ele>124.963</ele>
        <time>2021-07-11T09:33:49Z</time>
      </trkpt>
      <trkpt lat="38.02433" lon="-8.48406">
        <ele>125.0766</ele>
        <time>2021-07-11T09:34:00Z</time>
      </trkpt>
      <trkpt lat="38.02445" lon="-8.4844">
        <ele>123.6791</ele>
        <time>2021-07-11T09:34:11Z</time>
      </trkpt>
      <trkpt lat="38.02511" lon="-8.48625">
        <ele>126.548</ele>
        <time>2021-07-11T09:34:22Z</time>
      </trkpt>
      <trkpt lat="38.02587" lon="-8.48745">
        <ele>124.2361</ele>
        <time>2021-07-11T09:34:33Z</time>
      </trkpt>
      <trkpt lat="38.02658" lon="-8.48881">
        <ele>119.7248</ele>
        <time>2021-07-11T09:34:44Z</time>
      </trkpt>
      <trkpt lat="38.02724" lon="-8.48966">
        <ele>119.5642</ele>
        <time>2021-07-11T09:34:55Z</time>
      </trkpt>
      <trkpt lat="38.0281" lon="-8.49055">
        <ele>122.7636</ele>
        <time>2021-07-11T09:35:06Z</time>
      </trkpt>
      <trkpt lat="38.02896" lon="-8.49168">
        <ele>122.5799</ele>
        <time>2021-07-11T09:35:17Z</time>
      </trkpt>
      <trkpt lat="38.02967" lon="-8.49267">
        <ele>118.1085</ele>
        <time>2021-07-11T09:35:28Z</time>
      </trkpt>
      <trkpt lat="38.03078" lon="-8.49381">
        <ele>118.2187</ele>
        <time>2021-07-11T09:35:39Z</time>
      </trkpt>
      <trkpt lat="38.03157" lon="-8.49508">
        <ele>116.3774</ele>
        <time>2021-07-11T09:35:50Z</time>
      </trkpt>
      <trkpt lat="38.03227" lon="-8.4962">
        <ele>104.0225</ele>
        <time>2021-07-11T09:36:01Z</time>
      </trkpt>
      <trkpt lat="38.03252" lon="-8.49775">
        <ele>118.5355</ele>
        <time>2021-07-11T09:36:12Z</time>
      </trkpt>
      <trkpt lat="38.03305" lon="-8.4988">
        <ele>127.6923</ele>
        <time>2021-07-11T09:36:23Z</time>
      </trkpt>
      <trkpt lat="38.03363" lon="-8.50102">
        <ele>131.5343</ele>
        <time>2021-07-11T09:36:34Z</time>
      </trkpt>
      <trkpt lat="38.0343" lon="-8.50264">
        <ele>135.536</ele>
        <time>2021-07-11T09:36:45Z</time>
      </trkpt>
      <trkpt lat="38.03467" lon="-8.50406">
        <ele>137.519</ele>
        <time>2021-07-11T09:36:56Z</time>
      </trkpt>
      <trkpt lat="38.03444" lon="-8.50601">
        <ele>137.9734</ele>
        <time>2021-07-11T09:37:07Z</time>
      </trkpt>
      <trkpt lat="38.03409" lon="-8.50723">
        <ele>140.9545</ele>
        <time>2021-07-11T09:37:18Z</time>
      </trkpt>
      <trkpt lat="38.03288" lon="-8.50816">
        <ele>135.9363</ele>
        <time>2021-07-11T09:37:29Z</time>
      </trkpt>
      <trkpt lat="38.03164" lon="-8.50803">
        <ele>141.4497</ele>
        <time>2021-07-11T09:37:40Z</time>
      </trkpt>
      <trkpt lat="38.03073" lon="-8.50926">
        <ele>144.5445</ele>
        <time>2021-07-11T09:37:51Z</time>
      </trkpt>
      <trkpt lat="38.02991" lon="-8.51086">
        <ele>146.9896</ele>
        <time>2021-07-11T09:38:02Z</time>
      </trkpt>
      <trkpt lat="38.02895" lon="-8.51266">
        <ele>152.0316</ele>
        <time>2021-07-11T09:38:13Z</time>
      </trkpt>
      <trkpt lat="38.02876" lon="-8.51433">
        <ele>146.6029</ele>
        <time>2021-07-11T09:38:24Z</time>
      </trkpt>
      <trkpt lat="38.02856" lon="-8.51636">
        <ele>140.893</ele>
        <time>2021-07-11T09:38:35Z</time>
      </trkpt>
      <trkpt lat="38.02814" lon="-8.5185">
        <ele>137.9154</ele>
        <time>2021-07-11T09:38:46Z</time>
      </trkpt>
      <trkpt lat="38.02825" lon="-8.52006">
        <ele>137.8141</ele>
        <time>2021-07-11T09:38:57Z</time>
      </trkpt>
      <trkpt lat="38.02902" lon="-8.52209">
        <ele>148.0346</ele>
        <time>2021-07-11T09:39:08Z</time>
      </trkpt>
      <trkpt lat="38.02933" lon="-8.52348">
        <ele>151.4051</ele>
        <time>2021-07-11T09:39:19Z</time>
      </trkpt>
      <trkpt lat="38.03001" lon="-8.52343">
        <ele>158.4221</ele>
        <time>2021-07-11T09:39:30Z</time>
      </trkpt>
      <trkpt lat="38.0307" lon="-8.52379">
        <ele>159.9775</ele>
        <time>2021-07-11T09:39:41Z</time>
      </trkpt>
      <trkpt lat="38.03163" lon="-8.52458">
        <ele>161.3284</ele>
        <time>2021-07-11T09:39:52Z</time>
      </trkpt>
      <trkpt lat="38.03227" lon="-8.52545">
        <ele>164.7434</ele>
        <time>2021-07-11T09:40:03Z</time>
      </trkpt>
      <trkpt lat="38.03277" lon="-8.52647">
        <ele>166.0407</ele>
        <time>2021-07-11T09:40:14Z</time>
      </trkpt>
      <trkpt lat="38.03347" lon="-8.52726">
        <ele>168.6298</ele>
        <time>2021-07-11T09:40:25Z</time>
      </trkpt>
      <trkpt lat="38.03392" lon="-8.52809">
        <ele>169.2128</ele>
        <time>2021-07-11T09:40:36Z</time>
      </trkpt>
      <trkpt lat="38.03449" lon="-8.52881">
        <ele>168.8604</ele>
        <time>2021-07-11T09:40:47Z</time>
      </trkpt>
      <trkpt lat="38.03469" lon="-8.52904">
        <ele>169.6153</ele>
        <time>2021-07-11T09:40:58Z</time>
      </trkpt>
      <trkpt lat="38.03469" lon="-8.52908">
        <ele>170.6693</ele>
        <time>2021-07-11T09:41:43Z</time>
      </trkpt>
      <trkpt lat="38.03471" lon="-8.52912">
        <ele>170.6114</ele>
        <time>2021-07-11T09:42:00Z</time>
      </trkpt>
      <trkpt lat="38.03436" lon="-8.53011">
        <ele>170.5072</ele>
        <time>2021-07-11T09:42:11Z</time>
      </trkpt>
      <trkpt lat="38.03401" lon="-8.53103">
        <ele>172.8344</ele>
        <time>2021-07-11T09:42:22Z</time>
      </trkpt>
      <trkpt lat="38.03345" lon="-8.53198">
        <ele>168.0868</ele>
        <time>2021-07-11T09:42:33Z</time>
      </trkpt>
      <trkpt lat="38.03324" lon="-8.53298">
        <ele>169.4408</ele>
        <time>2021-07-11T09:42:44Z</time>
      </trkpt>
      <trkpt lat="38.03333" lon="-8.53419">
        <ele>175.8276</ele>
        <time>2021-07-11T09:42:55Z</time>
      </trkpt>
      <trkpt lat="38.03346" lon="-8.53529">
        <ele>175.9546</ele>
        <time>2021-07-11T09:43:06Z</time>
      </trkpt>
      <trkpt lat="38.03392" lon="-8.5362">
        <ele>173.7611</ele>
        <time>2021-07-11T09:43:17Z</time>
      </trkpt>
      <trkpt lat="38.0342" lon="-8.53731">
        <ele>174.5983</ele>
        <time>2021-07-11T09:43:28Z</time>
      </trkpt>
      <trkpt lat="38.03456" lon="-8.53825">
        <ele>175.8564</ele>
        <time>2021-07-11T09:43:39Z</time>
      </trkpt>
      <trkpt lat="38.03476" lon="-8.53924">
        <ele>178.4697</ele>
        <time>2021-07-11T09:43:50Z</time>
      </trkpt>
      <trkpt lat="38.03504" lon="-8.54008">
        <ele>179.4918</ele>
        <time>2021-07-11T09:44:01Z</time>
      </trkpt>
      <trkpt lat="38.03506" lon="-8.54013">
        <ele>178.21</ele>
        <time>2021-07-11T09:44:48Z</time>
      </trkpt>
      <trkpt lat="38.03507" lon="-8.54021">
        <ele>178.3496</ele>
        <time>2021-07-11T09:44:59Z</time>
      </trkpt>
      <trkpt lat="38.03508" lon="-8.54031">
        <ele>178.34</ele>
        <time>2021-07-11T09:45:38Z</time>
      </trkpt>
      <trkpt lat="38.0354" lon="-8.54145">
        <ele>178.949</ele>
        <time>2021-07-11T09:45:49Z</time>
      </trkpt>
      <trkpt lat="38.03575" lon="-8.54256">
        <ele>181.67</ele>
        <time>2021-07-11T09:46:00Z</time>
      </trkpt>
      <trkpt lat="38.03582" lon="-8.54368">
        <ele>185.6587</ele>
        <time>2021-07-11T09:46:11Z</time>
      </trkpt>
      <trkpt lat="38.03571" lon="-8.54499">
        <ele>196.1913</ele>
        <time>2021-07-11T09:46:22Z</time>
      </trkpt>
      <trkpt lat="38.03549" lon="-8.54633">
        <ele>195.6547</ele>
        <time>2021-07-11T09:46:33Z</time>
      </trkpt>
      <trkpt lat="38.03604" lon="-8.54752">
        <ele>196.4312</ele>
        <time>2021-07-11T09:46:44Z</time>
      </trkpt>
      <trkpt lat="38.03697" lon="-8.54878">
        <ele>199.5668</ele>
        <time>2021-07-11T09:46:55Z</time>
      </trkpt>
      <trkpt lat="38.0376" lon="-8.55003">
        <ele>200.8318</ele>
        <time>2021-07-11T09:47:06Z</time>
      </trkpt>
      <trkpt lat="38.03827" lon="-8.5515">
        <ele>196.5961</ele>
        <time>2021-07-11T09:47:17Z</time>
      </trkpt>
      <trkpt lat="38.03871" lon="-8.55303">
        <ele>193.0991</ele>
        <time>2021-07-11T09:47:28Z</time>
      </trkpt>
      <trkpt lat="38.03906" lon="-8.55444">
        <ele>187.0933</ele>
        <time>2021-07-11T09:47:39Z</time>
      </trkpt>
      <trkpt lat="38.03959" lon="-8.55572">
        <ele>193.7435</ele>
        <time>2021-07-11T09:47:50Z</time>
      </trkpt>
      <trkpt lat="38.03998" lon="-8.55723">
        <ele>185.6328</ele>
        <time>2021-07-11T09:48:01Z</time>
      </trkpt>
      <trkpt lat="38.04049" lon="-8.5582">
        <ele>187.918</ele>
        <time>2021-07-11T09:48:12Z</time>
      </trkpt>
      <trkpt lat="38.04232" lon="-8.55862">
        <ele>196.3753</ele>
        <time>2021-07-11T09:48:23Z</time>
      </trkpt>
      <trkpt lat="38.04443" lon="-8.559">
        <ele>195.3767</ele>
        <time>2021-07-11T09:48:34Z</time>
      </trkpt>
      <trkpt lat="38.04622" lon="-8.56025">
        <ele>182.8736</ele>
        <time>2021-07-11T09:48:45Z</time>
      </trkpt>
      <trkpt lat="38.04809" lon="-8.56088">
        <ele>170.2656</ele>
        <time>2021-07-11T09:48:56Z</time>
      </trkpt>
      <trkpt lat="38.05069" lon="-8.56247">
        <ele>195.226</ele>
        <time>2021-07-11T09:49:07Z</time>
      </trkpt>
      <trkpt lat="38.05276" lon="-8.56382">
        <ele>214.111</ele>
        <time>2021-07-11T09:49:18Z</time>
      </trkpt>
      <trkpt lat="38.05378" lon="-8.56518">
        <ele>213.1982</ele>
        <time>2021-07-11T09:49:29Z</time>
      </trkpt>
      <trkpt lat="38.05519" lon="-8.56568">
        <ele>212.641</ele>
        <time>2021-07-11T09:49:40Z</time>
      </trkpt>
      <trkpt lat="38.05626" lon="-8.56611">
        <ele>209.3913</ele>
        <time>2021-07-11T09:49:51Z</time>
      </trkpt>
      <trkpt lat="38.05753" lon="-8.566">
        <ele>205.791</ele>
        <time>2021-07-11T09:50:02Z</time>
      </trkpt>
      <trkpt lat="38.05778" lon="-8.56594">
        <ele>210.2331</ele>
        <time>2021-07-11T09:50:13Z</time>
      </trkpt>
      <trkpt lat="38.0578" lon="-8.56593">
        <ele>212.2302</ele>
        <time>2021-07-11T09:51:12Z</time>
      </trkpt>
      <trkpt lat="38.05785" lon="-8.56592">
        <ele>208.8629</ele>
        <time>2021-07-11T09:51:55Z</time>
      </trkpt>
      <trkpt lat="38.0597" lon="-8.56501">
        <ele>204.7934</ele>
        <time>2021-07-11T09:52:06Z</time>
      </trkpt>
      <trkpt lat="38.06229" lon="-8.56372">
        <ele>211.9984</ele>
        <time>2021-07-11T09:52:17Z</time>
      </trkpt>
      <trkpt lat="38.06326" lon="-8.56355">
        <ele>216.4428</ele>
        <time>2021-07-11T09:52:28Z</time>
      </trkpt>
      <trkpt lat="38.06331" lon="-8.56353">
        <ele>220.4268</ele>
        <time>2021-07-11T09:52:39Z</time>
      </trkpt>
      <trkpt lat="38.06469" lon="-8.56349">
        <ele>218.8636</ele>
        <time>2021-07-11T09:52:50Z</time>
      </trkpt>
      <trkpt lat="38.06557" lon="-8.56316">
        <ele>214.6437</ele>
        <time>2021-07-11T09:53:01Z</time>
      </trkpt>
      <trkpt lat="38.0656" lon="-8.56313">
        <ele>214.7065</ele>
        <time>2021-07-11T09:53:56Z</time>
      </trkpt>
      <trkpt lat="38.06588" lon="-8.56298">
        <ele>215.4648</ele>
        <time>2021-07-11T09:54:07Z</time>
      </trkpt>
      <trkpt lat="38.06715" lon="-8.56239">
        <ele>216.0945</ele>
        <time>2021-07-11T09:54:18Z</time>
      </trkpt>
      <trkpt lat="38.06829" lon="-8.56236">
        <ele>225.2233</ele>
        <time>2021-07-11T09:54:29Z</time>
      </trkpt>
      <trkpt lat="38.06856" lon="-8.56458">
        <ele>221.1651</ele>
        <time>2021-07-11T09:54:40Z</time>
      </trkpt>
      <trkpt lat="38.06908" lon="-8.56717">
        <ele>229.6226</ele>
        <time>2021-07-11T09:54:51Z</time>
      </trkpt>
      <trkpt lat="38.06919" lon="-8.56989">
        <ele>227.3372</ele>
        <time>2021-07-11T09:55:02Z</time>
      </trkpt>
      <trkpt lat="38.0702" lon="-8.57182">
        <ele>230.5637</ele>
        <time>2021-07-11T09:55:13Z</time>
      </trkpt>
      <trkpt lat="38.0721" lon="-8.57418">
        <ele>225.2951</ele>
        <time>2021-07-11T09:55:24Z</time>
      </trkpt>
      <trkpt lat="38.0733" lon="-8.57673">
        <ele>226.8153</ele>
        <time>2021-07-11T09:55:35Z</time>
      </trkpt>
      <trkpt lat="38.07396" lon="-8.57963">
        <ele>241.6798</ele>
        <time>2021-07-11T09:55:46Z</time>
      </trkpt>
      <trkpt lat="38.07488" lon="-8.58149">
        <ele>239.5244</ele>
        <time>2021-07-11T09:55:57Z</time>
      </trkpt>
      <trkpt lat="38.0769" lon="-8.58294">
        <ele>239.1641</ele>
        <time>2021-07-11T09:56:08Z</time>
      </trkpt>
      <trkpt lat="38.07865" lon="-8.584">
        <ele>236.3929</ele>
        <time>2021-07-11T09:56:19Z</time>
      </trkpt>
      <trkpt lat="38.07906" lon="-8.58578">
        <ele>245.8857</ele>
        <time>2021-07-11T09:56:30Z</time>
      </trkpt>
      <trkpt lat="38.07978" lon="-8.58797">
        <ele>247.631</ele>
        <time>2021-07-11T09:56:41Z</time>
      </trkpt>
      <trkpt lat="38.08038" lon="-8.59052">
        <ele>248.4096</ele>
        <time>2021-07-11T09:56:52Z</time>
      </trkpt>
      <trkpt lat="38.08159" lon="-8.59258">
        <ele>259.0935</ele>
        <time>2021-07-11T09:57:03Z</time>
      </trkpt>
      <trkpt lat="38.08279" lon="-8.5939">
        <ele>260.8026</ele>
        <time>2021-07-11T09:57:14Z</time>
      </trkpt>
      <trkpt lat="38.08343" lon="-8.59405">
        <ele>260.0945</ele>
        <time>2021-07-11T09:57:25Z</time>
      </trkpt>
      <trkpt lat="38.08479" lon="-8.59387">
        <ele>262.9819</ele>
        <time>2021-07-11T09:57:36Z</time>
      </trkpt>
      <trkpt lat="38.08604" lon="-8.59385">
        <ele>256.6007</ele>
        <time>2021-07-11T09:57:47Z</time>
      </trkpt>
      <trkpt lat="38.08714" lon="-8.59479">
        <ele>262.7234</ele>
        <time>2021-07-11T09:57:58Z</time>
      </trkpt>
      <trkpt lat="38.08768" lon="-8.59588">
        <ele>263.6543</ele>
        <time>2021-07-11T09:58:09Z</time>
      </trkpt>
      <trkpt lat="38.0887" lon="-8.59661">
        <ele>268.1108</ele>
        <time>2021-07-11T09:58:20Z</time>
      </trkpt>
      <trkpt lat="38.08996" lon="-8.59656">
        <ele>264.8535</ele>
        <time>2021-07-11T09:58:31Z</time>
      </trkpt>
      <trkpt lat="38.09114" lon="-8.59724">
        <ele>266.9476</ele>
        <time>2021-07-11T09:58:42Z</time>
      </trkpt>
      <trkpt lat="38.09241" lon="-8.59827">
        <ele>270.0914</ele>
        <time>2021-07-11T09:58:53Z</time>
      </trkpt>
      <trkpt lat="38.09305" lon="-8.59845">
        <ele>267.6647</ele>
        <time>2021-07-11T09:59:04Z</time>
      </trkpt>
      <trkpt lat="38.09313" lon="-8.59847">
        <ele>267.8214</ele>
        <time>2021-07-11T09:59:26Z</time>
      </trkpt>
      <trkpt lat="38.09466" lon="-8.59906">
        <ele>266.9834</ele>
        <time>2021-07-11T09:59:37Z</time>
      </trkpt>
      <trkpt lat="38.09607" lon="-8.59942">
        <ele>267.7078</ele>
        <time>2021-07-11T09:59:48Z</time>
      </trkpt>
      <trkpt lat="38.09754" lon="-8.60025">
        <ele>268.1577</ele>
        <time>2021-07-11T09:59:59Z</time>
      </trkpt>
      <trkpt lat="38.0991" lon="-8.60078">
        <ele>267.2721</ele>
        <time>2021-07-11T10:00:10Z</time>
      </trkpt>
      <trkpt lat="38.10056" lon="-8.60107">
        <ele>263.7918</ele>
        <time>2021-07-11T10:00:21Z</time>
      </trkpt>
      <trkpt lat="38.10222" lon="-8.60139">
        <ele>260.2738</ele>
        <time>2021-07-11T10:00:32Z</time>
      </trkpt>
      <trkpt lat="38.10384" lon="-8.60153">
        <ele>259.0625</ele>
        <time>2021-07-11T10:00:43Z</time>
      </trkpt>
      <trkpt lat="38.10559" lon="-8.60213">
        <ele>261.8011</ele>
        <time>2021-07-11T10:00:54Z</time>
      </trkpt>
      <trkpt lat="38.10687" lon="-8.60237">
        <ele>262.6587</ele>
        <time>2021-07-11T10:01:05Z</time>
      </trkpt>
      <trkpt lat="38.10731" lon="-8.6026">
        <ele>259.8695</ele>
        <time>2021-07-11T10:01:16Z</time>
      </trkpt>
      <trkpt lat="38.10752" lon="-8.60271">
        <ele>258.1757</ele>
        <time>2021-07-11T10:01:27Z</time>
      </trkpt>
      <trkpt lat="38.10837" lon="-8.60277">
        <ele>255.8897</ele>
        <time>2021-07-11T10:01:38Z</time>
      </trkpt>
      <trkpt lat="38.10955" lon="-8.60326">
        <ele>255.049</ele>
        <time>2021-07-11T10:01:49Z</time>
      </trkpt>
      <trkpt lat="38.11065" lon="-8.60409">
        <ele>253.4517</ele>
        <time>2021-07-11T10:02:00Z</time>
      </trkpt>
      <trkpt lat="38.11222" lon="-8.6046">
        <ele>253.3089</ele>
        <time>2021-07-11T10:02:11Z</time>
      </trkpt>
      <trkpt lat="38.11338" lon="-8.60452">
        <ele>256.0842</ele>
        <time>2021-07-11T10:02:22Z</time>
      </trkpt>
      <trkpt lat="38.11469" lon="-8.60441">
        <ele>250.7389</ele>
        <time>2021-07-11T10:02:33Z</time>
      </trkpt>
      <trkpt lat="38.11593" lon="-8.60388">
        <ele>248.4787</ele>
        <time>2021-07-11T10:02:44Z</time>
      </trkpt>
      <trkpt lat="38.11735" lon="-8.60345">
        <ele>250.1801</ele>
        <time>2021-07-11T10:02:55Z</time>
      </trkpt>
      <trkpt lat="38.11835" lon="-8.60408">
        <ele>246.1849</ele>
        <time>2021-07-11T10:03:06Z</time>
      </trkpt>
      <trkpt lat="38.11902" lon="-8.60453">
        <ele>242.4235</ele>
        <time>2021-07-11T10:03:17Z</time>
      </trkpt>
      <trkpt lat="38.1191" lon="-8.60454">
        <ele>248.0678</ele>
        <time>2021-07-11T10:03:34Z</time>
      </trkpt>
      <trkpt lat="38.12031" lon="-8.60446">
        <ele>246.8887</ele>
        <time>2021-07-11T10:03:45Z</time>
      </trkpt>
      <trkpt lat="38.12144" lon="-8.60425">
        <ele>247.7416</ele>
        <time>2021-07-11T10:03:56Z</time>
      </trkpt>
      <trkpt lat="38.12235" lon="-8.60333">
        <ele>250.7727</ele>
        <time>2021-07-11T10:04:07Z</time>
      </trkpt>
      <trkpt lat="38.12349" lon="-8.60193">
        <ele>241.6109</ele>
        <time>2021-07-11T10:04:18Z</time>
      </trkpt>
      <trkpt lat="38.12512" lon="-8.59991">
        <ele>230.9281</ele>
        <time>2021-07-11T10:04:29Z</time>
      </trkpt>
      <trkpt lat="38.12651" lon="-8.5983">
        <ele>229.7531</ele>
        <time>2021-07-11T10:04:40Z</time>
      </trkpt>
      <trkpt lat="38.12829" lon="-8.59875">
        <ele>224.0181</ele>
        <time>2021-07-11T10:04:51Z</time>
      </trkpt>
      <trkpt lat="38.12999" lon="-8.59866">
        <ele>215.5173</ele>
        <time>2021-07-11T10:05:02Z</time>
      </trkpt>
      <trkpt lat="38.13172" lon="-8.59829">
        <ele>205.5317</ele>
        <time>2021-07-11T10:05:13Z</time>
      </trkpt>
      <trkpt lat="38.13253" lon="-8.5967">
        <ele>195.2696</ele>
        <time>2021-07-11T10:05:24Z</time>
      </trkpt>
      <trkpt lat="38.13296" lon="-8.59416">
        <ele>187.1134</ele>
        <time>2021-07-11T10:05:35Z</time>
      </trkpt>
      <trkpt lat="38.13345" lon="-8.59186">
        <ele>184.3315</ele>
        <time>2021-07-11T10:05:46Z</time>
      </trkpt>
      <trkpt lat="38.13545" lon="-8.59179">
        <ele>188.9849</ele>
        <time>2021-07-11T10:05:57Z</time>
      </trkpt>
      <trkpt lat="38.13729" lon="-8.59193">
        <ele>182.3781</ele>
        <time>2021-07-11T10:06:08Z</time>
      </trkpt>
      <trkpt lat="38.13866" lon="-8.59077">
        <ele>181.4024</ele>
        <time>2021-07-11T10:06:19Z</time>
      </trkpt>
      <trkpt lat="38.14061" lon="-8.58997">
        <ele>178.3887</ele>
        <time>2021-07-11T10:06:30Z</time>
      </trkpt>
      <trkpt lat="38.14273" lon="-8.58972">
        <ele>171.2201</ele>
        <time>2021-07-11T10:06:41Z</time>
      </trkpt>
      <trkpt lat="38.14403" lon="-8.58871">
        <ele>164.0243</ele>
        <time>2021-07-11T10:06:52Z</time>
      </trkpt>
      <trkpt lat="38.14539" lon="-8.58765">
        <ele>156.5376</ele>
        <time>2021-07-11T10:07:03Z</time>
      </trkpt>
      <trkpt lat="38.14686" lon="-8.5863">
        <ele>146.3362</ele>
        <time>2021-07-11T10:07:14Z</time>
      </trkpt>
      <trkpt lat="38.14819" lon="-8.58483">
        <ele>140.1898</ele>
        <time>2021-07-11T10:07:25Z</time>
      </trkpt>
      <trkpt lat="38.14993" lon="-8.58412">
        <ele>136.0932</ele>
        <time>2021-07-11T10:07:36Z</time>
      </trkpt>
      <trkpt lat="38.15151" lon="-8.58292">
        <ele>128.2265</ele>
        <time>2021-07-11T10:07:47Z</time>
      </trkpt>
      <trkpt lat="38.15258" lon="-8.58112">
        <ele>125.1816</ele>
        <time>2021-07-11T10:07:58Z</time>
      </trkpt>
      <trkpt lat="38.15408" lon="-8.5795">
        <ele>125.8535</ele>
        <time>2021-07-11T10:08:09Z</time>
      </trkpt>
      <trkpt lat="38.15532" lon="-8.57831">
        <ele>121.2506</ele>
        <time>2021-07-11T10:08:20Z</time>
      </trkpt>
      <trkpt lat="38.15672" lon="-8.5762">
        <ele>114.8981</ele>
        <time>2021-07-11T10:08:31Z</time>
      </trkpt>
      <trkpt lat="38.15777" lon="-8.57413">
        <ele>108.5986</ele>
        <time>2021-07-11T10:08:42Z</time>
      </trkpt>
      <trkpt lat="38.15902" lon="-8.57259">
        <ele>112.4418</ele>
        <time>2021-07-11T10:08:53Z</time>
      </trkpt>
      <trkpt lat="38.16043" lon="-8.57058">
        <ele>118.5495</ele>
        <time>2021-07-11T10:09:04Z</time>
      </trkpt>
      <trkpt lat="38.16204" lon="-8.56887">
        <ele>116.5432</ele>
        <time>2021-07-11T10:09:15Z</time>
      </trkpt>
      <trkpt lat="38.16353" lon="-8.56856">
        <ele>108.29</ele>
        <time>2021-07-11T10:09:26Z</time>
      </trkpt>
      <trkpt lat="38.16522" lon="-8.56939">
        <ele>100.3655</ele>
        <time>2021-07-11T10:09:37Z</time>
      </trkpt>
      <trkpt lat="38.16699" lon="-8.56899">
        <ele>90.28779</ele>
        <time>2021-07-11T10:09:48Z</time>
      </trkpt>
      <trkpt lat="38.16886" lon="-8.56901">
        <ele>87.85924</ele>
        <time>2021-07-11T10:09:59Z</time>
      </trkpt>
      <trkpt lat="38.1705" lon="-8.56854">
        <ele>86.56382</ele>
        <time>2021-07-11T10:10:10Z</time>
      </trkpt>
      <trkpt lat="38.17101" lon="-8.568">
        <ele>88.29582</ele>
        <time>2021-07-11T10:10:21Z</time>
      </trkpt>
      <trkpt lat="38.17099" lon="-8.56795">
        <ele>89.11463</ele>
        <time>2021-07-11T10:10:32Z</time>
      </trkpt>
      <trkpt lat="38.17097" lon="-8.56789">
        <ele>89.1423</ele>
        <time>2021-07-11T10:11:16Z</time>
      </trkpt>
      <trkpt lat="38.17096" lon="-8.56755">
        <ele>89.11701</ele>
        <time>2021-07-11T10:11:27Z</time>
      </trkpt>
      <trkpt lat="38.17155" lon="-8.5689">
        <ele>89.87613</ele>
        <time>2021-07-11T10:11:38Z</time>
      </trkpt>
      <trkpt lat="38.17255" lon="-8.57123">
        <ele>90.55835</ele>
        <time>2021-07-11T10:11:49Z</time>
      </trkpt>
      <trkpt lat="38.1737" lon="-8.57346">
        <ele>92.26561</ele>
        <time>2021-07-11T10:12:00Z</time>
      </trkpt>
      <trkpt lat="38.17523" lon="-8.57495">
        <ele>99.6434</ele>
        <time>2021-07-11T10:12:11Z</time>
      </trkpt>
      <trkpt lat="38.17668" lon="-8.57566">
        <ele>107.8544</ele>
        <time>2021-07-11T10:12:22Z</time>
      </trkpt>
      <trkpt lat="38.17712" lon="-8.57525">
        <ele>104.7188</ele>
        <time>2021-07-11T10:12:33Z</time>
      </trkpt>
      <trkpt lat="38.17679" lon="-8.57373">
        <ele>99.55683</ele>
        <time>2021-07-11T10:12:44Z</time>
      </trkpt>
      <trkpt lat="38.1769" lon="-8.57173">
        <ele>99.9637</ele>
        <time>2021-07-11T10:12:55Z</time>
      </trkpt>
      <trkpt lat="38.17668" lon="-8.56973">
        <ele>105.6636</ele>
        <time>2021-07-11T10:13:06Z</time>
      </trkpt>
      <trkpt lat="38.17678" lon="-8.56849">
        <ele>103.8838</ele>
        <time>2021-07-11T10:13:17Z</time>
      </trkpt>
      <trkpt lat="38.17687" lon="-8.56728">
        <ele>96.6854</ele>
        <time>2021-07-11T10:13:28Z</time>
      </trkpt>
      <trkpt lat="38.17702" lon="-8.56697">
        <ele>103.5328</ele>
        <time>2021-07-11T10:13:39Z</time>
      </trkpt>
      <trkpt lat="38.17803" lon="-8.56711">
        <ele>103.0904</ele>
        <time>2021-07-11T10:13:50Z</time>
      </trkpt>
      <trkpt lat="38.17931" lon="-8.56705">
        <ele>103.8099</ele>
        <time>2021-07-11T10:14:01Z</time>
      </trkpt>
      <trkpt lat="38.17974" lon="-8.56703">
        <ele>99.86311</ele>
        <time>2021-07-11T10:14:12Z</time>
      </trkpt>
      <trkpt lat="38.18014" lon="-8.56702">
        <ele>99.5759</ele>
        <time>2021-07-11T10:14:23Z</time>
      </trkpt>
      <trkpt lat="38.18077" lon="-8.56706">
        <ele>102.0222</ele>
        <time>2021-07-11T10:14:34Z</time>
      </trkpt>
      <trkpt lat="38.18097" lon="-8.56726">
        <ele>99.99387</ele>
        <time>2021-07-11T10:14:45Z</time>
      </trkpt>
      <trkpt lat="38.18094" lon="-8.5673">
        <ele>97.33042</ele>
        <time>2021-07-11T10:14:56Z</time>
      </trkpt>
      <trkpt lat="38.1809" lon="-8.56729">
        <ele>86.57578</ele>
        <time>2021-07-11T10:15:54Z</time>
      </trkpt>
      <trkpt lat="38.18093" lon="-8.56729">
        <ele>89.05081</ele>
        <time>2021-07-11T10:16:54Z</time>
      </trkpt>
      <trkpt lat="38.18093" lon="-8.56728">
        <ele>89.69375</ele>
        <time>2021-07-11T10:17:54Z</time>
      </trkpt>
      <trkpt lat="38.18091" lon="-8.56729">
        <ele>91.41883</ele>
        <time>2021-07-11T10:18:54Z</time>
      </trkpt>
      <trkpt lat="38.18092" lon="-8.56726">
        <ele>92.16069</ele>
        <time>2021-07-11T10:19:54Z</time>
      </trkpt>
      <trkpt lat="38.18088" lon="-8.56725">
        <ele>96.18032</ele>
        <time>2021-07-11T10:20:32Z</time>
      </trkpt>
      <trkpt lat="38.18077" lon="-8.56713">
        <ele>96.80945</ele>
        <time>2021-07-11T10:20:43Z</time>
      </trkpt>
      <trkpt lat="38.18071" lon="-8.56709">
        <ele>94.87704</ele>
        <time>2021-07-11T10:20:55Z</time>
      </trkpt>
      <trkpt lat="38.18007" lon="-8.56708">
        <ele>96.587</ele>
        <time>2021-07-11T10:21:06Z</time>
      </trkpt>
      <trkpt lat="38.17973" lon="-8.56721">
        <ele>96.9984</ele>
        <time>2021-07-11T10:21:17Z</time>
      </trkpt>
      <trkpt lat="38.17974" lon="-8.56719">
        <ele>98.10888</ele>
        <time>2021-07-11T10:22:16Z</time>
      </trkpt>
      <trkpt lat="38.18433" lon="-8.56796">
        <ele>97.88173</ele>
        <time>2021-07-11T10:45:02Z</time>
      </trkpt>
      <trkpt lat="38.1851" lon="-8.56847">
        <ele>96.15477</ele>
        <time>2021-07-11T10:45:13Z</time>
      </trkpt>
      <trkpt lat="38.18512" lon="-8.56851">
        <ele>95.87651</ele>
        <time>2021-07-11T10:46:05Z</time>
      </trkpt>
      <trkpt lat="38.18513" lon="-8.56852">
        <ele>96.88827</ele>
        <time>2021-07-11T10:47:04Z</time>
      </trkpt>
      <trkpt lat="38.18509" lon="-8.56854">
        <ele>97.47255</ele>
        <time>2021-07-11T10:47:30Z</time>
      </trkpt>
      <trkpt lat="38.1851" lon="-8.56854">
        <ele>96.60165</ele>
        <time>2021-07-11T10:48:29Z</time>
      </trkpt>
      <trkpt lat="38.1851" lon="-8.56854">
        <ele>98.33067</ele>
        <time>2021-07-11T10:49:28Z</time>
      </trkpt>
      <trkpt lat="38.1851" lon="-8.56854">
        <ele>96.10031</ele>
        <time>2021-07-11T10:50:27Z</time>
      </trkpt>
      <trkpt lat="38.1851" lon="-8.56854">
        <ele>96.63359</ele>
        <time>2021-07-11T10:51:26Z</time>
      </trkpt>
      <trkpt lat="38.18504" lon="-8.56852">
        <ele>95.08621</ele>
        <time>2021-07-11T10:52:16Z</time>
      </trkpt>
      <trkpt lat="38.18471" lon="-8.56852">
        <ele>94.95298</ele>
        <time>2021-07-11T10:52:27Z</time>
      </trkpt>
      <trkpt lat="38.18438" lon="-8.56849">
        <ele>95.47521</ele>
        <time>2021-07-11T10:52:38Z</time>
      </trkpt>
      <trkpt lat="38.18419" lon="-8.56821">
        <ele>96.53976</ele>
        <time>2021-07-11T10:52:49Z</time>
      </trkpt>
      <trkpt lat="38.1844" lon="-8.56872">
        <ele>97.78042</ele>
        <time>2021-07-11T10:53:05Z</time>
      </trkpt>
      <trkpt lat="38.18441" lon="-8.56869">
        <ele>96.2319</ele>
        <time>2021-07-11T10:54:05Z</time>
      </trkpt>
      <trkpt lat="38.18447" lon="-8.56864">
        <ele>97.19469</ele>
        <time>2021-07-11T10:54:35Z</time>
      </trkpt>
      <trkpt lat="38.18444" lon="-8.5686">
        <ele>96.70408</ele>
        <time>2021-07-11T10:55:05Z</time>
      </trkpt>
      <trkpt lat="38.18447" lon="-8.56864">
        <ele>97.17445</ele>
        <time>2021-07-11T10:56:03Z</time>
      </trkpt>
      <trkpt lat="38.18445" lon="-8.56862">
        <ele>96.85446</ele>
        <time>2021-07-11T10:57:02Z</time>
      </trkpt>
      <trkpt lat="38.18447" lon="-8.56864">
        <ele>98.54682</ele>
        <time>2021-07-11T10:58:01Z</time>
      </trkpt>
      <trkpt lat="38.18447" lon="-8.56864">
        <ele>98.70567</ele>
        <time>2021-07-11T10:59:01Z</time>
      </trkpt>
      <trkpt lat="38.1844" lon="-8.56855">
        <ele>98.43631</ele>
        <time>2021-07-11T10:59:15Z</time>
      </trkpt>
      <trkpt lat="38.18416" lon="-8.5682">
        <ele>97.78847</ele>
        <time>2021-07-11T10:59:26Z</time>
      </trkpt>
      <trkpt lat="38.18392" lon="-8.56783">
        <ele>95.47048</ele>
        <time>2021-07-11T10:59:37Z</time>
      </trkpt>
      <trkpt lat="38.18491" lon="-8.56799">
        <ele>94.66734</ele>
        <time>2021-07-11T10:59:48Z</time>
      </trkpt>
      <trkpt lat="38.18621" lon="-8.56802">
        <ele>98.23607</ele>
        <time>2021-07-11T10:59:59Z</time>
      </trkpt>
      <trkpt lat="38.18732" lon="-8.56781">
        <ele>98.49283</ele>
        <time>2021-07-11T11:00:10Z</time>
      </trkpt>
      <trkpt lat="38.18914" lon="-8.56706">
        <ele>95.08101</ele>
        <time>2021-07-11T11:00:21Z</time>
      </trkpt>
      <trkpt lat="38.19114" lon="-8.56644">
        <ele>93.13369</ele>
        <time>2021-07-11T11:00:32Z</time>
      </trkpt>
      <trkpt lat="38.19329" lon="-8.56578">
        <ele>89.73204</ele>
        <time>2021-07-11T11:00:43Z</time>
      </trkpt>
      <trkpt lat="38.1954" lon="-8.56513">
        <ele>87.18289</ele>
        <time>2021-07-11T11:00:54Z</time>
      </trkpt>
      <trkpt lat="38.19756" lon="-8.56446">
        <ele>85.80351</ele>
        <time>2021-07-11T11:01:05Z</time>
      </trkpt>
      <trkpt lat="38.19967" lon="-8.56381">
        <ele>84.1657</ele>
        <time>2021-07-11T11:01:16Z</time>
      </trkpt>
      <trkpt lat="38.20175" lon="-8.56317">
        <ele>82.64668</ele>
        <time>2021-07-11T11:01:27Z</time>
      </trkpt>
      <trkpt lat="38.20361" lon="-8.56304">
        <ele>83.67097</ele>
        <time>2021-07-11T11:01:38Z</time>
      </trkpt>
      <trkpt lat="38.2049" lon="-8.56237">
        <ele>85.20659</ele>
        <time>2021-07-11T11:01:49Z</time>
      </trkpt>
      <trkpt lat="38.20614" lon="-8.56345">
        <ele>85.59488</ele>
        <time>2021-07-11T11:02:00Z</time>
      </trkpt>
      <trkpt lat="38.20535" lon="-8.56581">
        <ele>93.2042</ele>
        <time>2021-07-11T11:02:11Z</time>
      </trkpt>
      <trkpt lat="38.20528" lon="-8.56874">
        <ele>89.72741</ele>
        <time>2021-07-11T11:02:22Z</time>
      </trkpt>
      <trkpt lat="38.20535" lon="-8.57167">
        <ele>88.2067</ele>
        <time>2021-07-11T11:02:33Z</time>
      </trkpt>
      <trkpt lat="38.20544" lon="-8.57469">
        <ele>90.37087</ele>
        <time>2021-07-11T11:02:44Z</time>
      </trkpt>
      <trkpt lat="38.20555" lon="-8.57771">
        <ele>91.46903</ele>
        <time>2021-07-11T11:02:55Z</time>
      </trkpt>
      <trkpt lat="38.20547" lon="-8.58065">
        <ele>92.56023</ele>
        <time>2021-07-11T11:03:06Z</time>
      </trkpt>
      <trkpt lat="38.20488" lon="-8.5834">
        <ele>91.65483</ele>
        <time>2021-07-11T11:03:17Z</time>
      </trkpt>
      <trkpt lat="38.20377" lon="-8.58613">
        <ele>93.85216</ele>
        <time>2021-07-11T11:03:28Z</time>
      </trkpt>
      <trkpt lat="38.20258" lon="-8.58879">
        <ele>96.99303</ele>
        <time>2021-07-11T11:03:39Z</time>
      </trkpt>
      <trkpt lat="38.20135" lon="-8.59154">
        <ele>99.59857</ele>
        <time>2021-07-11T11:03:50Z</time>
      </trkpt>
      <trkpt lat="38.20016" lon="-8.59421">
        <ele>102.8411</ele>
        <time>2021-07-11T11:04:01Z</time>
      </trkpt>
      <trkpt lat="38.19908" lon="-8.5969">
        <ele>107.4207</ele>
        <time>2021-07-11T11:04:12Z</time>
      </trkpt>
      <trkpt lat="38.19833" lon="-8.59977">
        <ele>111.2507</ele>
        <time>2021-07-11T11:04:23Z</time>
      </trkpt>
      <trkpt lat="38.19798" lon="-8.60277">
        <ele>115.2286</ele>
        <time>2021-07-11T11:04:34Z</time>
      </trkpt>
      <trkpt lat="38.19798" lon="-8.6058">
        <ele>121.9622</ele>
        <time>2021-07-11T11:04:45Z</time>
      </trkpt>
      <trkpt lat="38.19804" lon="-8.60879">
        <ele>128.4628</ele>
        <time>2021-07-11T11:04:56Z</time>
      </trkpt>
      <trkpt lat="38.19809" lon="-8.61183">
        <ele>135.3984</ele>
        <time>2021-07-11T11:05:07Z</time>
      </trkpt>
      <trkpt lat="38.19796" lon="-8.61481">
        <ele>144.2037</ele>
        <time>2021-07-11T11:05:18Z</time>
      </trkpt>
      <trkpt lat="38.19746" lon="-8.61772">
        <ele>150.7139</ele>
        <time>2021-07-11T11:05:29Z</time>
      </trkpt>
      <trkpt lat="38.19655" lon="-8.62051">
        <ele>154.9134</ele>
        <time>2021-07-11T11:05:40Z</time>
      </trkpt>
      <trkpt lat="38.19528" lon="-8.62303">
        <ele>162.0441</ele>
        <time>2021-07-11T11:05:51Z</time>
      </trkpt>
      <trkpt lat="38.19364" lon="-8.62529">
        <ele>172.3738</ele>
        <time>2021-07-11T11:06:02Z</time>
      </trkpt>
      <trkpt lat="38.19171" lon="-8.62713">
        <ele>182.0031</ele>
        <time>2021-07-11T11:06:13Z</time>
      </trkpt>
      <trkpt lat="38.18958" lon="-8.62854">
        <ele>191.4962</ele>
        <time>2021-07-11T11:06:24Z</time>
      </trkpt>
      <trkpt lat="38.18728" lon="-8.62986">
        <ele>200.9674</ele>
        <time>2021-07-11T11:06:35Z</time>
      </trkpt>
      <trkpt lat="38.18521" lon="-8.63158">
        <ele>211.0009</ele>
        <time>2021-07-11T11:06:46Z</time>
      </trkpt>
      <trkpt lat="38.18361" lon="-8.63398">
        <ele>225.7409</ele>
        <time>2021-07-11T11:06:57Z</time>
      </trkpt>
      <trkpt lat="38.18216" lon="-8.63659">
        <ele>236.9205</ele>
        <time>2021-07-11T11:07:08Z</time>
      </trkpt>
      <trkpt lat="38.1807" lon="-8.6392">
        <ele>252.7059</ele>
        <time>2021-07-11T11:07:19Z</time>
      </trkpt>
      <trkpt lat="38.179" lon="-8.64163">
        <ele>264.4318</ele>
        <time>2021-07-11T11:07:30Z</time>
      </trkpt>
      <trkpt lat="38.17677" lon="-8.64306">
        <ele>278.3854</ele>
        <time>2021-07-11T11:07:41Z</time>
      </trkpt>
      <trkpt lat="38.17424" lon="-8.64344">
        <ele>291.6188</ele>
        <time>2021-07-11T11:07:52Z</time>
      </trkpt>
      <trkpt lat="38.17172" lon="-8.64387">
        <ele>303.5692</ele>
        <time>2021-07-11T11:08:03Z</time>
      </trkpt>
      <trkpt lat="38.16919" lon="-8.64482">
        <ele>307.5654</ele>
        <time>2021-07-11T11:08:14Z</time>
      </trkpt>
      <trkpt lat="38.16656" lon="-8.64585">
        <ele>303.7562</ele>
        <time>2021-07-11T11:08:25Z</time>
      </trkpt>
      <trkpt lat="38.16388" lon="-8.6469">
        <ele>294.6614</ele>
        <time>2021-07-11T11:08:36Z</time>
      </trkpt>
      <trkpt lat="38.16114" lon="-8.64796">
        <ele>285.4837</ele>
        <time>2021-07-11T11:08:47Z</time>
      </trkpt>
      <trkpt lat="38.15838" lon="-8.64884">
        <ele>278.3263</ele>
        <time>2021-07-11T11:08:58Z</time>
      </trkpt>
      <trkpt lat="38.15556" lon="-8.64938">
        <ele>278.8267</ele>
        <time>2021-07-11T11:09:09Z</time>
      </trkpt>
      <trkpt lat="38.15271" lon="-8.64958">
        <ele>281.5123</ele>
        <time>2021-07-11T11:09:20Z</time>
      </trkpt>
      <trkpt lat="38.14979" lon="-8.64969">
        <ele>280.3251</ele>
        <time>2021-07-11T11:09:31Z</time>
      </trkpt>
      <trkpt lat="38.14693" lon="-8.65013">
        <ele>279.1857</ele>
        <time>2021-07-11T11:09:42Z</time>
      </trkpt>
      <trkpt lat="38.14412" lon="-8.65092">
        <ele>277.2082</ele>
        <time>2021-07-11T11:09:53Z</time>
      </trkpt>
      <trkpt lat="38.14137" lon="-8.65179">
        <ele>277.744</ele>
        <time>2021-07-11T11:10:04Z</time>
      </trkpt>
      <trkpt lat="38.13858" lon="-8.65223">
        <ele>280.2473</ele>
        <time>2021-07-11T11:10:15Z</time>
      </trkpt>
      <trkpt lat="38.13571" lon="-8.65211">
        <ele>282.7016</ele>
        <time>2021-07-11T11:10:26Z</time>
      </trkpt>
      <trkpt lat="38.13289" lon="-8.65154">
        <ele>284.7393</ele>
        <time>2021-07-11T11:10:37Z</time>
      </trkpt>
      <trkpt lat="38.1301" lon="-8.65107">
        <ele>278.612</ele>
        <time>2021-07-11T11:10:48Z</time>
      </trkpt>
      <trkpt lat="38.12735" lon="-8.65118">
        <ele>274.9177</ele>
        <time>2021-07-11T11:10:59Z</time>
      </trkpt>
      <trkpt lat="38.12476" lon="-8.65153">
        <ele>273.0894</ele>
        <time>2021-07-11T11:11:10Z</time>
      </trkpt>
      <trkpt lat="38.1221" lon="-8.65175">
        <ele>274.458</ele>
        <time>2021-07-11T11:11:21Z</time>
      </trkpt>
      <trkpt lat="38.11937" lon="-8.6514">
        <ele>275.9894</ele>
        <time>2021-07-11T11:11:32Z</time>
      </trkpt>
      <trkpt lat="38.11683" lon="-8.65047">
        <ele>276.7123</ele>
        <time>2021-07-11T11:11:43Z</time>
      </trkpt>
      <trkpt lat="38.11437" lon="-8.64895">
        <ele>277.8646</ele>
        <time>2021-07-11T11:11:54Z</time>
      </trkpt>
      <trkpt lat="38.11209" lon="-8.64682">
        <ele>280.578</ele>
        <time>2021-07-11T11:12:05Z</time>
      </trkpt>
      <trkpt lat="38.11004" lon="-8.64438">
        <ele>279.8512</ele>
        <time>2021-07-11T11:12:16Z</time>
      </trkpt>
      <trkpt lat="38.10794" lon="-8.642">
        <ele>277.3957</ele>
        <time>2021-07-11T11:12:27Z</time>
      </trkpt>
      <trkpt lat="38.10554" lon="-8.64027">
        <ele>275.9905</ele>
        <time>2021-07-11T11:12:38Z</time>
      </trkpt>
      <trkpt lat="38.10293" lon="-8.63946">
        <ele>272.439</ele>
        <time>2021-07-11T11:12:49Z</time>
      </trkpt>
      <trkpt lat="38.10022" lon="-8.63933">
        <ele>272.3844</ele>
        <time>2021-07-11T11:13:00Z</time>
      </trkpt>
      <trkpt lat="38.09746" lon="-8.63926">
        <ele>275.101</ele>
        <time>2021-07-11T11:13:11Z</time>
      </trkpt>
      <trkpt lat="38.09471" lon="-8.63944">
        <ele>278.6631</ele>
        <time>2021-07-11T11:13:22Z</time>
      </trkpt>
      <trkpt lat="38.09208" lon="-8.64009">
        <ele>283.3288</ele>
        <time>2021-07-11T11:13:33Z</time>
      </trkpt>
      <trkpt lat="38.08953" lon="-8.641">
        <ele>284.4397</ele>
        <time>2021-07-11T11:13:44Z</time>
      </trkpt>
      <trkpt lat="38.0869" lon="-8.64195">
        <ele>281.7574</ele>
        <time>2021-07-11T11:13:55Z</time>
      </trkpt>
      <trkpt lat="38.08415" lon="-8.64244">
        <ele>273.5759</ele>
        <time>2021-07-11T11:14:06Z</time>
      </trkpt>
      <trkpt lat="38.08142" lon="-8.64245">
        <ele>261.6567</ele>
        <time>2021-07-11T11:14:17Z</time>
      </trkpt>
      <trkpt lat="38.07879" lon="-8.64293">
        <ele>255.4267</ele>
        <time>2021-07-11T11:14:28Z</time>
      </trkpt>
      <trkpt lat="38.07646" lon="-8.64431">
        <ele>258.4493</ele>
        <time>2021-07-11T11:14:39Z</time>
      </trkpt>
      <trkpt lat="38.07453" lon="-8.6465">
        <ele>263.6214</ele>
        <time>2021-07-11T11:14:50Z</time>
      </trkpt>
      <trkpt lat="38.07313" lon="-8.64941">
        <ele>268.0309</ele>
        <time>2021-07-11T11:15:01Z</time>
      </trkpt>
      <trkpt lat="38.0722" lon="-8.6527">
        <ele>271.9082</ele>
        <time>2021-07-11T11:15:12Z</time>
      </trkpt>
      <trkpt lat="38.07137" lon="-8.65609">
        <ele>265.5811</ele>
        <time>2021-07-11T11:15:23Z</time>
      </trkpt>
      <trkpt lat="38.07094" lon="-8.65962">
        <ele>257.8451</ele>
        <time>2021-07-11T11:15:34Z</time>
      </trkpt>
      <trkpt lat="38.07088" lon="-8.66314">
        <ele>250.9725</ele>
        <time>2021-07-11T11:15:45Z</time>
      </trkpt>
      <trkpt lat="38.07086" lon="-8.66662">
        <ele>243.8267</ele>
        <time>2021-07-11T11:15:56Z</time>
      </trkpt>
      <trkpt lat="38.0708" lon="-8.67006">
        <ele>241.4999</ele>
        <time>2021-07-11T11:16:07Z</time>
      </trkpt>
      <trkpt lat="38.07047" lon="-8.67358">
        <ele>238.8497</ele>
        <time>2021-07-11T11:16:18Z</time>
      </trkpt>
      <trkpt lat="38.0699" lon="-8.67701">
        <ele>235.573</ele>
        <time>2021-07-11T11:16:29Z</time>
      </trkpt>
      <trkpt lat="38.06929" lon="-8.68044">
        <ele>232.1851</ele>
        <time>2021-07-11T11:16:40Z</time>
      </trkpt>
      <trkpt lat="38.06867" lon="-8.68392">
        <ele>221.0848</ele>
        <time>2021-07-11T11:16:51Z</time>
      </trkpt>
      <trkpt lat="38.06806" lon="-8.68733">
        <ele>206.4843</ele>
        <time>2021-07-11T11:17:02Z</time>
      </trkpt>
      <trkpt lat="38.06744" lon="-8.69077">
        <ele>192.1599</ele>
        <time>2021-07-11T11:17:13Z</time>
      </trkpt>
      <trkpt lat="38.06672" lon="-8.69419">
        <ele>179.3651</ele>
        <time>2021-07-11T11:17:24Z</time>
      </trkpt>
      <trkpt lat="38.06574" lon="-8.69747">
        <ele>162.0171</ele>
        <time>2021-07-11T11:17:35Z</time>
      </trkpt>
      <trkpt lat="38.06456" lon="-8.70057">
        <ele>146.0083</ele>
        <time>2021-07-11T11:17:46Z</time>
      </trkpt>
      <trkpt lat="38.06334" lon="-8.70373">
        <ele>130.0344</ele>
        <time>2021-07-11T11:17:57Z</time>
      </trkpt>
      <trkpt lat="38.06221" lon="-8.70695">
        <ele>115.7941</ele>
        <time>2021-07-11T11:18:08Z</time>
      </trkpt>
      <trkpt lat="38.06142" lon="-8.71023">
        <ele>102.0917</ele>
        <time>2021-07-11T11:18:19Z</time>
      </trkpt>
      <trkpt lat="38.06043" lon="-8.7134">
        <ele>95.64161</ele>
        <time>2021-07-11T11:18:30Z</time>
      </trkpt>
      <trkpt lat="38.05867" lon="-8.71618">
        <ele>84.97515</ele>
        <time>2021-07-11T11:18:41Z</time>
      </trkpt>
      <trkpt lat="38.05675" lon="-8.7189">
        <ele>75.09036</ele>
        <time>2021-07-11T11:18:52Z</time>
      </trkpt>
      <trkpt lat="38.05562" lon="-8.72178">
        <ele>64.57534</ele>
        <time>2021-07-11T11:19:03Z</time>
      </trkpt>
      <trkpt lat="38.0546" lon="-8.72493">
        <ele>56.87601</ele>
        <time>2021-07-11T11:19:14Z</time>
      </trkpt>
      <trkpt lat="38.05328" lon="-8.72789">
        <ele>66.66656</ele>
        <time>2021-07-11T11:19:25Z</time>
      </trkpt>
      <trkpt lat="38.05138" lon="-8.73024">
        <ele>74.91727</ele>
        <time>2021-07-11T11:19:36Z</time>
      </trkpt>
      <trkpt lat="38.04924" lon="-8.73227">
        <ele>82.53213</ele>
        <time>2021-07-11T11:19:47Z</time>
      </trkpt>
      <trkpt lat="38.04699" lon="-8.73427">
        <ele>84.34171</ele>
        <time>2021-07-11T11:19:58Z</time>
      </trkpt>
      <trkpt lat="38.04507" lon="-8.73564">
        <ele>82.86267</ele>
        <time>2021-07-11T11:20:09Z</time>
      </trkpt>
      <trkpt lat="38.04542" lon="-8.7368">
        <ele>80.40153</ele>
        <time>2021-07-11T11:20:20Z</time>
      </trkpt>
      <trkpt lat="38.04711" lon="-8.73686">
        <ele>76.81528</ele>
        <time>2021-07-11T11:20:31Z</time>
      </trkpt>
      <trkpt lat="38.04761" lon="-8.73673">
        <ele>78.13013</ele>
        <time>2021-07-11T11:20:42Z</time>
      </trkpt>
      <trkpt lat="38.04871" lon="-8.73846">
        <ele>81.1115</ele>
        <time>2021-07-11T11:20:53Z</time>
      </trkpt>
      <trkpt lat="38.04937" lon="-8.74113">
        <ele>77.47049</ele>
        <time>2021-07-11T11:21:04Z</time>
      </trkpt>
      <trkpt lat="38.04948" lon="-8.74259">
        <ele>75.52163</ele>
        <time>2021-07-11T11:21:15Z</time>
      </trkpt>
      <trkpt lat="38.04899" lon="-8.74433">
        <ele>72.74674</ele>
        <time>2021-07-11T11:21:26Z</time>
      </trkpt>
      <trkpt lat="38.04981" lon="-8.74606">
        <ele>67.80912</ele>
        <time>2021-07-11T11:21:37Z</time>
      </trkpt>
      <trkpt lat="38.05074" lon="-8.74795">
        <ele>65.1732</ele>
        <time>2021-07-11T11:21:48Z</time>
      </trkpt>
      <trkpt lat="38.05167" lon="-8.74987">
        <ele>61.13841</ele>
        <time>2021-07-11T11:21:59Z</time>
      </trkpt>
      <trkpt lat="38.05298" lon="-8.75124">
        <ele>62.77858</ele>
        <time>2021-07-11T11:22:10Z</time>
      </trkpt>
      <trkpt lat="38.05314" lon="-8.75136">
        <ele>66.97278</ele>
        <time>2021-07-11T11:22:21Z</time>
      </trkpt>
      <trkpt lat="38.05399" lon="-8.75211">
        <ele>64.10141</ele>
        <time>2021-07-11T11:22:32Z</time>
      </trkpt>
      <trkpt lat="38.05531" lon="-8.75333">
        <ele>54.66163</ele>
        <time>2021-07-11T11:22:43Z</time>
      </trkpt>
      <trkpt lat="38.05698" lon="-8.75425">
        <ele>40.77804</ele>
        <time>2021-07-11T11:22:54Z</time>
      </trkpt>
      <trkpt lat="38.05845" lon="-8.75507">
        <ele>31.26076</ele>
        <time>2021-07-11T11:23:05Z</time>
      </trkpt>
      <trkpt lat="38.0599" lon="-8.75626">
        <ele>29.27855</ele>
        <time>2021-07-11T11:23:16Z</time>
      </trkpt>
      <trkpt lat="38.06139" lon="-8.75778">
        <ele>27.05397</ele>
        <time>2021-07-11T11:23:27Z</time>
      </trkpt>
      <trkpt lat="38.06258" lon="-8.75889">
        <ele>30.36713</ele>
        <time>2021-07-11T11:23:38Z</time>
      </trkpt>
      <trkpt lat="38.06318" lon="-8.76051">
        <ele>29.80149</ele>
        <time>2021-07-11T11:23:49Z</time>
      </trkpt>
      <trkpt lat="38.06363" lon="-8.76202">
        <ele>30.2377</ele>
        <time>2021-07-11T11:24:00Z</time>
      </trkpt>
      <trkpt lat="38.06408" lon="-8.76275">
        <ele>27.41951</ele>
        <time>2021-07-11T11:24:11Z</time>
      </trkpt>
      <trkpt lat="38.06486" lon="-8.76352">
        <ele>26.87008</ele>
        <time>2021-07-11T11:24:22Z</time>
      </trkpt>
      <trkpt lat="38.06554" lon="-8.76483">
        <ele>26.486</ele>
        <time>2021-07-11T11:24:33Z</time>
      </trkpt>
      <trkpt lat="38.06584" lon="-8.7665">
        <ele>23.05421</ele>
        <time>2021-07-11T11:24:44Z</time>
      </trkpt>
      <trkpt lat="38.06617" lon="-8.76826">
        <ele>19.02352</ele>
        <time>2021-07-11T11:24:55Z</time>
      </trkpt>
      <trkpt lat="38.06667" lon="-8.77003">
        <ele>15.59386</ele>
        <time>2021-07-11T11:25:06Z</time>
      </trkpt>
      <trkpt lat="38.06642" lon="-8.77206">
        <ele>13.31294</ele>
        <time>2021-07-11T11:25:17Z</time>
      </trkpt>
      <trkpt lat="38.06619" lon="-8.77408">
        <ele>13.75322</ele>
        <time>2021-07-11T11:25:28Z</time>
      </trkpt>
      <trkpt lat="38.06609" lon="-8.77538">
        <ele>19.86945</ele>
        <time>2021-07-11T11:25:39Z</time>
      </trkpt>
      <trkpt lat="38.06536" lon="-8.77541">
        <ele>20.15373</ele>
        <time>2021-07-11T11:25:50Z</time>
      </trkpt>
      <trkpt lat="38.0642" lon="-8.7754">
        <ele>21.45347</ele>
        <time>2021-07-11T11:26:01Z</time>
      </trkpt>
      <trkpt lat="38.06315" lon="-8.77579">
        <ele>23.73466</ele>
        <time>2021-07-11T11:26:12Z</time>
      </trkpt>
      <trkpt lat="38.06191" lon="-8.77678">
        <ele>25.85485</ele>
        <time>2021-07-11T11:26:23Z</time>
      </trkpt>
      <trkpt lat="38.0607" lon="-8.77775">
        <ele>33.1489</ele>
        <time>2021-07-11T11:26:34Z</time>
      </trkpt>
      <trkpt lat="38.05959" lon="-8.77863">
        <ele>35.12344</ele>
        <time>2021-07-11T11:26:45Z</time>
      </trkpt>
      <trkpt lat="38.05845" lon="-8.77952">
        <ele>38.7383</ele>
        <time>2021-07-11T11:26:56Z</time>
      </trkpt>
      <trkpt lat="38.05721" lon="-8.78019">
        <ele>38.46556</ele>
        <time>2021-07-11T11:27:07Z</time>
      </trkpt>
      <trkpt lat="38.05658" lon="-8.78">
        <ele>37.9794</ele>
        <time>2021-07-11T11:27:18Z</time>
      </trkpt>
      <trkpt lat="38.05592" lon="-8.77904">
        <ele>38.41382</ele>
        <time>2021-07-11T11:27:29Z</time>
      </trkpt>
      <trkpt lat="38.05591" lon="-8.77817">
        <ele>39.7124</ele>
        <time>2021-07-11T11:27:40Z</time>
      </trkpt>
      <trkpt lat="38.05598" lon="-8.77805">
        <ele>39.87688</ele>
        <time>2021-07-11T11:27:51Z</time>
      </trkpt>
      <trkpt lat="38.05598" lon="-8.77805">
        <ele>39.86397</ele>
        <time>2021-07-11T11:28:50Z</time>
      </trkpt>
      <trkpt lat="38.05599" lon="-8.77808">
        <ele>40.48248</ele>
        <time>2021-07-11T11:29:49Z</time>
      </trkpt>
      <trkpt lat="38.05601" lon="-8.77803">
        <ele>42.82749</ele>
        <time>2021-07-11T11:30:44Z</time>
      </trkpt>
      <trkpt lat="38.05611" lon="-8.7776">
        <ele>37.69163</ele>
        <time>2021-07-11T11:30:55Z</time>
      </trkpt>
      <trkpt lat="38.05623" lon="-8.77709">
        <ele>31.24334</ele>
        <time>2021-07-11T11:31:06Z</time>
      </trkpt>
      <trkpt lat="38.05637" lon="-8.77652">
        <ele>27.14254</ele>
        <time>2021-07-11T11:31:17Z</time>
      </trkpt>
      <trkpt lat="38.05653" lon="-8.77582">
        <ele>27.20874</ele>
        <time>2021-07-11T11:31:28Z</time>
      </trkpt>
      <trkpt lat="38.05663" lon="-8.77499">
        <ele>27.72726</ele>
        <time>2021-07-11T11:31:39Z</time>
      </trkpt>
      <trkpt lat="38.0567" lon="-8.77425">
        <ele>30.06112</ele>
        <time>2021-07-11T11:31:50Z</time>
      </trkpt>
      <trkpt lat="38.0569" lon="-8.77361">
        <ele>32.66734</ele>
        <time>2021-07-11T11:32:01Z</time>
      </trkpt>
      <trkpt lat="38.05739" lon="-8.77282">
        <ele>29.46805</ele>
        <time>2021-07-11T11:32:12Z</time>
      </trkpt>
      <trkpt lat="38.05786" lon="-8.77198">
        <ele>35.65407</ele>
        <time>2021-07-11T11:32:23Z</time>
      </trkpt>
      <trkpt lat="38.05811" lon="-8.77158">
        <ele>34.9974</ele>
        <time>2021-07-11T11:32:34Z</time>
      </trkpt>
      <trkpt lat="38.05825" lon="-8.77148">
        <ele>34.90742</ele>
        <time>2021-07-11T11:32:45Z</time>
      </trkpt>
      <trkpt lat="38.05824" lon="-8.77152">
        <ele>35.73069</ele>
        <time>2021-07-11T11:32:57Z</time>
      </trkpt>
      <trkpt lat="38.0578" lon="-8.7716">
        <ele>36.9714</ele>
        <time>2021-07-11T11:33:08Z</time>
      </trkpt>
      <trkpt lat="38.05763" lon="-8.7715">
        <ele>32.1969</ele>
        <time>2021-07-11T11:33:19Z</time>
      </trkpt>
      <trkpt lat="38.05761" lon="-8.77111">
        <ele>29.16491</ele>
        <time>2021-07-11T11:33:30Z</time>
      </trkpt>
      <trkpt lat="38.05764" lon="-8.77059">
        <ele>28.41752</ele>
        <time>2021-07-11T11:33:41Z</time>
      </trkpt>
      <trkpt lat="38.05758" lon="-8.77013">
        <ele>28.31237</ele>
        <time>2021-07-11T11:33:52Z</time>
      </trkpt>
      <trkpt lat="38.05754" lon="-8.76972">
        <ele>28.54407</ele>
        <time>2021-07-11T11:34:03Z</time>
      </trkpt>
      <trkpt lat="38.05754" lon="-8.76934">
        <ele>26.88723</ele>
        <time>2021-07-11T11:34:14Z</time>
      </trkpt>
      <trkpt lat="38.05752" lon="-8.76925">
        <ele>26.77657</ele>
        <time>2021-07-11T11:34:25Z</time>
      </trkpt>
      <trkpt lat="38.05753" lon="-8.76919">
        <ele>27.03687</ele>
        <time>2021-07-11T11:35:24Z</time>
      </trkpt>
      <trkpt lat="38.05749" lon="-8.76878">
        <ele>26.50333</ele>
        <time>2021-07-11T11:35:35Z</time>
      </trkpt>
      <trkpt lat="38.05718" lon="-8.76845">
        <ele>26.0602</ele>
        <time>2021-07-11T11:35:46Z</time>
      </trkpt>
      <trkpt lat="38.05682" lon="-8.76825">
        <ele>24.18004</ele>
        <time>2021-07-11T11:35:57Z</time>
      </trkpt>
      <trkpt lat="38.05635" lon="-8.76812">
        <ele>25.99788</ele>
        <time>2021-07-11T11:36:08Z</time>
      </trkpt>
      <trkpt lat="38.05604" lon="-8.76784">
        <ele>27.1688</ele>
        <time>2021-07-11T11:36:19Z</time>
      </trkpt>
      <trkpt lat="38.05602" lon="-8.76782">
        <ele>26.34597</ele>
        <time>2021-07-11T11:37:19Z</time>
      </trkpt>
      <trkpt lat="38.05597" lon="-8.76781">
        <ele>27.68595</ele>
        <time>2021-07-11T11:37:59Z</time>
      </trkpt>
      <trkpt lat="38.05501" lon="-8.76786">
        <ele>28.61473</ele>
        <time>2021-07-11T11:38:10Z</time>
      </trkpt>
      <trkpt lat="38.05424" lon="-8.76801">
        <ele>30.41937</ele>
        <time>2021-07-11T11:38:21Z</time>
      </trkpt>
      <trkpt lat="38.05314" lon="-8.76797">
        <ele>30.25258</ele>
        <time>2021-07-11T11:38:32Z</time>
      </trkpt>
      <trkpt lat="38.05271" lon="-8.76807">
        <ele>30.53366</ele>
        <time>2021-07-11T11:38:43Z</time>
      </trkpt>
      <trkpt lat="38.05244" lon="-8.76766">
        <ele>29.59354</ele>
        <time>2021-07-11T11:38:54Z</time>
      </trkpt>
      <trkpt lat="38.05229" lon="-8.76731">
        <ele>30.9485</ele>
        <time>2021-07-11T11:39:05Z</time>
      </trkpt>
      <trkpt lat="38.05217" lon="-8.76693">
        <ele>29.67523</ele>
        <time>2021-07-11T11:39:16Z</time>
      </trkpt>
      <trkpt lat="38.05196" lon="-8.76676">
        <ele>29.42008</ele>
        <time>2021-07-11T11:39:27Z</time>
      </trkpt>
      <trkpt lat="38.05173" lon="-8.76658">
        <ele>30.16217</ele>
        <time>2021-07-11T11:39:38Z</time>
      </trkpt>
      <trkpt lat="38.05159" lon="-8.76646">
        <ele>30.87809</ele>
        <time>2021-07-11T11:39:49Z</time>
      </trkpt>
      <trkpt lat="38.05158" lon="-8.76644">
        <ele>31.55085</ele>
        <time>2021-07-11T11:40:48Z</time>
      </trkpt>
      <trkpt lat="38.05131" lon="-8.76618">
        <ele>31.78982</ele>
        <time>2021-07-11T11:40:59Z</time>
      </trkpt>
      <trkpt lat="38.05106" lon="-8.76606">
        <ele>29.64817</ele>
        <time>2021-07-11T11:41:10Z</time>
      </trkpt>
      <trkpt lat="38.05073" lon="-8.76599">
        <ele>31.3813</ele>
        <time>2021-07-11T11:41:21Z</time>
      </trkpt>
      <trkpt lat="38.05069" lon="-8.76599">
        <ele>32.78538</ele>
        <time>2021-07-11T11:41:32Z</time>
      </trkpt>
      <trkpt lat="38.05065" lon="-8.76597">
        <ele>32.0269</ele>
        <time>2021-07-11T11:41:53Z</time>
      </trkpt>
      <trkpt lat="38.05028" lon="-8.76554">
        <ele>34.20949</ele>
        <time>2021-07-11T11:42:04Z</time>
      </trkpt>
      <trkpt lat="38.05004" lon="-8.76501">
        <ele>33.88897</ele>
        <time>2021-07-11T11:42:15Z</time>
      </trkpt>
      <trkpt lat="38.04986" lon="-8.76458">
        <ele>33.94862</ele>
        <time>2021-07-11T11:42:26Z</time>
      </trkpt>
      <trkpt lat="38.04987" lon="-8.76442">
        <ele>33.20264</ele>
        <time>2021-07-11T11:42:37Z</time>
      </trkpt>
      <trkpt lat="38.04988" lon="-8.76442">
        <ele>32.82265</ele>
        <time>2021-07-11T11:43:37Z</time>
      </trkpt>
      <trkpt lat="38.04988" lon="-8.76442">
        <ele>32.82265</ele>
        <time>2021-07-11T11:44:37Z</time>
      </trkpt>
      <trkpt lat="38.0499" lon="-8.76446">
        <ele>33.23643</ele>
        <time>2021-07-11T11:54:14Z</time>
      </trkpt>
      <trkpt lat="38.04986" lon="-8.76444">
        <ele>33.56777</ele>
        <time>2021-07-11T11:54:25Z</time>
      </trkpt>
      <trkpt lat="38.04986" lon="-8.76444">
        <ele>33.65867</ele>
        <time>2021-07-11T11:59:36Z</time>
      </trkpt>
      <trkpt lat="38.04992" lon="-8.76447">
        <ele>33.50212</ele>
        <time>2021-07-11T11:59:47Z</time>
      </trkpt>
      <trkpt lat="38.04988" lon="-8.76446">
        <ele>33.52086</ele>
        <time>2021-07-11T12:00:05Z</time>
      </trkpt>
      <trkpt lat="38.0499" lon="-8.76442">
        <ele>31.85683</ele>
        <time>2021-07-11T12:00:36Z</time>
      </trkpt>
      <trkpt lat="38.04986" lon="-8.76441">
        <ele>33.30614</ele>
        <time>2021-07-11T12:00:47Z</time>
      </trkpt>
      <trkpt lat="38.04985" lon="-8.76442">
        <ele>33.73619</ele>
        <time>2021-07-11T12:01:47Z</time>
      </trkpt>
      <trkpt lat="38.04989" lon="-8.76442">
        <ele>33.68062</ele>
        <time>2021-07-11T12:02:08Z</time>
      </trkpt>
      <trkpt lat="38.04988" lon="-8.76441">
        <ele>34.325</ele>
        <time>2021-07-11T12:03:06Z</time>
      </trkpt>
      <trkpt lat="38.04989" lon="-8.76439">
        <ele>33.92727</ele>
        <time>2021-07-11T12:04:05Z</time>
      </trkpt>
      <trkpt lat="38.04986" lon="-8.76442">
        <ele>34.22177</ele>
        <time>2021-07-11T12:04:49Z</time>
      </trkpt>
      <trkpt lat="38.04991" lon="-8.76441">
        <ele>34.00113</ele>
        <time>2021-07-11T12:05:04Z</time>
      </trkpt>
      <trkpt lat="38.04988" lon="-8.76445">
        <ele>34.34333</ele>
        <time>2021-07-11T12:05:54Z</time>
      </trkpt>
      <trkpt lat="38.04989" lon="-8.7644">
        <ele>34.11475</ele>
        <time>2021-07-11T12:06:31Z</time>
      </trkpt>
      <trkpt lat="38.04988" lon="-8.76445">
        <ele>34.10478</ele>
        <time>2021-07-11T12:07:02Z</time>
      </trkpt>
      <trkpt lat="38.04988" lon="-8.76442">
        <ele>34.52599</ele>
        <time>2021-07-11T12:08:00Z</time>
      </trkpt>
      <trkpt lat="38.04987" lon="-8.76447">
        <ele>32.99166</ele>
        <time>2021-07-11T12:08:30Z</time>
      </trkpt>
      <trkpt lat="38.04982" lon="-8.76446">
        <ele>34.43829</ele>
        <time>2021-07-11T12:08:55Z</time>
      </trkpt>
      <trkpt lat="38.04986" lon="-8.76447">
        <ele>34.17641</ele>
        <time>2021-07-11T12:09:07Z</time>
      </trkpt>
      <trkpt lat="38.04989" lon="-8.76443">
        <ele>33.48091</ele>
        <time>2021-07-11T12:09:35Z</time>
      </trkpt>
      <trkpt lat="38.0499" lon="-8.76441">
        <ele>34.58805</ele>
        <time>2021-07-11T12:10:34Z</time>
      </trkpt>
      <trkpt lat="38.04989" lon="-8.76442">
        <ele>34.46864</ele>
        <time>2021-07-11T12:11:33Z</time>
      </trkpt>
      <trkpt lat="38.04993" lon="-8.76439">
        <ele>34.75219</ele>
        <time>2021-07-11T12:11:56Z</time>
      </trkpt>
      <trkpt lat="38.05004" lon="-8.76415">
        <ele>31.20029</ele>
        <time>2021-07-11T12:12:07Z</time>
      </trkpt>
      <trkpt lat="38.05014" lon="-8.76389">
        <ele>32.09896</ele>
        <time>2021-07-11T12:12:18Z</time>
      </trkpt>
      <trkpt lat="38.05023" lon="-8.76363">
        <ele>31.32602</ele>
        <time>2021-07-11T12:12:29Z</time>
      </trkpt>
      <trkpt lat="38.05035" lon="-8.76332">
        <ele>29.5779</ele>
        <time>2021-07-11T12:12:40Z</time>
      </trkpt>
      <trkpt lat="38.05047" lon="-8.76305">
        <ele>30.75112</ele>
        <time>2021-07-11T12:12:51Z</time>
      </trkpt>
      <trkpt lat="38.05058" lon="-8.76283">
        <ele>30.14682</ele>
        <time>2021-07-11T12:13:02Z</time>
      </trkpt>
      <trkpt lat="38.05075" lon="-8.76265">
        <ele>29.12163</ele>
        <time>2021-07-11T12:13:13Z</time>
      </trkpt>
      <trkpt lat="38.05093" lon="-8.76243">
        <ele>29.83168</ele>
        <time>2021-07-11T12:13:24Z</time>
      </trkpt>
      <trkpt lat="38.0511" lon="-8.76213">
        <ele>31.69124</ele>
        <time>2021-07-11T12:13:35Z</time>
      </trkpt>
      <trkpt lat="38.0512" lon="-8.762">
        <ele>31.44277</ele>
        <time>2021-07-11T12:13:46Z</time>
      </trkpt>
      <trkpt lat="38.05123" lon="-8.76199">
        <ele>31.4616</ele>
        <time>2021-07-11T12:13:58Z</time>
      </trkpt>
      <trkpt lat="38.05128" lon="-8.76194">
        <ele>31.5646</ele>
        <time>2021-07-11T12:14:13Z</time>
      </trkpt>
      <trkpt lat="38.05137" lon="-8.76175">
        <ele>30.69703</ele>
        <time>2021-07-11T12:14:24Z</time>
      </trkpt>
      <trkpt lat="38.05146" lon="-8.76145">
        <ele>28.20836</ele>
        <time>2021-07-11T12:14:35Z</time>
      </trkpt>
      <trkpt lat="38.05151" lon="-8.76121">
        <ele>28.18247</ele>
        <time>2021-07-11T12:14:46Z</time>
      </trkpt>
      <trkpt lat="38.05157" lon="-8.76095">
        <ele>27.09025</ele>
        <time>2021-07-11T12:14:57Z</time>
      </trkpt>
      <trkpt lat="38.0516" lon="-8.76088">
        <ele>26.56592</ele>
        <time>2021-07-11T12:15:08Z</time>
      </trkpt>
      <trkpt lat="38.05171" lon="-8.7607">
        <ele>26.5512</ele>
        <time>2021-07-11T12:15:19Z</time>
      </trkpt>
      <trkpt lat="38.05167" lon="-8.7607">
        <ele>26.64881</ele>
        <time>2021-07-11T12:16:33Z</time>
      </trkpt>
      <trkpt lat="38.05164" lon="-8.76074">
        <ele>26.7583</ele>
        <time>2021-07-11T12:16:53Z</time>
      </trkpt>
      <trkpt lat="38.05161" lon="-8.76077">
        <ele>26.70433</ele>
        <time>2021-07-11T12:17:12Z</time>
      </trkpt>
      <trkpt lat="38.05161" lon="-8.76071">
        <ele>26.64282</ele>
        <time>2021-07-11T12:17:24Z</time>
      </trkpt>
      <trkpt lat="38.05166" lon="-8.7607">
        <ele>27.34984</ele>
        <time>2021-07-11T12:17:35Z</time>
      </trkpt>
      <trkpt lat="38.05164" lon="-8.76069">
        <ele>27.16934</ele>
        <time>2021-07-11T12:18:33Z</time>
      </trkpt>
      <trkpt lat="38.05167" lon="-8.76073">
        <ele>27.0266</ele>
        <time>2021-07-11T12:18:48Z</time>
      </trkpt>
      <trkpt lat="38.05165" lon="-8.76068">
        <ele>26.79241</ele>
        <time>2021-07-11T12:19:14Z</time>
      </trkpt>
      <trkpt lat="38.05166" lon="-8.76069">
        <ele>26.00364</ele>
        <time>2021-07-11T12:20:13Z</time>
      </trkpt>
      <trkpt lat="38.05165" lon="-8.76068">
        <ele>26.60689</ele>
        <time>2021-07-11T12:21:12Z</time>
      </trkpt>
      <trkpt lat="38.05168" lon="-8.76066">
        <ele>26.15955</ele>
        <time>2021-07-11T12:21:46Z</time>
      </trkpt>
      <trkpt lat="38.05165" lon="-8.76067">
        <ele>26.79009</ele>
        <time>2021-07-11T12:22:28Z</time>
      </trkpt>
      <trkpt lat="38.05167" lon="-8.76068">
        <ele>26.50558</ele>
        <time>2021-07-11T12:23:27Z</time>
      </trkpt>
      <trkpt lat="38.05167" lon="-8.76069">
        <ele>26.97348</ele>
        <time>2021-07-11T12:24:25Z</time>
      </trkpt>
      <trkpt lat="38.05169" lon="-8.76072">
        <ele>26.34289</ele>
        <time>2021-07-11T12:25:24Z</time>
      </trkpt>
      <trkpt lat="38.05165" lon="-8.76073">
        <ele>26.42578</ele>
        <time>2021-07-11T12:25:53Z</time>
      </trkpt>
      <trkpt lat="38.05167" lon="-8.76071">
        <ele>26.63364</ele>
        <time>2021-07-11T12:26:52Z</time>
      </trkpt>
      <trkpt lat="38.05166" lon="-8.76071">
        <ele>26.92081</ele>
        <time>2021-07-11T12:27:51Z</time>
      </trkpt>
      <trkpt lat="38.05165" lon="-8.76071">
        <ele>26.98772</ele>
        <time>2021-07-11T12:28:51Z</time>
      </trkpt>
      <trkpt lat="38.05166" lon="-8.76071">
        <ele>27.5187</ele>
        <time>2021-07-11T12:29:50Z</time>
      </trkpt>
      <trkpt lat="38.05166" lon="-8.7607">
        <ele>26.80638</ele>
        <time>2021-07-11T12:30:49Z</time>
      </trkpt>
      <trkpt lat="38.05164" lon="-8.76066">
        <ele>26.55478</ele>
        <time>2021-07-11T12:31:28Z</time>
      </trkpt>
      <trkpt lat="38.05167" lon="-8.76068">
        <ele>24.88422</ele>
        <time>2021-07-11T12:31:48Z</time>
      </trkpt>
      <trkpt lat="38.05168" lon="-8.76069">
        <ele>26.88106</ele>
        <time>2021-07-11T12:32:48Z</time>
      </trkpt>
      <trkpt lat="38.05167" lon="-8.76072">
        <ele>26.24989</ele>
        <time>2021-07-11T12:33:48Z</time>
      </trkpt>
      <trkpt lat="38.05168" lon="-8.76067">
        <ele>26.21306</ele>
        <time>2021-07-11T12:34:28Z</time>
      </trkpt>
      <trkpt lat="38.05167" lon="-8.76072">
        <ele>26.76754</ele>
        <time>2021-07-11T12:35:28Z</time>
      </trkpt>
      <trkpt lat="38.0517" lon="-8.76071">
        <ele>26.52512</ele>
        <time>2021-07-11T12:36:12Z</time>
      </trkpt>
      <trkpt lat="38.05166" lon="-8.76071">
        <ele>27.05516</ele>
        <time>2021-07-11T12:37:03Z</time>
      </trkpt>
      <trkpt lat="38.05167" lon="-8.7607">
        <ele>26.64127</ele>
        <time>2021-07-11T12:38:02Z</time>
      </trkpt>
      <trkpt lat="38.05166" lon="-8.76067">
        <ele>26.38437</ele>
        <time>2021-07-11T12:39:01Z</time>
      </trkpt>
      <trkpt lat="38.05168" lon="-8.76068">
        <ele>26.2014</ele>
        <time>2021-07-11T12:40:01Z</time>
      </trkpt>
      <trkpt lat="38.05166" lon="-8.76067">
        <ele>26.18808</ele>
        <time>2021-07-11T12:41:00Z</time>
      </trkpt>
      <trkpt lat="38.0517" lon="-8.76068">
        <ele>26.90635</ele>
        <time>2021-07-11T12:41:32Z</time>
      </trkpt>
      <trkpt lat="38.05169" lon="-8.76063">
        <ele>26.56534</ele>
        <time>2021-07-11T12:41:57Z</time>
      </trkpt>
      <trkpt lat="38.05168" lon="-8.76064">
        <ele>26.43073</ele>
        <time>2021-07-11T12:42:56Z</time>
      </trkpt>
      <trkpt lat="38.05166" lon="-8.76068">
        <ele>26.61435</ele>
        <time>2021-07-11T12:43:35Z</time>
      </trkpt>
      <trkpt lat="38.05166" lon="-8.76062">
        <ele>26.74914</ele>
        <time>2021-07-11T12:44:10Z</time>
      </trkpt>
      <trkpt lat="38.05168" lon="-8.76063">
        <ele>25.72955</ele>
        <time>2021-07-11T12:45:10Z</time>
      </trkpt>
      <trkpt lat="38.05168" lon="-8.76063">
        <ele>25.72955</ele>
        <time>2021-07-11T12:46:10Z</time>
      </trkpt>
      <trkpt lat="38.05168" lon="-8.76063">
        <ele>25.72955</ele>
        <time>2021-07-11T12:47:10Z</time>
      </trkpt>
      <trkpt lat="38.05168" lon="-8.76063">
        <ele>25.72955</ele>
        <time>2021-07-11T12:48:10Z</time>
      </trkpt>
      <trkpt lat="38.05168" lon="-8.76063">
        <ele>25.72955</ele>
        <time>2021-07-11T12:49:09Z</time>
      </trkpt>
      <trkpt lat="38.05165" lon="-8.76066">
        <ele>26.08739</ele>
        <time>2021-07-11T12:50:06Z</time>
      </trkpt>
      <trkpt lat="38.05165" lon="-8.76067">
        <ele>25.95004</ele>
        <time>2021-07-11T12:51:05Z</time>
      </trkpt>
      <trkpt lat="38.05165" lon="-8.76068">
        <ele>26.48107</ele>
        <time>2021-07-11T12:52:04Z</time>
      </trkpt>
      <trkpt lat="38.05166" lon="-8.76067">
        <ele>26.50117</ele>
        <time>2021-07-11T12:53:03Z</time>
      </trkpt>
      <trkpt lat="38.05166" lon="-8.76068">
        <ele>26.07096</ele>
        <time>2021-07-11T12:54:02Z</time>
      </trkpt>
      <trkpt lat="38.05164" lon="-8.76069">
        <ele>25.76768</ele>
        <time>2021-07-11T12:55:01Z</time>
      </trkpt>
      <trkpt lat="38.05165" lon="-8.76068">
        <ele>26.71255</ele>
        <time>2021-07-11T12:56:00Z</time>
      </trkpt>
      <trkpt lat="38.05166" lon="-8.76068">
        <ele>26.87279</ele>
        <time>2021-07-11T12:57:00Z</time>
      </trkpt>
      <trkpt lat="38.05167" lon="-8.76066">
        <ele>26.74109</ele>
        <time>2021-07-11T12:57:59Z</time>
      </trkpt>
      <trkpt lat="38.05167" lon="-8.76066">
        <ele>26.74109</ele>
        <time>2021-07-11T12:58:59Z</time>
      </trkpt>
      <trkpt lat="38.05167" lon="-8.76066">
        <ele>26.74109</ele>
        <time>2021-07-11T12:59:58Z</time>
      </trkpt>
      <trkpt lat="38.05167" lon="-8.76066">
        <ele>26.74109</ele>
        <time>2021-07-11T13:00:57Z</time>
      </trkpt>
      <trkpt lat="38.05171" lon="-8.76066">
        <ele>26.46657</ele>
        <time>2021-07-11T13:01:37Z</time>
      </trkpt>
      <trkpt lat="38.0517" lon="-8.76065">
        <ele>26.48859</ele>
        <time>2021-07-11T13:02:36Z</time>
      </trkpt>
      <trkpt lat="38.0517" lon="-8.76065">
        <ele>26.48859</ele>
        <time>2021-07-11T13:03:35Z</time>
      </trkpt>
      <trkpt lat="38.0517" lon="-8.76065">
        <ele>26.48859</ele>
        <time>2021-07-11T13:04:34Z</time>
      </trkpt>
      <trkpt lat="38.0517" lon="-8.76065">
        <ele>26.48859</ele>
        <time>2021-07-11T13:05:33Z</time>
      </trkpt>
      <trkpt lat="38.0517" lon="-8.76065">
        <ele>26.48859</ele>
        <time>2021-07-11T13:06:32Z</time>
      </trkpt>
      <trkpt lat="38.0517" lon="-8.76065">
        <ele>26.48859</ele>
        <time>2021-07-11T13:07:31Z</time>
      </trkpt>
      <trkpt lat="38.0517" lon="-8.76065">
        <ele>26.48859</ele>
        <time>2021-07-11T13:08:30Z</time>
      </trkpt>
      <trkpt lat="38.0517" lon="-8.76065">
        <ele>26.48859</ele>
        <time>2021-07-11T13:09:30Z</time>
      </trkpt>
      <trkpt lat="38.05167" lon="-8.76067">
        <ele>26.7781</ele>
        <time>2021-07-11T13:10:29Z</time>
      </trkpt>
      <trkpt lat="38.05167" lon="-8.76067">
        <ele>26.7781</ele>
        <time>2021-07-11T13:11:28Z</time>
      </trkpt>
      <trkpt lat="38.05167" lon="-8.76068">
        <ele>27.28176</ele>
        <time>2021-07-11T13:12:27Z</time>
      </trkpt>
      <trkpt lat="38.05167" lon="-8.76068">
        <ele>27.28176</ele>
        <time>2021-07-11T13:13:26Z</time>
      </trkpt>
      <trkpt lat="38.0517" lon="-8.76067">
        <ele>26.06676</ele>
        <time>2021-07-11T13:13:57Z</time>
      </trkpt>
      <trkpt lat="38.05174" lon="-8.76068">
        <ele>26.24804</ele>
        <time>2021-07-11T13:14:08Z</time>
      </trkpt>
      <trkpt lat="38.05172" lon="-8.7607">
        <ele>26.42363</ele>
        <time>2021-07-11T13:15:07Z</time>
      </trkpt>
      <trkpt lat="38.05172" lon="-8.7607">
        <ele>26.42363</ele>
        <time>2021-07-11T13:16:06Z</time>
      </trkpt>
      <trkpt lat="38.05171" lon="-8.7607">
        <ele>26.48987</ele>
        <time>2021-07-11T13:17:05Z</time>
      </trkpt>
      <trkpt lat="38.05177" lon="-8.76067">
        <ele>26.92898</ele>
        <time>2021-07-11T13:17:16Z</time>
      </trkpt>
      <trkpt lat="38.05225" lon="-8.75948">
        <ele>22.81108</ele>
        <time>2021-07-11T13:17:27Z</time>
      </trkpt>
      <trkpt lat="38.0526" lon="-8.75785">
        <ele>29.01986</ele>
        <time>2021-07-11T13:17:38Z</time>
      </trkpt>
      <trkpt lat="38.05287" lon="-8.75607">
        <ele>36.43353</ele>
        <time>2021-07-11T13:17:49Z</time>
      </trkpt>
      <trkpt lat="38.05307" lon="-8.75476">
        <ele>45.19451</ele>
        <time>2021-07-11T13:18:00Z</time>
      </trkpt>
      <trkpt lat="38.05311" lon="-8.75458">
        <ele>46.39744</ele>
        <time>2021-07-11T13:18:11Z</time>
      </trkpt>
      <trkpt lat="38.05313" lon="-8.75432">
        <ele>48.04102</ele>
        <time>2021-07-11T13:18:22Z</time>
      </trkpt>
      <trkpt lat="38.0532" lon="-8.75362">
        <ele>51.71075</ele>
        <time>2021-07-11T13:18:33Z</time>
      </trkpt>
      <trkpt lat="38.05268" lon="-8.75338">
        <ele>53.52125</ele>
        <time>2021-07-11T13:18:44Z</time>
      </trkpt>
      <trkpt lat="38.0531" lon="-8.75226">
        <ele>61.28771</ele>
        <time>2021-07-11T13:18:55Z</time>
      </trkpt>
      <trkpt lat="38.05327" lon="-8.75164">
        <ele>62.01612</ele>
        <time>2021-07-11T13:19:06Z</time>
      </trkpt>
      <trkpt lat="38.05365" lon="-8.75174">
        <ele>61.53708</ele>
        <time>2021-07-11T13:19:17Z</time>
      </trkpt>
      <trkpt lat="38.0547" lon="-8.75295">
        <ele>53.21199</ele>
        <time>2021-07-11T13:19:28Z</time>
      </trkpt>
      <trkpt lat="38.05622" lon="-8.75386">
        <ele>42.81593</ele>
        <time>2021-07-11T13:19:39Z</time>
      </trkpt>
      <trkpt lat="38.05792" lon="-8.75477">
        <ele>31.38687</ele>
        <time>2021-07-11T13:19:50Z</time>
      </trkpt>
      <trkpt lat="38.05938" lon="-8.75575">
        <ele>29.81776</ele>
        <time>2021-07-11T13:20:01Z</time>
      </trkpt>
      <trkpt lat="38.06082" lon="-8.75722">
        <ele>28.28761</ele>
        <time>2021-07-11T13:20:12Z</time>
      </trkpt>
      <trkpt lat="38.0623" lon="-8.75853">
        <ele>28.92987</ele>
        <time>2021-07-11T13:20:23Z</time>
      </trkpt>
      <trkpt lat="38.06313" lon="-8.76009">
        <ele>27.01633</ele>
        <time>2021-07-11T13:20:34Z</time>
      </trkpt>
      <trkpt lat="38.06365" lon="-8.76199">
        <ele>28.92028</ele>
        <time>2021-07-11T13:20:45Z</time>
      </trkpt>
      <trkpt lat="38.06477" lon="-8.76343">
        <ele>27.43846</ele>
        <time>2021-07-11T13:20:56Z</time>
      </trkpt>
      <trkpt lat="38.06564" lon="-8.76491">
        <ele>25.7658</ele>
        <time>2021-07-11T13:21:07Z</time>
      </trkpt>
      <trkpt lat="38.06587" lon="-8.76661">
        <ele>24.21547</ele>
        <time>2021-07-11T13:21:18Z</time>
      </trkpt>
      <trkpt lat="38.06624" lon="-8.76837">
        <ele>18.79142</ele>
        <time>2021-07-11T13:21:29Z</time>
      </trkpt>
      <trkpt lat="38.06671" lon="-8.7701">
        <ele>14.74755</ele>
        <time>2021-07-11T13:21:40Z</time>
      </trkpt>
      <trkpt lat="38.06649" lon="-8.77182">
        <ele>13.00866</ele>
        <time>2021-07-11T13:21:51Z</time>
      </trkpt>
      <trkpt lat="38.06625" lon="-8.77358">
        <ele>12.31946</ele>
        <time>2021-07-11T13:22:02Z</time>
      </trkpt>
      <trkpt lat="38.06605" lon="-8.77513">
        <ele>16.42206</ele>
        <time>2021-07-11T13:22:13Z</time>
      </trkpt>
      <trkpt lat="38.06605" lon="-8.77555">
        <ele>17.01382</ele>
        <time>2021-07-11T13:22:24Z</time>
      </trkpt>
      <trkpt lat="38.066" lon="-8.77659">
        <ele>22.04463</ele>
        <time>2021-07-11T13:22:35Z</time>
      </trkpt>
      <trkpt lat="38.06633" lon="-8.77815">
        <ele>25.48476</ele>
        <time>2021-07-11T13:22:46Z</time>
      </trkpt>
      <trkpt lat="38.06658" lon="-8.77927">
        <ele>25.58456</ele>
        <time>2021-07-11T13:22:57Z</time>
      </trkpt>
      <trkpt lat="38.06694" lon="-8.78094">
        <ele>26.51914</ele>
        <time>2021-07-11T13:23:08Z</time>
      </trkpt>
      <trkpt lat="38.06731" lon="-8.78268">
        <ele>20.5345</ele>
        <time>2021-07-11T13:23:19Z</time>
      </trkpt>
      <trkpt lat="38.06845" lon="-8.78303">
        <ele>14.97261</ele>
        <time>2021-07-11T13:23:30Z</time>
      </trkpt>
      <trkpt lat="38.06933" lon="-8.78301">
        <ele>12.08639</ele>
        <time>2021-07-11T13:23:41Z</time>
      </trkpt>
      <trkpt lat="38.06926" lon="-8.78353">
        <ele>11.37827</ele>
        <time>2021-07-11T13:23:52Z</time>
      </trkpt>
      <trkpt lat="38.0677" lon="-8.78403">
        <ele>12.35521</ele>
        <time>2021-07-11T13:24:03Z</time>
      </trkpt>
      <trkpt lat="38.06632" lon="-8.78483">
        <ele>15.29572</ele>
        <time>2021-07-11T13:24:14Z</time>
      </trkpt>
      <trkpt lat="38.0651" lon="-8.78564">
        <ele>17.38321</ele>
        <time>2021-07-11T13:24:25Z</time>
      </trkpt>
      <trkpt lat="38.06381" lon="-8.78652">
        <ele>20.17556</ele>
        <time>2021-07-11T13:24:36Z</time>
      </trkpt>
      <trkpt lat="38.06245" lon="-8.78746">
        <ele>23.39628</ele>
        <time>2021-07-11T13:24:47Z</time>
      </trkpt>
      <trkpt lat="38.06093" lon="-8.78849">
        <ele>25.98233</ele>
        <time>2021-07-11T13:24:58Z</time>
      </trkpt>
      <trkpt lat="38.05927" lon="-8.78938">
        <ele>29.31631</ele>
        <time>2021-07-11T13:25:09Z</time>
      </trkpt>
      <trkpt lat="38.05744" lon="-8.78986">
        <ele>30.86529</ele>
        <time>2021-07-11T13:25:20Z</time>
      </trkpt>
      <trkpt lat="38.05543" lon="-8.79006">
        <ele>32.88809</ele>
        <time>2021-07-11T13:25:31Z</time>
      </trkpt>
      <trkpt lat="38.0534" lon="-8.79059">
        <ele>32.05974</ele>
        <time>2021-07-11T13:25:42Z</time>
      </trkpt>
      <trkpt lat="38.05145" lon="-8.7916">
        <ele>30.78653</ele>
        <time>2021-07-11T13:25:53Z</time>
      </trkpt>
      <trkpt lat="38.04928" lon="-8.7928">
        <ele>28.57956</ele>
        <time>2021-07-11T13:26:04Z</time>
      </trkpt>
      <trkpt lat="38.04716" lon="-8.79397">
        <ele>29.51448</ele>
        <time>2021-07-11T13:26:15Z</time>
      </trkpt>
      <trkpt lat="38.0451" lon="-8.79526">
        <ele>31.15076</ele>
        <time>2021-07-11T13:26:26Z</time>
      </trkpt>
      <trkpt lat="38.0431" lon="-8.7968">
        <ele>32.9762</ele>
        <time>2021-07-11T13:26:37Z</time>
      </trkpt>
      <trkpt lat="38.04116" lon="-8.79858">
        <ele>33.86797</ele>
        <time>2021-07-11T13:26:48Z</time>
      </trkpt>
      <trkpt lat="38.03926" lon="-8.80039">
        <ele>34.24395</ele>
        <time>2021-07-11T13:26:59Z</time>
      </trkpt>
      <trkpt lat="38.03738" lon="-8.80215">
        <ele>31.48109</ele>
        <time>2021-07-11T13:27:10Z</time>
      </trkpt>
      <trkpt lat="38.03545" lon="-8.80399">
        <ele>32.18424</ele>
        <time>2021-07-11T13:27:21Z</time>
      </trkpt>
      <trkpt lat="38.03346" lon="-8.80588">
        <ele>31.82973</ele>
        <time>2021-07-11T13:27:32Z</time>
      </trkpt>
      <trkpt lat="38.0314" lon="-8.80775">
        <ele>32.04409</ele>
        <time>2021-07-11T13:27:43Z</time>
      </trkpt>
      <trkpt lat="38.02927" lon="-8.80935">
        <ele>30.83059</ele>
        <time>2021-07-11T13:27:54Z</time>
      </trkpt>
      <trkpt lat="38.02717" lon="-8.81091">
        <ele>30.32387</ele>
        <time>2021-07-11T13:28:05Z</time>
      </trkpt>
      <trkpt lat="38.02516" lon="-8.81271">
        <ele>28.30654</ele>
        <time>2021-07-11T13:28:16Z</time>
      </trkpt>
      <trkpt lat="38.02331" lon="-8.81436">
        <ele>25.44963</ele>
        <time>2021-07-11T13:28:27Z</time>
      </trkpt>
      <trkpt lat="38.02118" lon="-8.81586">
        <ele>22.51104</ele>
        <time>2021-07-11T13:28:38Z</time>
      </trkpt>
      <trkpt lat="38.01872" lon="-8.81718">
        <ele>19.69251</ele>
        <time>2021-07-11T13:28:49Z</time>
      </trkpt>
      <trkpt lat="38.01651" lon="-8.81843">
        <ele>15.72605</ele>
        <time>2021-07-11T13:29:00Z</time>
      </trkpt>
      <trkpt lat="38.01446" lon="-8.81999">
        <ele>14.55532</ele>
        <time>2021-07-11T13:29:11Z</time>
      </trkpt>
      <trkpt lat="38.01245" lon="-8.82175">
        <ele>14.35915</ele>
        <time>2021-07-11T13:29:22Z</time>
      </trkpt>
      <trkpt lat="38.01045" lon="-8.82347">
        <ele>13.92653</ele>
        <time>2021-07-11T13:29:33Z</time>
      </trkpt>
      <trkpt lat="38.00837" lon="-8.82499">
        <ele>16.64229</ele>
        <time>2021-07-11T13:29:44Z</time>
      </trkpt>
      <trkpt lat="38.00629" lon="-8.82644">
        <ele>18.83579</ele>
        <time>2021-07-11T13:29:55Z</time>
      </trkpt>
      <trkpt lat="38.00419" lon="-8.8279">
        <ele>22.12402</ele>
        <time>2021-07-11T13:30:06Z</time>
      </trkpt>
      <trkpt lat="38.00209" lon="-8.82936">
        <ele>24.85825</ele>
        <time>2021-07-11T13:30:17Z</time>
      </trkpt>
      <trkpt lat="37.99996" lon="-8.83086">
        <ele>26.32184</ele>
        <time>2021-07-11T13:30:28Z</time>
      </trkpt>
      <trkpt lat="37.99781" lon="-8.83219">
        <ele>26.02766</ele>
        <time>2021-07-11T13:30:39Z</time>
      </trkpt>
      <trkpt lat="37.99554" lon="-8.83318">
        <ele>26.50847</ele>
        <time>2021-07-11T13:30:50Z</time>
      </trkpt>
      <trkpt lat="37.9932" lon="-8.83382">
        <ele>27.53898</ele>
        <time>2021-07-11T13:31:01Z</time>
      </trkpt>
      <trkpt lat="37.99085" lon="-8.83422">
        <ele>29.60875</ele>
        <time>2021-07-11T13:31:12Z</time>
      </trkpt>
      <trkpt lat="37.98844" lon="-8.83463">
        <ele>31.21297</ele>
        <time>2021-07-11T13:31:23Z</time>
      </trkpt>
      <trkpt lat="37.986" lon="-8.8349">
        <ele>30.36893</ele>
        <time>2021-07-11T13:31:34Z</time>
      </trkpt>
      <trkpt lat="37.98355" lon="-8.83485">
        <ele>29.2091</ele>
        <time>2021-07-11T13:31:45Z</time>
      </trkpt>
      <trkpt lat="37.9811" lon="-8.83438">
        <ele>25.18083</ele>
        <time>2021-07-11T13:31:56Z</time>
      </trkpt>
      <trkpt lat="37.97876" lon="-8.83348">
        <ele>20.4034</ele>
        <time>2021-07-11T13:32:07Z</time>
      </trkpt>
      <trkpt lat="37.97645" lon="-8.83243">
        <ele>13.77035</ele>
        <time>2021-07-11T13:32:18Z</time>
      </trkpt>
      <trkpt lat="37.97408" lon="-8.83184">
        <ele>13.32734</ele>
        <time>2021-07-11T13:32:29Z</time>
      </trkpt>
      <trkpt lat="37.97192" lon="-8.83176">
        <ele>20.96154</ele>
        <time>2021-07-11T13:32:40Z</time>
      </trkpt>
      <trkpt lat="37.96992" lon="-8.83206">
        <ele>26.74326</ele>
        <time>2021-07-11T13:32:51Z</time>
      </trkpt>
      <trkpt lat="37.9684" lon="-8.83295">
        <ele>30.94927</ele>
        <time>2021-07-11T13:33:02Z</time>
      </trkpt>
      <trkpt lat="37.96707" lon="-8.83145">
        <ele>30.76887</ele>
        <time>2021-07-11T13:33:13Z</time>
      </trkpt>
      <trkpt lat="37.96514" lon="-8.83022">
        <ele>36.75343</ele>
        <time>2021-07-11T13:33:24Z</time>
      </trkpt>
      <trkpt lat="37.96327" lon="-8.82837">
        <ele>46.63189</ele>
        <time>2021-07-11T13:33:35Z</time>
      </trkpt>
      <trkpt lat="37.9611" lon="-8.82648">
        <ele>48.78132</ele>
        <time>2021-07-11T13:33:46Z</time>
      </trkpt>
      <trkpt lat="37.95891" lon="-8.82513">
        <ele>48.57599</ele>
        <time>2021-07-11T13:33:57Z</time>
      </trkpt>
      <trkpt lat="37.95666" lon="-8.82405">
        <ele>46.47765</ele>
        <time>2021-07-11T13:34:08Z</time>
      </trkpt>
      <trkpt lat="37.95451" lon="-8.8231">
        <ele>43.26067</ele>
        <time>2021-07-11T13:34:19Z</time>
      </trkpt>
      <trkpt lat="37.95287" lon="-8.82294">
        <ele>43.69985</ele>
        <time>2021-07-11T13:34:30Z</time>
      </trkpt>
      <trkpt lat="37.95091" lon="-8.82284">
        <ele>40.48227</ele>
        <time>2021-07-11T13:34:41Z</time>
      </trkpt>
      <trkpt lat="37.94857" lon="-8.82367">
        <ele>38.07972</ele>
        <time>2021-07-11T13:34:52Z</time>
      </trkpt>
      <trkpt lat="37.94643" lon="-8.82523">
        <ele>35.41029</ele>
        <time>2021-07-11T13:35:03Z</time>
      </trkpt>
      <trkpt lat="37.94442" lon="-8.82691">
        <ele>34.29263</ele>
        <time>2021-07-11T13:35:14Z</time>
      </trkpt>
      <trkpt lat="37.94229" lon="-8.82874">
        <ele>29.87925</ele>
        <time>2021-07-11T13:35:25Z</time>
      </trkpt>
      <trkpt lat="37.94072" lon="-8.83026">
        <ele>22.59226</ele>
        <time>2021-07-11T13:35:36Z</time>
      </trkpt>
      <trkpt lat="37.93987" lon="-8.83148">
        <ele>25.55335</ele>
        <time>2021-07-11T13:35:47Z</time>
      </trkpt>
      <trkpt lat="37.93889" lon="-8.83028">
        <ele>23.08927</ele>
        <time>2021-07-11T13:35:58Z</time>
      </trkpt>
      <trkpt lat="37.93826" lon="-8.82776">
        <ele>22.10549</ele>
        <time>2021-07-11T13:36:09Z</time>
      </trkpt>
      <trkpt lat="37.93719" lon="-8.8252">
        <ele>18.15618</ele>
        <time>2021-07-11T13:36:20Z</time>
      </trkpt>
      <trkpt lat="37.93613" lon="-8.82266">
        <ele>13.43219</ele>
        <time>2021-07-11T13:36:31Z</time>
      </trkpt>
      <trkpt lat="37.93507" lon="-8.82011">
        <ele>11.66327</ele>
        <time>2021-07-11T13:36:42Z</time>
      </trkpt>
      <trkpt lat="37.93409" lon="-8.81777">
        <ele>13.01786</ele>
        <time>2021-07-11T13:36:53Z</time>
      </trkpt>
      <trkpt lat="37.93303" lon="-8.81522">
        <ele>12.34864</ele>
        <time>2021-07-11T13:37:04Z</time>
      </trkpt>
      <trkpt lat="37.9319" lon="-8.81253">
        <ele>12.65868</ele>
        <time>2021-07-11T13:37:15Z</time>
      </trkpt>
      <trkpt lat="37.93098" lon="-8.81032">
        <ele>12.233</ele>
        <time>2021-07-11T13:37:26Z</time>
      </trkpt>
      <trkpt lat="37.93017" lon="-8.80845">
        <ele>13.69842</ele>
        <time>2021-07-11T13:37:37Z</time>
      </trkpt>
      <trkpt lat="37.92886" lon="-8.8074">
        <ele>11.55053</ele>
        <time>2021-07-11T13:37:48Z</time>
      </trkpt>
      <trkpt lat="37.92749" lon="-8.80682">
        <ele>8.174557</ele>
        <time>2021-07-11T13:37:59Z</time>
      </trkpt>
      <trkpt lat="37.92601" lon="-8.80667">
        <ele>6.114494</ele>
        <time>2021-07-11T13:38:10Z</time>
      </trkpt>
      <trkpt lat="37.9247" lon="-8.80583">
        <ele>8.159897</ele>
        <time>2021-07-11T13:38:21Z</time>
      </trkpt>
      <trkpt lat="37.92329" lon="-8.80487">
        <ele>6.846812</ele>
        <time>2021-07-11T13:38:32Z</time>
      </trkpt>
      <trkpt lat="37.92173" lon="-8.8045">
        <ele>7.187977</ele>
        <time>2021-07-11T13:38:43Z</time>
      </trkpt>
      <trkpt lat="37.92053" lon="-8.80434">
        <ele>11.1219</ele>
        <time>2021-07-11T13:38:54Z</time>
      </trkpt>
      <trkpt lat="37.91914" lon="-8.80384">
        <ele>10.89751</ele>
        <time>2021-07-11T13:39:05Z</time>
      </trkpt>
      <trkpt lat="37.91863" lon="-8.80366">
        <ele>9.306522</ele>
        <time>2021-07-11T13:39:16Z</time>
      </trkpt>
      <trkpt lat="37.91866" lon="-8.80364">
        <ele>7.388736</ele>
        <time>2021-07-11T13:39:45Z</time>
      </trkpt>
      <trkpt lat="37.9186" lon="-8.80361">
        <ele>5.549687</ele>
        <time>2021-07-11T13:40:28Z</time>
      </trkpt>
      <trkpt lat="37.91757" lon="-8.80327">
        <ele>11.66134</ele>
        <time>2021-07-11T13:40:39Z</time>
      </trkpt>
      <trkpt lat="37.91664" lon="-8.80293">
        <ele>11.04177</ele>
        <time>2021-07-11T13:40:50Z</time>
      </trkpt>
      <trkpt lat="37.91574" lon="-8.8026">
        <ele>11.03866</ele>
        <time>2021-07-11T13:41:01Z</time>
      </trkpt>
      <trkpt lat="37.91475" lon="-8.80204">
        <ele>10.91526</ele>
        <time>2021-07-11T13:41:12Z</time>
      </trkpt>
      <trkpt lat="37.91349" lon="-8.80193">
        <ele>11.82164</ele>
        <time>2021-07-11T13:41:23Z</time>
      </trkpt>
      <trkpt lat="37.91222" lon="-8.80185">
        <ele>13.4258</ele>
        <time>2021-07-11T13:41:34Z</time>
      </trkpt>
      <trkpt lat="37.91103" lon="-8.8008">
        <ele>13.29461</ele>
        <time>2021-07-11T13:41:45Z</time>
      </trkpt>
      <trkpt lat="37.91004" lon="-8.7997">
        <ele>11.80788</ele>
        <time>2021-07-11T13:41:56Z</time>
      </trkpt>
      <trkpt lat="37.90892" lon="-8.79916">
        <ele>12.98073</ele>
        <time>2021-07-11T13:42:07Z</time>
      </trkpt>
      <trkpt lat="37.90808" lon="-8.79871">
        <ele>12.45115</ele>
        <time>2021-07-11T13:42:18Z</time>
      </trkpt>
      <trkpt lat="37.9073" lon="-8.79829">
        <ele>9.446894</ele>
        <time>2021-07-11T13:42:29Z</time>
      </trkpt>
      <trkpt lat="37.90584" lon="-8.79713">
        <ele>10.21199</ele>
        <time>2021-07-11T13:42:40Z</time>
      </trkpt>
      <trkpt lat="37.90453" lon="-8.79569">
        <ele>14.00184</ele>
        <time>2021-07-11T13:42:51Z</time>
      </trkpt>
      <trkpt lat="37.90329" lon="-8.79466">
        <ele>17.19995</ele>
        <time>2021-07-11T13:43:02Z</time>
      </trkpt>
      <trkpt lat="37.90197" lon="-8.79374">
        <ele>19.54186</ele>
        <time>2021-07-11T13:43:13Z</time>
      </trkpt>
      <trkpt lat="37.90045" lon="-8.79364">
        <ele>19.29905</ele>
        <time>2021-07-11T13:43:24Z</time>
      </trkpt>
      <trkpt lat="37.89912" lon="-8.79386">
        <ele>20.22129</ele>
        <time>2021-07-11T13:43:35Z</time>
      </trkpt>
      <trkpt lat="37.89773" lon="-8.79383">
        <ele>20.39092</ele>
        <time>2021-07-11T13:43:46Z</time>
      </trkpt>
      <trkpt lat="37.89643" lon="-8.79373">
        <ele>19.34284</ele>
        <time>2021-07-11T13:43:57Z</time>
      </trkpt>
      <trkpt lat="37.89496" lon="-8.79346">
        <ele>17.40327</ele>
        <time>2021-07-11T13:44:08Z</time>
      </trkpt>
      <trkpt lat="37.89351" lon="-8.79317">
        <ele>17.93137</ele>
        <time>2021-07-11T13:44:19Z</time>
      </trkpt>
      <trkpt lat="37.89185" lon="-8.79277">
        <ele>18.37411</ele>
        <time>2021-07-11T13:44:30Z</time>
      </trkpt>
      <trkpt lat="37.89015" lon="-8.79239">
        <ele>18.7003</ele>
        <time>2021-07-11T13:44:41Z</time>
      </trkpt>
      <trkpt lat="37.88842" lon="-8.79193">
        <ele>19.35806</ele>
        <time>2021-07-11T13:44:52Z</time>
      </trkpt>
      <trkpt lat="37.88667" lon="-8.79142">
        <ele>18.35596</ele>
        <time>2021-07-11T13:45:03Z</time>
      </trkpt>
      <trkpt lat="37.8849" lon="-8.79137">
        <ele>18.42949</ele>
        <time>2021-07-11T13:45:14Z</time>
      </trkpt>
      <trkpt lat="37.88312" lon="-8.79136">
        <ele>17.38087</ele>
        <time>2021-07-11T13:45:25Z</time>
      </trkpt>
      <trkpt lat="37.88135" lon="-8.79062">
        <ele>18.6303</ele>
        <time>2021-07-11T13:45:36Z</time>
      </trkpt>
      <trkpt lat="37.87985" lon="-8.78943">
        <ele>21.04169</ele>
        <time>2021-07-11T13:45:47Z</time>
      </trkpt>
      <trkpt lat="37.87822" lon="-8.78978">
        <ele>21.676</ele>
        <time>2021-07-11T13:45:58Z</time>
      </trkpt>
      <trkpt lat="37.87656" lon="-8.79069">
        <ele>23.48151</ele>
        <time>2021-07-11T13:46:09Z</time>
      </trkpt>
      <trkpt lat="37.87474" lon="-8.79096">
        <ele>23.82487</ele>
        <time>2021-07-11T13:46:20Z</time>
      </trkpt>
      <trkpt lat="37.87298" lon="-8.791">
        <ele>23.80616</ele>
        <time>2021-07-11T13:46:31Z</time>
      </trkpt>
      <trkpt lat="37.87129" lon="-8.79139">
        <ele>21.88488</ele>
        <time>2021-07-11T13:46:42Z</time>
      </trkpt>
      <trkpt lat="37.86996" lon="-8.79185">
        <ele>24.83282</ele>
        <time>2021-07-11T13:46:53Z</time>
      </trkpt>
      <trkpt lat="37.86881" lon="-8.79215">
        <ele>23.77109</ele>
        <time>2021-07-11T13:47:04Z</time>
      </trkpt>
      <trkpt lat="37.86733" lon="-8.7922">
        <ele>21.09948</ele>
        <time>2021-07-11T13:47:16Z</time>
      </trkpt>
      <trkpt lat="37.86585" lon="-8.79223">
        <ele>22.85755</ele>
        <time>2021-07-11T13:47:27Z</time>
      </trkpt>
      <trkpt lat="37.8645" lon="-8.79257">
        <ele>22.32559</ele>
        <time>2021-07-11T13:47:38Z</time>
      </trkpt>
      <trkpt lat="37.8631" lon="-8.793">
        <ele>22.92524</ele>
        <time>2021-07-11T13:47:49Z</time>
      </trkpt>
      <trkpt lat="37.86183" lon="-8.7934">
        <ele>23.08273</ele>
        <time>2021-07-11T13:48:00Z</time>
      </trkpt>
      <trkpt lat="37.86061" lon="-8.79348">
        <ele>23.97715</ele>
        <time>2021-07-11T13:48:11Z</time>
      </trkpt>
      <trkpt lat="37.85991" lon="-8.79238">
        <ele>22.16278</ele>
        <time>2021-07-11T13:48:22Z</time>
      </trkpt>
      <trkpt lat="37.85876" lon="-8.79224">
        <ele>19.66787</ele>
        <time>2021-07-11T13:48:33Z</time>
      </trkpt>
      <trkpt lat="37.85765" lon="-8.79246">
        <ele>18.74376</ele>
        <time>2021-07-11T13:48:44Z</time>
      </trkpt>
      <trkpt lat="37.8566" lon="-8.79265">
        <ele>21.96548</ele>
        <time>2021-07-11T13:48:55Z</time>
      </trkpt>
      <trkpt lat="37.85591" lon="-8.79328">
        <ele>22.33822</ele>
        <time>2021-07-11T13:49:06Z</time>
      </trkpt>
      <trkpt lat="37.85508" lon="-8.79338">
        <ele>25.56847</ele>
        <time>2021-07-11T13:49:17Z</time>
      </trkpt>
      <trkpt lat="37.85431" lon="-8.79357">
        <ele>30.51489</ele>
        <time>2021-07-11T13:49:28Z</time>
      </trkpt>
      <trkpt lat="37.85332" lon="-8.79389">
        <ele>28.82329</ele>
        <time>2021-07-11T13:49:40Z</time>
      </trkpt>
      <trkpt lat="37.85237" lon="-8.79389">
        <ele>24.32312</ele>
        <time>2021-07-11T13:49:51Z</time>
      </trkpt>
      <trkpt lat="37.8516" lon="-8.7937">
        <ele>22.50928</ele>
        <time>2021-07-11T13:50:02Z</time>
      </trkpt>
      <trkpt lat="37.85117" lon="-8.7936">
        <ele>22.11941</ele>
        <time>2021-07-11T13:50:13Z</time>
      </trkpt>
      <trkpt lat="37.85098" lon="-8.79352">
        <ele>23.49229</ele>
        <time>2021-07-11T13:50:24Z</time>
      </trkpt>
      <trkpt lat="37.85089" lon="-8.79337">
        <ele>26.43223</ele>
        <time>2021-07-11T13:50:35Z</time>
      </trkpt>
      <trkpt lat="37.85058" lon="-8.79304">
        <ele>23.28781</ele>
        <time>2021-07-11T13:50:46Z</time>
      </trkpt>
      <trkpt lat="37.85029" lon="-8.79271">
        <ele>20.16247</ele>
        <time>2021-07-11T13:50:57Z</time>
      </trkpt>
      <trkpt lat="37.85035" lon="-8.79213">
        <ele>20.26542</ele>
        <time>2021-07-11T13:51:08Z</time>
      </trkpt>
      <trkpt lat="37.85052" lon="-8.79165">
        <ele>24.53402</ele>
        <time>2021-07-11T13:51:19Z</time>
      </trkpt>
      <trkpt lat="37.85106" lon="-8.79105">
        <ele>30.88812</ele>
        <time>2021-07-11T13:51:30Z</time>
      </trkpt>
      <trkpt lat="37.85162" lon="-8.79052">
        <ele>29.92254</ele>
        <time>2021-07-11T13:51:41Z</time>
      </trkpt>
      <trkpt lat="37.85199" lon="-8.79082">
        <ele>28.42614</ele>
        <time>2021-07-11T13:51:52Z</time>
      </trkpt>
      <trkpt lat="37.85238" lon="-8.79">
        <ele>30.83433</ele>
        <time>2021-07-11T13:52:03Z</time>
      </trkpt>
      <trkpt lat="37.85294" lon="-8.78872">
        <ele>33.64898</ele>
        <time>2021-07-11T13:52:14Z</time>
      </trkpt>
      <trkpt lat="37.85349" lon="-8.78722">
        <ele>39.90285</ele>
        <time>2021-07-11T13:52:25Z</time>
      </trkpt>
      <trkpt lat="37.85364" lon="-8.78593">
        <ele>40.78303</ele>
        <time>2021-07-11T13:52:36Z</time>
      </trkpt>
      <trkpt lat="37.8538" lon="-8.78577">
        <ele>41.2071</ele>
        <time>2021-07-11T13:52:47Z</time>
      </trkpt>
      <trkpt lat="37.8538" lon="-8.78575">
        <ele>42.86375</ele>
        <time>2021-07-11T13:53:46Z</time>
      </trkpt>
      <trkpt lat="37.8538" lon="-8.78575">
        <ele>42.86375</ele>
        <time>2021-07-11T13:54:45Z</time>
      </trkpt>
      <trkpt lat="37.85366" lon="-8.78573">
        <ele>43.77991</ele>
        <time>2021-07-11T13:55:06Z</time>
      </trkpt>
      <trkpt lat="37.8538" lon="-8.78576">
        <ele>43.77991</ele>
        <time>2021-07-11T13:55:29Z</time>
      </trkpt>
      <trkpt lat="37.85379" lon="-8.78576">
        <ele>43.20548</ele>
        <time>2021-07-11T13:56:28Z</time>
      </trkpt>
      <trkpt lat="37.85366" lon="-8.78574">
        <ele>43.20548</ele>
        <time>2021-07-11T13:56:48Z</time>
      </trkpt>
      <trkpt lat="37.85379" lon="-8.78575">
        <ele>43.84775</ele>
        <time>2021-07-11T13:56:59Z</time>
      </trkpt>
      <trkpt lat="37.8538" lon="-8.78575">
        <ele>43.8021</ele>
        <time>2021-07-11T13:57:58Z</time>
      </trkpt>
      <trkpt lat="37.8538" lon="-8.78575">
        <ele>43.8021</ele>
        <time>2021-07-11T13:58:57Z</time>
      </trkpt>
      <trkpt lat="37.8538" lon="-8.78575">
        <ele>43.8021</ele>
        <time>2021-07-11T13:59:56Z</time>
      </trkpt>
      <trkpt lat="37.8538" lon="-8.78575">
        <ele>43.8021</ele>
        <time>2021-07-11T14:00:55Z</time>
      </trkpt>
      <trkpt lat="37.85379" lon="-8.78576">
        <ele>46.08293</ele>
        <time>2021-07-11T14:01:54Z</time>
      </trkpt>
      <trkpt lat="37.85377" lon="-8.78571">
        <ele>46.64037</ele>
        <time>2021-07-11T14:02:21Z</time>
      </trkpt>
      <trkpt lat="37.85374" lon="-8.78509">
        <ele>47.16355</ele>
        <time>2021-07-11T14:02:32Z</time>
      </trkpt>
      <trkpt lat="37.85393" lon="-8.78354">
        <ele>48.25099</ele>
        <time>2021-07-11T14:02:43Z</time>
      </trkpt>
      <trkpt lat="37.85415" lon="-8.78153">
        <ele>45.80431</ele>
        <time>2021-07-11T14:02:54Z</time>
      </trkpt>
      <trkpt lat="37.85443" lon="-8.77915">
        <ele>51.18176</ele>
        <time>2021-07-11T14:03:05Z</time>
      </trkpt>
      <trkpt lat="37.85474" lon="-8.77663">
        <ele>50.40858</ele>
        <time>2021-07-11T14:03:16Z</time>
      </trkpt>
      <trkpt lat="37.85509" lon="-8.77367">
        <ele>55.69688</ele>
        <time>2021-07-11T14:03:27Z</time>
      </trkpt>
      <trkpt lat="37.85541" lon="-8.77099">
        <ele>56.87295</ele>
        <time>2021-07-11T14:03:38Z</time>
      </trkpt>
      <trkpt lat="37.85612" lon="-8.7686">
        <ele>61.96658</ele>
        <time>2021-07-11T14:03:49Z</time>
      </trkpt>
      <trkpt lat="37.8567" lon="-8.76676">
        <ele>64.72938</ele>
        <time>2021-07-11T14:04:00Z</time>
      </trkpt>
      <trkpt lat="37.85717" lon="-8.76533">
        <ele>68.56674</ele>
        <time>2021-07-11T14:04:11Z</time>
      </trkpt>
      <trkpt lat="37.85733" lon="-8.76475">
        <ele>70.4243</ele>
        <time>2021-07-11T14:04:22Z</time>
      </trkpt>
      <trkpt lat="37.85684" lon="-8.76408">
        <ele>70.23184</ele>
        <time>2021-07-11T14:04:33Z</time>
      </trkpt>
      <trkpt lat="37.8557" lon="-8.76357">
        <ele>71.76109</ele>
        <time>2021-07-11T14:04:44Z</time>
      </trkpt>
      <trkpt lat="37.85464" lon="-8.76407">
        <ele>70.27962</ele>
        <time>2021-07-11T14:04:55Z</time>
      </trkpt>
      <trkpt lat="37.853" lon="-8.76491">
        <ele>68.32189</ele>
        <time>2021-07-11T14:05:06Z</time>
      </trkpt>
      <trkpt lat="37.8512" lon="-8.76586">
        <ele>66.65719</ele>
        <time>2021-07-11T14:05:17Z</time>
      </trkpt>
      <trkpt lat="37.84945" lon="-8.76675">
        <ele>63.49472</ele>
        <time>2021-07-11T14:05:28Z</time>
      </trkpt>
      <trkpt lat="37.84802" lon="-8.76757">
        <ele>62.17634</ele>
        <time>2021-07-11T14:05:39Z</time>
      </trkpt>
      <trkpt lat="37.84673" lon="-8.76706">
        <ele>63.6305</ele>
        <time>2021-07-11T14:05:50Z</time>
      </trkpt>
      <trkpt lat="37.84535" lon="-8.76699">
        <ele>66.14972</ele>
        <time>2021-07-11T14:06:01Z</time>
      </trkpt>
      <trkpt lat="37.84392" lon="-8.76706">
        <ele>65.76775</ele>
        <time>2021-07-11T14:06:12Z</time>
      </trkpt>
      <trkpt lat="37.84263" lon="-8.7672">
        <ele>67.23143</ele>
        <time>2021-07-11T14:06:23Z</time>
      </trkpt>
      <trkpt lat="37.84128" lon="-8.76676">
        <ele>66.0502</ele>
        <time>2021-07-11T14:06:34Z</time>
      </trkpt>
      <trkpt lat="37.8399" lon="-8.76579">
        <ele>65.96671</ele>
        <time>2021-07-11T14:06:45Z</time>
      </trkpt>
      <trkpt lat="37.8384" lon="-8.7647">
        <ele>66.32785</ele>
        <time>2021-07-11T14:06:56Z</time>
      </trkpt>
      <trkpt lat="37.83675" lon="-8.76381">
        <ele>64.64371</ele>
        <time>2021-07-11T14:07:07Z</time>
      </trkpt>
      <trkpt lat="37.83511" lon="-8.76297">
        <ele>64.60239</ele>
        <time>2021-07-11T14:07:18Z</time>
      </trkpt>
      <trkpt lat="37.83335" lon="-8.76212">
        <ele>66.30703</ele>
        <time>2021-07-11T14:07:29Z</time>
      </trkpt>
      <trkpt lat="37.83172" lon="-8.76127">
        <ele>62.4838</ele>
        <time>2021-07-11T14:07:40Z</time>
      </trkpt>
      <trkpt lat="37.83003" lon="-8.76057">
        <ele>61.03466</ele>
        <time>2021-07-11T14:07:51Z</time>
      </trkpt>
      <trkpt lat="37.82844" lon="-8.75995">
        <ele>66.15502</ele>
        <time>2021-07-11T14:08:02Z</time>
      </trkpt>
      <trkpt lat="37.82688" lon="-8.76005">
        <ele>68.84898</ele>
        <time>2021-07-11T14:08:13Z</time>
      </trkpt>
      <trkpt lat="37.82537" lon="-8.76056">
        <ele>66.29716</ele>
        <time>2021-07-11T14:08:24Z</time>
      </trkpt>
      <trkpt lat="37.82326" lon="-8.76127">
        <ele>65.32941</ele>
        <time>2021-07-11T14:08:35Z</time>
      </trkpt>
      <trkpt lat="37.82142" lon="-8.76189">
        <ele>65.75411</ele>
        <time>2021-07-11T14:08:46Z</time>
      </trkpt>
      <trkpt lat="37.81949" lon="-8.76256">
        <ele>63.16976</ele>
        <time>2021-07-11T14:08:57Z</time>
      </trkpt>
      <trkpt lat="37.81754" lon="-8.76321">
        <ele>62.49628</ele>
        <time>2021-07-11T14:09:08Z</time>
      </trkpt>
      <trkpt lat="37.81571" lon="-8.76373">
        <ele>52.66739</ele>
        <time>2021-07-11T14:09:19Z</time>
      </trkpt>
      <trkpt lat="37.81382" lon="-8.76426">
        <ele>56.87818</ele>
        <time>2021-07-11T14:09:30Z</time>
      </trkpt>
      <trkpt lat="37.81237" lon="-8.76501">
        <ele>64.37703</ele>
        <time>2021-07-11T14:09:41Z</time>
      </trkpt>
      <trkpt lat="37.81089" lon="-8.7659">
        <ele>66.71651</ele>
        <time>2021-07-11T14:09:52Z</time>
      </trkpt>
      <trkpt lat="37.80938" lon="-8.76681">
        <ele>67.81228</ele>
        <time>2021-07-11T14:10:03Z</time>
      </trkpt>
      <trkpt lat="37.80768" lon="-8.7678">
        <ele>67.77927</ele>
        <time>2021-07-11T14:10:14Z</time>
      </trkpt>
      <trkpt lat="37.80613" lon="-8.76883">
        <ele>67.72421</ele>
        <time>2021-07-11T14:10:25Z</time>
      </trkpt>
      <trkpt lat="37.80468" lon="-8.76981">
        <ele>65.61224</ele>
        <time>2021-07-11T14:10:36Z</time>
      </trkpt>
      <trkpt lat="37.80356" lon="-8.77057">
        <ele>65.35427</ele>
        <time>2021-07-11T14:10:47Z</time>
      </trkpt>
      <trkpt lat="37.80238" lon="-8.77138">
        <ele>64.75096</ele>
        <time>2021-07-11T14:10:58Z</time>
      </trkpt>
      <trkpt lat="37.80131" lon="-8.77237">
        <ele>62.08332</ele>
        <time>2021-07-11T14:11:09Z</time>
      </trkpt>
      <trkpt lat="37.80027" lon="-8.77368">
        <ele>57.43989</ele>
        <time>2021-07-11T14:11:20Z</time>
      </trkpt>
      <trkpt lat="37.79981" lon="-8.77583">
        <ele>49.86455</ele>
        <time>2021-07-11T14:11:31Z</time>
      </trkpt>
      <trkpt lat="37.79937" lon="-8.77786">
        <ele>43.11844</ele>
        <time>2021-07-11T14:11:42Z</time>
      </trkpt>
      <trkpt lat="37.79813" lon="-8.77895">
        <ele>46.26773</ele>
        <time>2021-07-11T14:11:53Z</time>
      </trkpt>
      <trkpt lat="37.79647" lon="-8.77946">
        <ele>51.4841</ele>
        <time>2021-07-11T14:12:04Z</time>
      </trkpt>
      <trkpt lat="37.79482" lon="-8.78002">
        <ele>52.96963</ele>
        <time>2021-07-11T14:12:15Z</time>
      </trkpt>
      <trkpt lat="37.79312" lon="-8.78059">
        <ele>53.51028</ele>
        <time>2021-07-11T14:12:26Z</time>
      </trkpt>
      <trkpt lat="37.79159" lon="-8.7811">
        <ele>55.15565</ele>
        <time>2021-07-11T14:12:37Z</time>
      </trkpt>
      <trkpt lat="37.78993" lon="-8.78166">
        <ele>61.60348</ele>
        <time>2021-07-11T14:12:48Z</time>
      </trkpt>
      <trkpt lat="37.78824" lon="-8.78223">
        <ele>61.53085</ele>
        <time>2021-07-11T14:12:59Z</time>
      </trkpt>
      <trkpt lat="37.78653" lon="-8.7828">
        <ele>62.63307</ele>
        <time>2021-07-11T14:13:10Z</time>
      </trkpt>
      <trkpt lat="37.7849" lon="-8.78306">
        <ele>65.05799</ele>
        <time>2021-07-11T14:13:21Z</time>
      </trkpt>
      <trkpt lat="37.78301" lon="-8.78305">
        <ele>62.79587</ele>
        <time>2021-07-11T14:13:32Z</time>
      </trkpt>
      <trkpt lat="37.78131" lon="-8.78309">
        <ele>58.9859</ele>
        <time>2021-07-11T14:13:43Z</time>
      </trkpt>
      <trkpt lat="37.77969" lon="-8.78336">
        <ele>59.91337</ele>
        <time>2021-07-11T14:13:54Z</time>
      </trkpt>
      <trkpt lat="37.77783" lon="-8.7836">
        <ele>63.05989</ele>
        <time>2021-07-11T14:14:05Z</time>
      </trkpt>
      <trkpt lat="37.77599" lon="-8.78385">
        <ele>61.99548</ele>
        <time>2021-07-11T14:14:16Z</time>
      </trkpt>
      <trkpt lat="37.77428" lon="-8.78317">
        <ele>62.43407</ele>
        <time>2021-07-11T14:14:27Z</time>
      </trkpt>
      <trkpt lat="37.77248" lon="-8.78211">
        <ele>64.84347</ele>
        <time>2021-07-11T14:14:38Z</time>
      </trkpt>
      <trkpt lat="37.77043" lon="-8.78094">
        <ele>70.47114</ele>
        <time>2021-07-11T14:14:49Z</time>
      </trkpt>
      <trkpt lat="37.76819" lon="-8.78096">
        <ele>72.13467</ele>
        <time>2021-07-11T14:15:00Z</time>
      </trkpt>
      <trkpt lat="37.7661" lon="-8.78051">
        <ele>71.47879</ele>
        <time>2021-07-11T14:15:11Z</time>
      </trkpt>
      <trkpt lat="37.7649" lon="-8.77836">
        <ele>74.24006</ele>
        <time>2021-07-11T14:15:22Z</time>
      </trkpt>
      <trkpt lat="37.7636" lon="-8.77652">
        <ele>75.25018</ele>
        <time>2021-07-11T14:15:33Z</time>
      </trkpt>
      <trkpt lat="37.76223" lon="-8.77486">
        <ele>76.81664</ele>
        <time>2021-07-11T14:15:44Z</time>
      </trkpt>
      <trkpt lat="37.76087" lon="-8.77316">
        <ele>77.12171</ele>
        <time>2021-07-11T14:15:55Z</time>
      </trkpt>
      <trkpt lat="37.75944" lon="-8.77137">
        <ele>75.20602</ele>
        <time>2021-07-11T14:16:06Z</time>
      </trkpt>
      <trkpt lat="37.75834" lon="-8.76926">
        <ele>72.92176</ele>
        <time>2021-07-11T14:16:17Z</time>
      </trkpt>
      <trkpt lat="37.75719" lon="-8.76726">
        <ele>70.76063</ele>
        <time>2021-07-11T14:16:28Z</time>
      </trkpt>
      <trkpt lat="37.75562" lon="-8.76544">
        <ele>70.85989</ele>
        <time>2021-07-11T14:16:40Z</time>
      </trkpt>
      <trkpt lat="37.75414" lon="-8.76368">
        <ele>67.79548</ele>
        <time>2021-07-11T14:16:51Z</time>
      </trkpt>
      <trkpt lat="37.75274" lon="-8.76206">
        <ele>66.4275</ele>
        <time>2021-07-11T14:17:02Z</time>
      </trkpt>
      <trkpt lat="37.75206" lon="-8.75997">
        <ele>66.29389</ele>
        <time>2021-07-11T14:17:13Z</time>
      </trkpt>
      <trkpt lat="37.75171" lon="-8.75788">
        <ele>64.54099</ele>
        <time>2021-07-11T14:17:24Z</time>
      </trkpt>
      <trkpt lat="37.75108" lon="-8.75705">
        <ele>64.49945</ele>
        <time>2021-07-11T14:17:35Z</time>
      </trkpt>
      <trkpt lat="37.75027" lon="-8.75809">
        <ele>62.30589</ele>
        <time>2021-07-11T14:17:46Z</time>
      </trkpt>
      <trkpt lat="37.74911" lon="-8.75928">
        <ele>61.15261</ele>
        <time>2021-07-11T14:17:57Z</time>
      </trkpt>
      <trkpt lat="37.74779" lon="-8.76033">
        <ele>60.05131</ele>
        <time>2021-07-11T14:18:08Z</time>
      </trkpt>
      <trkpt lat="37.74593" lon="-8.76173">
        <ele>58.55706</ele>
        <time>2021-07-11T14:18:19Z</time>
      </trkpt>
      <trkpt lat="37.74413" lon="-8.76309">
        <ele>58.16098</ele>
        <time>2021-07-11T14:18:30Z</time>
      </trkpt>
      <trkpt lat="37.74268" lon="-8.76419">
        <ele>56.96059</ele>
        <time>2021-07-11T14:18:41Z</time>
      </trkpt>
      <trkpt lat="37.7416" lon="-8.76498">
        <ele>55.85433</ele>
        <time>2021-07-11T14:18:52Z</time>
      </trkpt>
      <trkpt lat="37.74074" lon="-8.76564">
        <ele>56.77333</ele>
        <time>2021-07-11T14:19:03Z</time>
      </trkpt>
      <trkpt lat="37.73992" lon="-8.76598">
        <ele>55.71485</ele>
        <time>2021-07-11T14:19:14Z</time>
      </trkpt>
      <trkpt lat="37.7394" lon="-8.7664">
        <ele>55.75723</ele>
        <time>2021-07-11T14:19:25Z</time>
      </trkpt>
      <trkpt lat="37.73872" lon="-8.76714">
        <ele>54.04022</ele>
        <time>2021-07-11T14:19:36Z</time>
      </trkpt>
      <trkpt lat="37.73803" lon="-8.76766">
        <ele>54.74148</ele>
        <time>2021-07-11T14:19:47Z</time>
      </trkpt>
      <trkpt lat="37.73727" lon="-8.76823">
        <ele>54.83944</ele>
        <time>2021-07-11T14:19:58Z</time>
      </trkpt>
      <trkpt lat="37.73655" lon="-8.76876">
        <ele>56.06108</ele>
        <time>2021-07-11T14:20:09Z</time>
      </trkpt>
      <trkpt lat="37.73569" lon="-8.76953">
        <ele>57.60644</ele>
        <time>2021-07-11T14:20:20Z</time>
      </trkpt>
      <trkpt lat="37.73462" lon="-8.77065">
        <ele>52.17186</ele>
        <time>2021-07-11T14:20:31Z</time>
      </trkpt>
      <trkpt lat="37.7337" lon="-8.77131">
        <ele>47.78486</ele>
        <time>2021-07-11T14:20:42Z</time>
      </trkpt>
      <trkpt lat="37.73332" lon="-8.77221">
        <ele>45.26647</ele>
        <time>2021-07-11T14:20:53Z</time>
      </trkpt>
      <trkpt lat="37.7325" lon="-8.77312">
        <ele>43.08024</ele>
        <time>2021-07-11T14:21:04Z</time>
      </trkpt>
      <trkpt lat="37.73157" lon="-8.77408">
        <ele>40.16414</ele>
        <time>2021-07-11T14:21:15Z</time>
      </trkpt>
      <trkpt lat="37.73089" lon="-8.77489">
        <ele>38.06682</ele>
        <time>2021-07-11T14:21:26Z</time>
      </trkpt>
      <trkpt lat="37.73037" lon="-8.77541">
        <ele>39.19329</ele>
        <time>2021-07-11T14:21:37Z</time>
      </trkpt>
      <trkpt lat="37.72986" lon="-8.77595">
        <ele>41.78007</ele>
        <time>2021-07-11T14:21:48Z</time>
      </trkpt>
      <trkpt lat="37.72923" lon="-8.77664">
        <ele>39.79965</ele>
        <time>2021-07-11T14:21:59Z</time>
      </trkpt>
      <trkpt lat="37.72866" lon="-8.77726">
        <ele>39.92169</ele>
        <time>2021-07-11T14:22:10Z</time>
      </trkpt>
      <trkpt lat="37.72815" lon="-8.77782">
        <ele>40.83098</ele>
        <time>2021-07-11T14:22:21Z</time>
      </trkpt>
      <trkpt lat="37.72772" lon="-8.77829">
        <ele>42.47806</ele>
        <time>2021-07-11T14:22:32Z</time>
      </trkpt>
      <trkpt lat="37.72726" lon="-8.77877">
        <ele>40.16407</ele>
        <time>2021-07-11T14:22:43Z</time>
      </trkpt>
      <trkpt lat="37.72695" lon="-8.77914">
        <ele>37.48784</ele>
        <time>2021-07-11T14:22:54Z</time>
      </trkpt>
      <trkpt lat="37.7267" lon="-8.77941">
        <ele>36.97481</ele>
        <time>2021-07-11T14:23:05Z</time>
      </trkpt>
      <trkpt lat="37.72645" lon="-8.77968">
        <ele>34.31015</ele>
        <time>2021-07-11T14:23:16Z</time>
      </trkpt>
      <trkpt lat="37.72615" lon="-8.78002">
        <ele>34.5577</ele>
        <time>2021-07-11T14:23:27Z</time>
      </trkpt>
      <trkpt lat="37.72634" lon="-8.78064">
        <ele>35.57765</ele>
        <time>2021-07-11T14:23:38Z</time>
      </trkpt>
      <trkpt lat="37.72668" lon="-8.78094">
        <ele>33.37825</ele>
        <time>2021-07-11T14:23:49Z</time>
      </trkpt>
      <trkpt lat="37.72729" lon="-8.78093">
        <ele>34.93899</ele>
        <time>2021-07-11T14:24:00Z</time>
      </trkpt>
      <trkpt lat="37.72701" lon="-8.78019">
        <ele>34.85554</ele>
        <time>2021-07-11T14:24:11Z</time>
      </trkpt>
      <trkpt lat="37.72659" lon="-8.7796">
        <ele>36.4239</ele>
        <time>2021-07-11T14:24:22Z</time>
      </trkpt>
      <trkpt lat="37.72656" lon="-8.77957">
        <ele>34.27829</ele>
        <time>2021-07-11T14:24:33Z</time>
      </trkpt>
      <trkpt lat="37.72654" lon="-8.77951">
        <ele>34.54264</ele>
        <time>2021-07-11T14:24:49Z</time>
      </trkpt>
      <trkpt lat="37.72711" lon="-8.77891">
        <ele>34.53873</ele>
        <time>2021-07-11T14:25:00Z</time>
      </trkpt>
      <trkpt lat="37.72766" lon="-8.7783">
        <ele>35.17977</ele>
        <time>2021-07-11T14:25:11Z</time>
      </trkpt>
      <trkpt lat="37.72826" lon="-8.77764">
        <ele>36.2512</ele>
        <time>2021-07-11T14:25:22Z</time>
      </trkpt>
      <trkpt lat="37.72892" lon="-8.77693">
        <ele>38.56415</ele>
        <time>2021-07-11T14:25:33Z</time>
      </trkpt>
      <trkpt lat="37.72965" lon="-8.77615">
        <ele>38.93052</ele>
        <time>2021-07-11T14:25:44Z</time>
      </trkpt>
      <trkpt lat="37.73031" lon="-8.77542">
        <ele>39.72498</ele>
        <time>2021-07-11T14:25:55Z</time>
      </trkpt>
      <trkpt lat="37.73084" lon="-8.77483">
        <ele>43.57682</ele>
        <time>2021-07-11T14:26:06Z</time>
      </trkpt>
      <trkpt lat="37.73189" lon="-8.77365">
        <ele>42.8693</ele>
        <time>2021-07-11T14:26:17Z</time>
      </trkpt>
      <trkpt lat="37.73304" lon="-8.77252">
        <ele>43.10747</ele>
        <time>2021-07-11T14:26:28Z</time>
      </trkpt>
      <trkpt lat="37.7325" lon="-8.77178">
        <ele>36.583</ele>
        <time>2021-07-11T14:26:39Z</time>
      </trkpt>
      <trkpt lat="37.73048" lon="-8.77181">
        <ele>30.34972</ele>
        <time>2021-07-11T14:26:50Z</time>
      </trkpt>
      <trkpt lat="37.72851" lon="-8.77091">
        <ele>24.06807</ele>
        <time>2021-07-11T14:27:01Z</time>
      </trkpt>
      <trkpt lat="37.72671" lon="-8.76992">
        <ele>25.54184</ele>
        <time>2021-07-11T14:27:12Z</time>
      </trkpt>
      <trkpt lat="37.72479" lon="-8.7689">
        <ele>23.91438</ele>
        <time>2021-07-11T14:27:23Z</time>
      </trkpt>
      <trkpt lat="37.72274" lon="-8.76785">
        <ele>31.84078</ele>
        <time>2021-07-11T14:27:34Z</time>
      </trkpt>
      <trkpt lat="37.72071" lon="-8.76708">
        <ele>41.42771</ele>
        <time>2021-07-11T14:27:45Z</time>
      </trkpt>
      <trkpt lat="37.71873" lon="-8.76668">
        <ele>48.44623</ele>
        <time>2021-07-11T14:27:56Z</time>
      </trkpt>
      <trkpt lat="37.71656" lon="-8.76651">
        <ele>53.78465</ele>
        <time>2021-07-11T14:28:07Z</time>
      </trkpt>
      <trkpt lat="37.71428" lon="-8.76672">
        <ele>55.48938</ele>
        <time>2021-07-11T14:28:18Z</time>
      </trkpt>
      <trkpt lat="37.71192" lon="-8.76734">
        <ele>57.09058</ele>
        <time>2021-07-11T14:28:29Z</time>
      </trkpt>
      <trkpt lat="37.70964" lon="-8.76832">
        <ele>58.46992</ele>
        <time>2021-07-11T14:28:40Z</time>
      </trkpt>
      <trkpt lat="37.70732" lon="-8.76936">
        <ele>56.19379</ele>
        <time>2021-07-11T14:28:51Z</time>
      </trkpt>
      <trkpt lat="37.70507" lon="-8.77039">
        <ele>54.56676</ele>
        <time>2021-07-11T14:29:02Z</time>
      </trkpt>
      <trkpt lat="37.70278" lon="-8.77125">
        <ele>53.71388</ele>
        <time>2021-07-11T14:29:13Z</time>
      </trkpt>
      <trkpt lat="37.70046" lon="-8.77078">
        <ele>49.73094</ele>
        <time>2021-07-11T14:29:24Z</time>
      </trkpt>
      <trkpt lat="37.69819" lon="-8.76991">
        <ele>48.83841</ele>
        <time>2021-07-11T14:29:35Z</time>
      </trkpt>
      <trkpt lat="37.69611" lon="-8.76909">
        <ele>45.45443</ele>
        <time>2021-07-11T14:29:46Z</time>
      </trkpt>
      <trkpt lat="37.69357" lon="-8.76809">
        <ele>41.60372</ele>
        <time>2021-07-11T14:29:57Z</time>
      </trkpt>
      <trkpt lat="37.6915" lon="-8.76728">
        <ele>49.00617</ele>
        <time>2021-07-11T14:30:08Z</time>
      </trkpt>
      <trkpt lat="37.68937" lon="-8.76642">
        <ele>50.98252</ele>
        <time>2021-07-11T14:30:19Z</time>
      </trkpt>
      <trkpt lat="37.68717" lon="-8.76557">
        <ele>50.95939</ele>
        <time>2021-07-11T14:30:30Z</time>
      </trkpt>
      <trkpt lat="37.68486" lon="-8.76466">
        <ele>51.44107</ele>
        <time>2021-07-11T14:30:41Z</time>
      </trkpt>
      <trkpt lat="37.68256" lon="-8.76374">
        <ele>51.60131</ele>
        <time>2021-07-11T14:30:52Z</time>
      </trkpt>
      <trkpt lat="37.68011" lon="-8.76278">
        <ele>53.83943</ele>
        <time>2021-07-11T14:31:03Z</time>
      </trkpt>
      <trkpt lat="37.67773" lon="-8.76183">
        <ele>52.06436</ele>
        <time>2021-07-11T14:31:14Z</time>
      </trkpt>
      <trkpt lat="37.67538" lon="-8.7609">
        <ele>52.44881</ele>
        <time>2021-07-11T14:31:25Z</time>
      </trkpt>
      <trkpt lat="37.67304" lon="-8.76004">
        <ele>54.84472</ele>
        <time>2021-07-11T14:31:36Z</time>
      </trkpt>
      <trkpt lat="37.67065" lon="-8.75961">
        <ele>53.11184</ele>
        <time>2021-07-11T14:31:47Z</time>
      </trkpt>
      <trkpt lat="37.66821" lon="-8.75952">
        <ele>51.66887</ele>
        <time>2021-07-11T14:31:58Z</time>
      </trkpt>
      <trkpt lat="37.66577" lon="-8.75954">
        <ele>50.97449</ele>
        <time>2021-07-11T14:32:09Z</time>
      </trkpt>
      <trkpt lat="37.66339" lon="-8.75953">
        <ele>51.68118</ele>
        <time>2021-07-11T14:32:20Z</time>
      </trkpt>
      <trkpt lat="37.661" lon="-8.75952">
        <ele>53.0983</ele>
        <time>2021-07-11T14:32:31Z</time>
      </trkpt>
      <trkpt lat="37.65855" lon="-8.75954">
        <ele>47.79748</ele>
        <time>2021-07-11T14:32:42Z</time>
      </trkpt>
      <trkpt lat="37.65664" lon="-8.75958">
        <ele>48.21794</ele>
        <time>2021-07-11T14:32:53Z</time>
      </trkpt>
      <trkpt lat="37.65547" lon="-8.75975">
        <ele>47.11194</ele>
        <time>2021-07-11T14:33:04Z</time>
      </trkpt>
      <trkpt lat="37.65388" lon="-8.75957">
        <ele>44.65191</ele>
        <time>2021-07-11T14:33:15Z</time>
      </trkpt>
      <trkpt lat="37.65172" lon="-8.7596">
        <ele>49.08992</ele>
        <time>2021-07-11T14:33:26Z</time>
      </trkpt>
      <trkpt lat="37.64968" lon="-8.75962">
        <ele>51.38002</ele>
        <time>2021-07-11T14:33:37Z</time>
      </trkpt>
      <trkpt lat="37.64742" lon="-8.75963">
        <ele>52.02047</ele>
        <time>2021-07-11T14:33:48Z</time>
      </trkpt>
      <trkpt lat="37.64513" lon="-8.75964">
        <ele>49.89248</ele>
        <time>2021-07-11T14:33:59Z</time>
      </trkpt>
      <trkpt lat="37.64264" lon="-8.75946">
        <ele>51.39979</ele>
        <time>2021-07-11T14:34:10Z</time>
      </trkpt>
      <trkpt lat="37.64044" lon="-8.75844">
        <ele>52.73703</ele>
        <time>2021-07-11T14:34:21Z</time>
      </trkpt>
      <trkpt lat="37.63853" lon="-8.75683">
        <ele>52.1374</ele>
        <time>2021-07-11T14:34:32Z</time>
      </trkpt>
      <trkpt lat="37.63687" lon="-8.75478">
        <ele>53.27291</ele>
        <time>2021-07-11T14:34:43Z</time>
      </trkpt>
      <trkpt lat="37.63531" lon="-8.75255">
        <ele>51.42461</ele>
        <time>2021-07-11T14:34:54Z</time>
      </trkpt>
      <trkpt lat="37.63382" lon="-8.75029">
        <ele>57.04357</ele>
        <time>2021-07-11T14:35:05Z</time>
      </trkpt>
      <trkpt lat="37.63229" lon="-8.74802">
        <ele>60.5904</ele>
        <time>2021-07-11T14:35:16Z</time>
      </trkpt>
      <trkpt lat="37.63079" lon="-8.74581">
        <ele>59.83313</ele>
        <time>2021-07-11T14:35:27Z</time>
      </trkpt>
      <trkpt lat="37.62946" lon="-8.74383">
        <ele>62.01626</ele>
        <time>2021-07-11T14:35:38Z</time>
      </trkpt>
      <trkpt lat="37.62798" lon="-8.74164">
        <ele>64.17466</ele>
        <time>2021-07-11T14:35:49Z</time>
      </trkpt>
      <trkpt lat="37.62659" lon="-8.73962">
        <ele>61.17871</ele>
        <time>2021-07-11T14:36:00Z</time>
      </trkpt>
      <trkpt lat="37.62493" lon="-8.73715">
        <ele>67.57025</ele>
        <time>2021-07-11T14:36:11Z</time>
      </trkpt>
      <trkpt lat="37.62326" lon="-8.73467">
        <ele>70.36994</ele>
        <time>2021-07-11T14:36:22Z</time>
      </trkpt>
      <trkpt lat="37.62174" lon="-8.73241">
        <ele>73.06991</ele>
        <time>2021-07-11T14:36:33Z</time>
      </trkpt>
      <trkpt lat="37.62026" lon="-8.73022">
        <ele>76.43601</ele>
        <time>2021-07-11T14:36:44Z</time>
      </trkpt>
      <trkpt lat="37.61896" lon="-8.72835">
        <ele>77.0893</ele>
        <time>2021-07-11T14:36:55Z</time>
      </trkpt>
      <trkpt lat="37.61739" lon="-8.72657">
        <ele>75.17829</ele>
        <time>2021-07-11T14:37:06Z</time>
      </trkpt>
      <trkpt lat="37.61571" lon="-8.72482">
        <ele>70.1212</ele>
        <time>2021-07-11T14:37:17Z</time>
      </trkpt>
      <trkpt lat="37.61453" lon="-8.72412">
        <ele>68.61581</ele>
        <time>2021-07-11T14:37:28Z</time>
      </trkpt>
      <trkpt lat="37.61337" lon="-8.72609">
        <ele>65.67501</ele>
        <time>2021-07-11T14:37:40Z</time>
      </trkpt>
      <trkpt lat="37.61198" lon="-8.72823">
        <ele>63.37738</ele>
        <time>2021-07-11T14:37:51Z</time>
      </trkpt>
      <trkpt lat="37.61068" lon="-8.73027">
        <ele>61.23795</ele>
        <time>2021-07-11T14:38:02Z</time>
      </trkpt>
      <trkpt lat="37.60926" lon="-8.73253">
        <ele>62.79336</ele>
        <time>2021-07-11T14:38:13Z</time>
      </trkpt>
      <trkpt lat="37.60779" lon="-8.73485">
        <ele>64.22918</ele>
        <time>2021-07-11T14:38:24Z</time>
      </trkpt>
      <trkpt lat="37.60631" lon="-8.73717">
        <ele>64.59211</ele>
        <time>2021-07-11T14:38:35Z</time>
      </trkpt>
      <trkpt lat="37.60481" lon="-8.73952">
        <ele>64.43958</ele>
        <time>2021-07-11T14:38:46Z</time>
      </trkpt>
      <trkpt lat="37.60332" lon="-8.74188">
        <ele>63.36098</ele>
        <time>2021-07-11T14:38:57Z</time>
      </trkpt>
      <trkpt lat="37.60198" lon="-8.74398">
        <ele>59.84108</ele>
        <time>2021-07-11T14:39:08Z</time>
      </trkpt>
      <trkpt lat="37.60111" lon="-8.74579">
        <ele>59.54462</ele>
        <time>2021-07-11T14:39:19Z</time>
      </trkpt>
      <trkpt lat="37.60006" lon="-8.74831">
        <ele>62.86238</ele>
        <time>2021-07-11T14:39:30Z</time>
      </trkpt>
      <trkpt lat="37.59894" lon="-8.75099">
        <ele>66.60619</ele>
        <time>2021-07-11T14:39:41Z</time>
      </trkpt>
      <trkpt lat="37.59793" lon="-8.75343">
        <ele>69.80547</ele>
        <time>2021-07-11T14:39:52Z</time>
      </trkpt>
      <trkpt lat="37.59681" lon="-8.75611">
        <ele>71.73995</ele>
        <time>2021-07-11T14:40:03Z</time>
      </trkpt>
      <trkpt lat="37.59559" lon="-8.75904">
        <ele>70.3368</ele>
        <time>2021-07-11T14:40:14Z</time>
      </trkpt>
      <trkpt lat="37.5945" lon="-8.76175">
        <ele>75.86362</ele>
        <time>2021-07-11T14:40:25Z</time>
      </trkpt>
      <trkpt lat="37.59361" lon="-8.76422">
        <ele>77.3691</ele>
        <time>2021-07-11T14:40:36Z</time>
      </trkpt>
      <trkpt lat="37.59506" lon="-8.76634">
        <ele>77.08846</ele>
        <time>2021-07-11T14:40:47Z</time>
      </trkpt>
      <trkpt lat="37.59675" lon="-8.76834">
        <ele>74.15634</ele>
        <time>2021-07-11T14:40:58Z</time>
      </trkpt>
      <trkpt lat="37.59812" lon="-8.76993">
        <ele>72.94162</ele>
        <time>2021-07-11T14:41:09Z</time>
      </trkpt>
      <trkpt lat="37.59914" lon="-8.77114">
        <ele>73.98573</ele>
        <time>2021-07-11T14:41:20Z</time>
      </trkpt>
      <trkpt lat="37.60018" lon="-8.77317">
        <ele>71.93868</ele>
        <time>2021-07-11T14:41:31Z</time>
      </trkpt>
      <trkpt lat="37.60004" lon="-8.77618">
        <ele>71.00176</ele>
        <time>2021-07-11T14:41:42Z</time>
      </trkpt>
      <trkpt lat="37.59997" lon="-8.77897">
        <ele>69.0387</ele>
        <time>2021-07-11T14:41:53Z</time>
      </trkpt>
      <trkpt lat="37.59988" lon="-8.78209">
        <ele>68.4475</ele>
        <time>2021-07-11T14:42:04Z</time>
      </trkpt>
      <trkpt lat="37.59978" lon="-8.78523">
        <ele>62.51469</ele>
        <time>2021-07-11T14:42:15Z</time>
      </trkpt>
      <trkpt lat="37.59969" lon="-8.78866">
        <ele>58.96902</ele>
        <time>2021-07-11T14:42:26Z</time>
      </trkpt>
      <trkpt lat="37.59958" lon="-8.79172">
        <ele>56.07199</ele>
        <time>2021-07-11T14:42:37Z</time>
      </trkpt>
      <trkpt lat="37.5995" lon="-8.79477">
        <ele>54.55976</ele>
        <time>2021-07-11T14:42:48Z</time>
      </trkpt>
      <trkpt lat="37.59942" lon="-8.79787">
        <ele>51.88497</ele>
        <time>2021-07-11T14:42:59Z</time>
      </trkpt>
      <trkpt lat="37.59932" lon="-8.80093">
        <ele>48.74583</ele>
        <time>2021-07-11T14:43:10Z</time>
      </trkpt>
      <trkpt lat="37.59922" lon="-8.80331">
        <ele>47.60337</ele>
        <time>2021-07-11T14:43:21Z</time>
      </trkpt>
      <trkpt lat="37.59883" lon="-8.80523">
        <ele>48.1232</ele>
        <time>2021-07-11T14:43:32Z</time>
      </trkpt>
      <trkpt lat="37.59845" lon="-8.80652">
        <ele>45.62837</ele>
        <time>2021-07-11T14:43:43Z</time>
      </trkpt>
      <trkpt lat="37.5981" lon="-8.80772">
        <ele>44.48779</ele>
        <time>2021-07-11T14:43:54Z</time>
      </trkpt>
      <trkpt lat="37.59788" lon="-8.80907">
        <ele>44.88729</ele>
        <time>2021-07-11T14:44:05Z</time>
      </trkpt>
      <trkpt lat="37.59834" lon="-8.8108">
        <ele>45.16619</ele>
        <time>2021-07-11T14:44:16Z</time>
      </trkpt>
      <trkpt lat="37.59854" lon="-8.8128">
        <ele>46.83703</ele>
        <time>2021-07-11T14:44:27Z</time>
      </trkpt>
      <trkpt lat="37.59861" lon="-8.81488">
        <ele>46.20187</ele>
        <time>2021-07-11T14:44:38Z</time>
      </trkpt>
      <trkpt lat="37.59862" lon="-8.81555">
        <ele>47.0625</ele>
        <time>2021-07-11T14:44:49Z</time>
      </trkpt>
      <trkpt lat="37.598" lon="-8.81584">
        <ele>44.92159</ele>
        <time>2021-07-11T14:45:00Z</time>
      </trkpt>
      <trkpt lat="37.59754" lon="-8.81618">
        <ele>44.65869</ele>
        <time>2021-07-11T14:45:11Z</time>
      </trkpt>
      <trkpt lat="37.59753" lon="-8.81619">
        <ele>44.68899</ele>
        <time>2021-07-11T14:46:11Z</time>
      </trkpt>
      <trkpt lat="37.59754" lon="-8.81618">
        <ele>42.8548</ele>
        <time>2021-07-11T14:47:09Z</time>
      </trkpt>
      <trkpt lat="37.59749" lon="-8.8161">
        <ele>46.11462</ele>
        <time>2021-07-11T14:47:20Z</time>
      </trkpt>
      <trkpt lat="37.59749" lon="-8.8161">
        <ele>50.1084</ele>
        <time>2021-07-11T14:48:19Z</time>
      </trkpt>
      <trkpt lat="37.59752" lon="-8.81612">
        <ele>50.19689</ele>
        <time>2021-07-11T14:49:14Z</time>
      </trkpt>
      <trkpt lat="37.59749" lon="-8.8161">
        <ele>49.99353</ele>
        <time>2021-07-11T14:49:45Z</time>
      </trkpt>
      <trkpt lat="37.59751" lon="-8.81607">
        <ele>49.0175</ele>
        <time>2021-07-11T14:50:44Z</time>
      </trkpt>
      <trkpt lat="37.5975" lon="-8.81606">
        <ele>49.18627</ele>
        <time>2021-07-11T14:51:42Z</time>
      </trkpt>
      <trkpt lat="37.59751" lon="-8.81612">
        <ele>48.89762</ele>
        <time>2021-07-11T14:51:53Z</time>
      </trkpt>
      <trkpt lat="37.59757" lon="-8.81609">
        <ele>48.57941</ele>
        <time>2021-07-11T14:52:14Z</time>
      </trkpt>
      <trkpt lat="37.59777" lon="-8.81598">
        <ele>48.87191</ele>
        <time>2021-07-11T14:52:25Z</time>
      </trkpt>
      <trkpt lat="37.59798" lon="-8.81579">
        <ele>49.11428</ele>
        <time>2021-07-11T14:52:36Z</time>
      </trkpt>
      <trkpt lat="37.59826" lon="-8.8156">
        <ele>51.03713</ele>
        <time>2021-07-11T14:52:47Z</time>
      </trkpt>
      <trkpt lat="37.5986" lon="-8.81526">
        <ele>50.37378</ele>
        <time>2021-07-11T14:52:58Z</time>
      </trkpt>
      <trkpt lat="37.59852" lon="-8.81373">
        <ele>50.00318</ele>
        <time>2021-07-11T14:53:09Z</time>
      </trkpt>
      <trkpt lat="37.59845" lon="-8.81206">
        <ele>48.96841</ele>
        <time>2021-07-11T14:53:20Z</time>
      </trkpt>
      <trkpt lat="37.59824" lon="-8.81061">
        <ele>45.36605</ele>
        <time>2021-07-11T14:53:31Z</time>
      </trkpt>
      <trkpt lat="37.5979" lon="-8.80931">
        <ele>47.40201</ele>
        <time>2021-07-11T14:53:42Z</time>
      </trkpt>
      <trkpt lat="37.5979" lon="-8.8083">
        <ele>47.17566</ele>
        <time>2021-07-11T14:53:53Z</time>
      </trkpt>
      <trkpt lat="37.59819" lon="-8.80725">
        <ele>47.96533</ele>
        <time>2021-07-11T14:54:04Z</time>
      </trkpt>
      <trkpt lat="37.59855" lon="-8.80605">
        <ele>49.13976</ele>
        <time>2021-07-11T14:54:15Z</time>
      </trkpt>
      <trkpt lat="37.59891" lon="-8.80465">
        <ele>49.73636</ele>
        <time>2021-07-11T14:54:26Z</time>
      </trkpt>
      <trkpt lat="37.59923" lon="-8.80265">
        <ele>51.98904</ele>
        <time>2021-07-11T14:54:37Z</time>
      </trkpt>
      <trkpt lat="37.5993" lon="-8.79987">
        <ele>53.13015</ele>
        <time>2021-07-11T14:54:48Z</time>
      </trkpt>
      <trkpt lat="37.59938" lon="-8.79697">
        <ele>54.59495</ele>
        <time>2021-07-11T14:54:59Z</time>
      </trkpt>
      <trkpt lat="37.59946" lon="-8.79416">
        <ele>56.18187</ele>
        <time>2021-07-11T14:55:10Z</time>
      </trkpt>
      <trkpt lat="37.59956" lon="-8.7913">
        <ele>58.78444</ele>
        <time>2021-07-11T14:55:21Z</time>
      </trkpt>
      <trkpt lat="37.59966" lon="-8.78841">
        <ele>59.57835</ele>
        <time>2021-07-11T14:55:32Z</time>
      </trkpt>
      <trkpt lat="37.59975" lon="-8.78551">
        <ele>61.79847</ele>
        <time>2021-07-11T14:55:43Z</time>
      </trkpt>
      <trkpt lat="37.59982" lon="-8.78256">
        <ele>65.52485</ele>
        <time>2021-07-11T14:55:54Z</time>
      </trkpt>
      <trkpt lat="37.59991" lon="-8.77959">
        <ele>67.29911</ele>
        <time>2021-07-11T14:56:05Z</time>
      </trkpt>
      <trkpt lat="37.59999" lon="-8.77659">
        <ele>70.36816</ele>
        <time>2021-07-11T14:56:16Z</time>
      </trkpt>
      <trkpt lat="37.6001" lon="-8.77366">
        <ele>71.94816</ele>
        <time>2021-07-11T14:56:27Z</time>
      </trkpt>
      <trkpt lat="37.59924" lon="-8.77134">
        <ele>72.42346</ele>
        <time>2021-07-11T14:56:38Z</time>
      </trkpt>
      <trkpt lat="37.59748" lon="-8.76927">
        <ele>76.95378</ele>
        <time>2021-07-11T14:56:49Z</time>
      </trkpt>
      <trkpt lat="37.59566" lon="-8.7671">
        <ele>78.25997</ele>
        <time>2021-07-11T14:57:00Z</time>
      </trkpt>
      <trkpt lat="37.59392" lon="-8.76508">
        <ele>78.09383</ele>
        <time>2021-07-11T14:57:11Z</time>
      </trkpt>
      <trkpt lat="37.59399" lon="-8.76277">
        <ele>74.5456</ele>
        <time>2021-07-11T14:57:22Z</time>
      </trkpt>
      <trkpt lat="37.59514" lon="-8.76002">
        <ele>71.37393</ele>
        <time>2021-07-11T14:57:33Z</time>
      </trkpt>
      <trkpt lat="37.59627" lon="-8.75731">
        <ele>68.6528</ele>
        <time>2021-07-11T14:57:44Z</time>
      </trkpt>
      <trkpt lat="37.59741" lon="-8.75459">
        <ele>69.34263</ele>
        <time>2021-07-11T14:57:55Z</time>
      </trkpt>
      <trkpt lat="37.59857" lon="-8.75181">
        <ele>64.64484</ele>
        <time>2021-07-11T14:58:06Z</time>
      </trkpt>
      <trkpt lat="37.59972" lon="-8.74903">
        <ele>62.10115</ele>
        <time>2021-07-11T14:58:17Z</time>
      </trkpt>
      <trkpt lat="37.60083" lon="-8.74635">
        <ele>60.25591</ele>
        <time>2021-07-11T14:58:28Z</time>
      </trkpt>
      <trkpt lat="37.60149" lon="-8.74466">
        <ele>60.15021</ele>
        <time>2021-07-11T14:58:40Z</time>
      </trkpt>
      <trkpt lat="37.60029" lon="-8.7442">
        <ele>61.36505</ele>
        <time>2021-07-11T14:58:51Z</time>
      </trkpt>
      <trkpt lat="37.5979" lon="-8.74353">
        <ele>63.97104</ele>
        <time>2021-07-11T14:59:02Z</time>
      </trkpt>
      <trkpt lat="37.59553" lon="-8.74284">
        <ele>61.67245</ele>
        <time>2021-07-11T14:59:13Z</time>
      </trkpt>
      <trkpt lat="37.59317" lon="-8.742">
        <ele>58.19348</ele>
        <time>2021-07-11T14:59:24Z</time>
      </trkpt>
      <trkpt lat="37.59093" lon="-8.74118">
        <ele>53.36956</ele>
        <time>2021-07-11T14:59:35Z</time>
      </trkpt>
      <trkpt lat="37.58892" lon="-8.74044">
        <ele>57.40758</ele>
        <time>2021-07-11T14:59:46Z</time>
      </trkpt>
      <trkpt lat="37.58663" lon="-8.73954">
        <ele>59.61901</ele>
        <time>2021-07-11T14:59:57Z</time>
      </trkpt>
      <trkpt lat="37.58426" lon="-8.73896">
        <ele>61.69653</ele>
        <time>2021-07-11T15:00:08Z</time>
      </trkpt>
      <trkpt lat="37.58187" lon="-8.73866">
        <ele>64.12484</ele>
        <time>2021-07-11T15:00:19Z</time>
      </trkpt>
      <trkpt lat="37.57945" lon="-8.7383">
        <ele>66.66821</ele>
        <time>2021-07-11T15:00:30Z</time>
      </trkpt>
      <trkpt lat="37.57697" lon="-8.73796">
        <ele>64.80723</ele>
        <time>2021-07-11T15:00:41Z</time>
      </trkpt>
      <trkpt lat="37.57476" lon="-8.73767">
        <ele>68.34852</ele>
        <time>2021-07-11T15:00:52Z</time>
      </trkpt>
      <trkpt lat="37.57234" lon="-8.73736">
        <ele>73.60011</ele>
        <time>2021-07-11T15:01:03Z</time>
      </trkpt>
      <trkpt lat="37.56989" lon="-8.73702">
        <ele>78.78972</ele>
        <time>2021-07-11T15:01:14Z</time>
      </trkpt>
      <trkpt lat="37.56726" lon="-8.73663">
        <ele>81.67169</ele>
        <time>2021-07-11T15:01:25Z</time>
      </trkpt>
      <trkpt lat="37.56503" lon="-8.73634">
        <ele>84.71175</ele>
        <time>2021-07-11T15:01:36Z</time>
      </trkpt>
      <trkpt lat="37.56284" lon="-8.73604">
        <ele>88.82353</ele>
        <time>2021-07-11T15:01:47Z</time>
      </trkpt>
      <trkpt lat="37.56063" lon="-8.73573">
        <ele>92.15176</ele>
        <time>2021-07-11T15:01:58Z</time>
      </trkpt>
      <trkpt lat="37.55869" lon="-8.73546">
        <ele>94.98087</ele>
        <time>2021-07-11T15:02:09Z</time>
      </trkpt>
      <trkpt lat="37.55664" lon="-8.7352">
        <ele>100.8673</ele>
        <time>2021-07-11T15:02:20Z</time>
      </trkpt>
      <trkpt lat="37.55456" lon="-8.73492">
        <ele>104.2678</ele>
        <time>2021-07-11T15:02:31Z</time>
      </trkpt>
      <trkpt lat="37.55259" lon="-8.73462">
        <ele>104.8613</ele>
        <time>2021-07-11T15:02:42Z</time>
      </trkpt>
      <trkpt lat="37.5508" lon="-8.73438">
        <ele>104.8519</ele>
        <time>2021-07-11T15:02:53Z</time>
      </trkpt>
      <trkpt lat="37.54921" lon="-8.73418">
        <ele>113.4893</ele>
        <time>2021-07-11T15:03:04Z</time>
      </trkpt>
      <trkpt lat="37.54882" lon="-8.73421">
        <ele>116.1032</ele>
        <time>2021-07-11T15:03:15Z</time>
      </trkpt>
      <trkpt lat="37.54853" lon="-8.73398">
        <ele>116.5741</ele>
        <time>2021-07-11T15:03:26Z</time>
      </trkpt>
      <trkpt lat="37.5475" lon="-8.73263">
        <ele>121.9227</ele>
        <time>2021-07-11T15:03:37Z</time>
      </trkpt>
      <trkpt lat="37.54606" lon="-8.73067">
        <ele>122.8202</ele>
        <time>2021-07-11T15:03:48Z</time>
      </trkpt>
      <trkpt lat="37.54438" lon="-8.72839">
        <ele>114.245</ele>
        <time>2021-07-11T15:03:59Z</time>
      </trkpt>
      <trkpt lat="37.54266" lon="-8.72611">
        <ele>106.431</ele>
        <time>2021-07-11T15:04:10Z</time>
      </trkpt>
      <trkpt lat="37.54093" lon="-8.72379">
        <ele>107.6824</ele>
        <time>2021-07-11T15:04:21Z</time>
      </trkpt>
      <trkpt lat="37.53917" lon="-8.72172">
        <ele>114.463</ele>
        <time>2021-07-11T15:04:32Z</time>
      </trkpt>
      <trkpt lat="37.53731" lon="-8.72044">
        <ele>123.032</ele>
        <time>2021-07-11T15:04:43Z</time>
      </trkpt>
      <trkpt lat="37.53561" lon="-8.71922">
        <ele>125.2301</ele>
        <time>2021-07-11T15:04:54Z</time>
      </trkpt>
      <trkpt lat="37.53405" lon="-8.71813">
        <ele>129.34</ele>
        <time>2021-07-11T15:05:05Z</time>
      </trkpt>
      <trkpt lat="37.53248" lon="-8.71728">
        <ele>129.8877</ele>
        <time>2021-07-11T15:05:16Z</time>
      </trkpt>
      <trkpt lat="37.53166" lon="-8.71696">
        <ele>134.2103</ele>
        <time>2021-07-11T15:05:27Z</time>
      </trkpt>
      <trkpt lat="37.53031" lon="-8.71629">
        <ele>141.0068</ele>
        <time>2021-07-11T15:05:38Z</time>
      </trkpt>
      <trkpt lat="37.52861" lon="-8.71543">
        <ele>142.9586</ele>
        <time>2021-07-11T15:05:49Z</time>
      </trkpt>
      <trkpt lat="37.5268" lon="-8.71451">
        <ele>149.3135</ele>
        <time>2021-07-11T15:06:00Z</time>
      </trkpt>
      <trkpt lat="37.52508" lon="-8.71366">
        <ele>156.8107</ele>
        <time>2021-07-11T15:06:11Z</time>
      </trkpt>
      <trkpt lat="37.52329" lon="-8.71271">
        <ele>160.8979</ele>
        <time>2021-07-11T15:06:22Z</time>
      </trkpt>
      <trkpt lat="37.52142" lon="-8.71176">
        <ele>164.5672</ele>
        <time>2021-07-11T15:06:33Z</time>
      </trkpt>
      <trkpt lat="37.51973" lon="-8.71067">
        <ele>167.5943</ele>
        <time>2021-07-11T15:06:44Z</time>
      </trkpt>
      <trkpt lat="37.51853" lon="-8.70963">
        <ele>161.2357</ele>
        <time>2021-07-11T15:06:55Z</time>
      </trkpt>
      <trkpt lat="37.51762" lon="-8.70884">
        <ele>157.8768</ele>
        <time>2021-07-11T15:07:06Z</time>
      </trkpt>
      <trkpt lat="37.517" lon="-8.70896">
        <ele>154.1348</ele>
        <time>2021-07-11T15:07:17Z</time>
      </trkpt>
      <trkpt lat="37.5163" lon="-8.70967">
        <ele>152.3088</ele>
        <time>2021-07-11T15:07:28Z</time>
      </trkpt>
      <trkpt lat="37.51622" lon="-8.7097">
        <ele>153.5932</ele>
        <time>2021-07-11T15:07:39Z</time>
      </trkpt>
      <trkpt lat="37.51599" lon="-8.70988">
        <ele>155.2804</ele>
        <time>2021-07-11T15:07:50Z</time>
      </trkpt>
      <trkpt lat="37.51496" lon="-8.71062">
        <ele>159.1828</ele>
        <time>2021-07-11T15:08:01Z</time>
      </trkpt>
      <trkpt lat="37.51367" lon="-8.71163">
        <ele>165.8478</ele>
        <time>2021-07-11T15:08:12Z</time>
      </trkpt>
      <trkpt lat="37.5125" lon="-8.71292">
        <ele>171.8963</ele>
        <time>2021-07-11T15:08:23Z</time>
      </trkpt>
      <trkpt lat="37.51191" lon="-8.71464">
        <ele>176.0832</ele>
        <time>2021-07-11T15:08:34Z</time>
      </trkpt>
      <trkpt lat="37.51112" lon="-8.71643">
        <ele>183.6231</ele>
        <time>2021-07-11T15:08:45Z</time>
      </trkpt>
      <trkpt lat="37.51036" lon="-8.71749">
        <ele>186.016</ele>
        <time>2021-07-11T15:08:56Z</time>
      </trkpt>
      <trkpt lat="37.50943" lon="-8.71826">
        <ele>188.947</ele>
        <time>2021-07-11T15:09:07Z</time>
      </trkpt>
      <trkpt lat="37.50833" lon="-8.71964">
        <ele>189.8243</ele>
        <time>2021-07-11T15:09:18Z</time>
      </trkpt>
      <trkpt lat="37.50677" lon="-8.71977">
        <ele>191.9419</ele>
        <time>2021-07-11T15:09:29Z</time>
      </trkpt>
      <trkpt lat="37.50538" lon="-8.7205">
        <ele>199.6752</ele>
        <time>2021-07-11T15:09:40Z</time>
      </trkpt>
      <trkpt lat="37.50422" lon="-8.72054">
        <ele>201.658</ele>
        <time>2021-07-11T15:09:51Z</time>
      </trkpt>
      <trkpt lat="37.50311" lon="-8.71932">
        <ele>202.4354</ele>
        <time>2021-07-11T15:10:02Z</time>
      </trkpt>
      <trkpt lat="37.50175" lon="-8.71827">
        <ele>201.8744</ele>
        <time>2021-07-11T15:10:13Z</time>
      </trkpt>
      <trkpt lat="37.50016" lon="-8.71833">
        <ele>191.6675</ele>
        <time>2021-07-11T15:10:24Z</time>
      </trkpt>
      <trkpt lat="37.49856" lon="-8.71912">
        <ele>183.4901</ele>
        <time>2021-07-11T15:10:35Z</time>
      </trkpt>
      <trkpt lat="37.49693" lon="-8.71992">
        <ele>175.4274</ele>
        <time>2021-07-11T15:10:46Z</time>
      </trkpt>
      <trkpt lat="37.49558" lon="-8.72107">
        <ele>168.6776</ele>
        <time>2021-07-11T15:10:57Z</time>
      </trkpt>
      <trkpt lat="37.49395" lon="-8.72136">
        <ele>161.5504</ele>
        <time>2021-07-11T15:11:08Z</time>
      </trkpt>
      <trkpt lat="37.49227" lon="-8.72145">
        <ele>156.2939</ele>
        <time>2021-07-11T15:11:20Z</time>
      </trkpt>
      <trkpt lat="37.48986" lon="-8.72228">
        <ele>143.721</ele>
        <time>2021-07-11T15:11:31Z</time>
      </trkpt>
      <trkpt lat="37.48701" lon="-8.72308">
        <ele>135.4238</ele>
        <time>2021-07-11T15:11:42Z</time>
      </trkpt>
      <trkpt lat="37.48516" lon="-8.72193">
        <ele>146.5712</ele>
        <time>2021-07-11T15:11:53Z</time>
      </trkpt>
      <trkpt lat="37.48366" lon="-8.72176">
        <ele>156.4188</ele>
        <time>2021-07-11T15:12:04Z</time>
      </trkpt>
      <trkpt lat="37.48241" lon="-8.7219">
        <ele>163.9101</ele>
        <time>2021-07-11T15:12:15Z</time>
      </trkpt>
      <trkpt lat="37.48159" lon="-8.72313">
        <ele>162.8985</ele>
        <time>2021-07-11T15:12:26Z</time>
      </trkpt>
      <trkpt lat="37.48095" lon="-8.72494">
        <ele>163.6278</ele>
        <time>2021-07-11T15:12:37Z</time>
      </trkpt>
      <trkpt lat="37.48007" lon="-8.72741">
        <ele>161.7506</ele>
        <time>2021-07-11T15:12:48Z</time>
      </trkpt>
      <trkpt lat="37.47912" lon="-8.73004">
        <ele>152.5108</ele>
        <time>2021-07-11T15:12:59Z</time>
      </trkpt>
      <trkpt lat="37.47811" lon="-8.73289">
        <ele>145.1537</ele>
        <time>2021-07-11T15:13:10Z</time>
      </trkpt>
      <trkpt lat="37.47707" lon="-8.73577">
        <ele>140.1046</ele>
        <time>2021-07-11T15:13:21Z</time>
      </trkpt>
      <trkpt lat="37.47603" lon="-8.73869">
        <ele>132.1187</ele>
        <time>2021-07-11T15:13:32Z</time>
      </trkpt>
      <trkpt lat="37.47497" lon="-8.74164">
        <ele>123.1126</ele>
        <time>2021-07-11T15:13:43Z</time>
      </trkpt>
      <trkpt lat="37.47363" lon="-8.74428">
        <ele>120.7757</ele>
        <time>2021-07-11T15:13:54Z</time>
      </trkpt>
      <trkpt lat="37.47159" lon="-8.7462">
        <ele>119.9381</ele>
        <time>2021-07-11T15:14:05Z</time>
      </trkpt>
      <trkpt lat="37.46955" lon="-8.74807">
        <ele>108.5989</ele>
        <time>2021-07-11T15:14:16Z</time>
      </trkpt>
      <trkpt lat="37.4677" lon="-8.74978">
        <ele>100.1168</ele>
        <time>2021-07-11T15:14:27Z</time>
      </trkpt>
      <trkpt lat="37.46598" lon="-8.75137">
        <ele>99.53117</ele>
        <time>2021-07-11T15:14:38Z</time>
      </trkpt>
      <trkpt lat="37.46468" lon="-8.75257">
        <ele>94.08832</ele>
        <time>2021-07-11T15:14:49Z</time>
      </trkpt>
      <trkpt lat="37.4628" lon="-8.7543">
        <ele>97.22278</ele>
        <time>2021-07-11T15:15:00Z</time>
      </trkpt>
      <trkpt lat="37.46071" lon="-8.7558">
        <ele>88.31342</ele>
        <time>2021-07-11T15:15:11Z</time>
      </trkpt>
      <trkpt lat="37.4584" lon="-8.75689">
        <ele>85.84423</ele>
        <time>2021-07-11T15:15:22Z</time>
      </trkpt>
      <trkpt lat="37.45617" lon="-8.7579">
        <ele>90.20376</ele>
        <time>2021-07-11T15:15:33Z</time>
      </trkpt>
      <trkpt lat="37.4537" lon="-8.75897">
        <ele>88.70677</ele>
        <time>2021-07-11T15:15:44Z</time>
      </trkpt>
      <trkpt lat="37.451" lon="-8.76019">
        <ele>87.89052</ele>
        <time>2021-07-11T15:15:55Z</time>
      </trkpt>
      <trkpt lat="37.44856" lon="-8.76126">
        <ele>83.17422</ele>
        <time>2021-07-11T15:16:06Z</time>
      </trkpt>
      <trkpt lat="37.44645" lon="-8.76145">
        <ele>80.01468</ele>
        <time>2021-07-11T15:16:17Z</time>
      </trkpt>
      <trkpt lat="37.44493" lon="-8.75947">
        <ele>72.95749</ele>
        <time>2021-07-11T15:16:28Z</time>
      </trkpt>
      <trkpt lat="37.44335" lon="-8.75766">
        <ele>63.54977</ele>
        <time>2021-07-11T15:16:39Z</time>
      </trkpt>
      <trkpt lat="37.44156" lon="-8.75696">
        <ele>52.44965</ele>
        <time>2021-07-11T15:16:50Z</time>
      </trkpt>
      <trkpt lat="37.43946" lon="-8.75671">
        <ele>50.46971</ele>
        <time>2021-07-11T15:17:01Z</time>
      </trkpt>
      <trkpt lat="37.43738" lon="-8.75602">
        <ele>39.55558</ele>
        <time>2021-07-11T15:17:12Z</time>
      </trkpt>
      <trkpt lat="37.43537" lon="-8.75654">
        <ele>30.40135</ele>
        <time>2021-07-11T15:17:23Z</time>
      </trkpt>
      <trkpt lat="37.43442" lon="-8.75797">
        <ele>18.20942</ele>
        <time>2021-07-11T15:17:34Z</time>
      </trkpt>
      <trkpt lat="37.43396" lon="-8.75896">
        <ele>18.34744</ele>
        <time>2021-07-11T15:17:45Z</time>
      </trkpt>
      <trkpt lat="37.43379" lon="-8.75947">
        <ele>19.00406</ele>
        <time>2021-07-11T15:17:56Z</time>
      </trkpt>
      <trkpt lat="37.43405" lon="-8.76133">
        <ele>12.94431</ele>
        <time>2021-07-11T15:18:07Z</time>
      </trkpt>
      <trkpt lat="37.43462" lon="-8.76291">
        <ele>8.398655</ele>
        <time>2021-07-11T15:18:18Z</time>
      </trkpt>
      <trkpt lat="37.43537" lon="-8.76453">
        <ele>5.124542</ele>
        <time>2021-07-11T15:18:29Z</time>
      </trkpt>
      <trkpt lat="37.43398" lon="-8.76597">
        <ele>4.505213</ele>
        <time>2021-07-11T15:18:40Z</time>
      </trkpt>
      <trkpt lat="37.43402" lon="-8.76769">
        <ele>13.43721</ele>
        <time>2021-07-11T15:18:51Z</time>
      </trkpt>
      <trkpt lat="37.43326" lon="-8.76915">
        <ele>23.14939</ele>
        <time>2021-07-11T15:19:02Z</time>
      </trkpt>
      <trkpt lat="37.43169" lon="-8.76779">
        <ele>32.55526</ele>
        <time>2021-07-11T15:19:13Z</time>
      </trkpt>
      <trkpt lat="37.43136" lon="-8.76839">
        <ele>39.75216</ele>
        <time>2021-07-11T15:19:24Z</time>
      </trkpt>
      <trkpt lat="37.43133" lon="-8.76924">
        <ele>48.64321</ele>
        <time>2021-07-11T15:19:35Z</time>
      </trkpt>
      <trkpt lat="37.43013" lon="-8.76812">
        <ele>63.22995</ele>
        <time>2021-07-11T15:19:46Z</time>
      </trkpt>
      <trkpt lat="37.42833" lon="-8.76671">
        <ele>74.96257</ele>
        <time>2021-07-11T15:19:58Z</time>
      </trkpt>
      <trkpt lat="37.42734" lon="-8.76605">
        <ele>81.63753</ele>
        <time>2021-07-11T15:20:09Z</time>
      </trkpt>
      <trkpt lat="37.42629" lon="-8.76609">
        <ele>89.12437</ele>
        <time>2021-07-11T15:20:20Z</time>
      </trkpt>
      <trkpt lat="37.42508" lon="-8.76575">
        <ele>96.04261</ele>
        <time>2021-07-11T15:20:31Z</time>
      </trkpt>
      <trkpt lat="37.42347" lon="-8.76662">
        <ele>100.1658</ele>
        <time>2021-07-11T15:20:42Z</time>
      </trkpt>
      <trkpt lat="37.42166" lon="-8.76735">
        <ele>102.2439</ele>
        <time>2021-07-11T15:20:53Z</time>
      </trkpt>
      <trkpt lat="37.41948" lon="-8.76677">
        <ele>108.2914</ele>
        <time>2021-07-11T15:21:04Z</time>
      </trkpt>
      <trkpt lat="37.41733" lon="-8.7668">
        <ele>109.6001</ele>
        <time>2021-07-11T15:21:15Z</time>
      </trkpt>
      <trkpt lat="37.41511" lon="-8.76719">
        <ele>109.9571</ele>
        <time>2021-07-11T15:21:26Z</time>
      </trkpt>
      <trkpt lat="37.41291" lon="-8.76757">
        <ele>111.4742</ele>
        <time>2021-07-11T15:21:37Z</time>
      </trkpt>
      <trkpt lat="37.41125" lon="-8.76789">
        <ele>118.6429</ele>
        <time>2021-07-11T15:21:48Z</time>
      </trkpt>
      <trkpt lat="37.40976" lon="-8.76847">
        <ele>117.0785</ele>
        <time>2021-07-11T15:21:59Z</time>
      </trkpt>
      <trkpt lat="37.40823" lon="-8.77021">
        <ele>113.78</ele>
        <time>2021-07-11T15:22:10Z</time>
      </trkpt>
      <trkpt lat="37.4066" lon="-8.77208">
        <ele>107.0396</ele>
        <time>2021-07-11T15:22:21Z</time>
      </trkpt>
      <trkpt lat="37.40504" lon="-8.77388">
        <ele>108.1833</ele>
        <time>2021-07-11T15:22:32Z</time>
      </trkpt>
      <trkpt lat="37.40349" lon="-8.77565">
        <ele>110.3647</ele>
        <time>2021-07-11T15:22:43Z</time>
      </trkpt>
      <trkpt lat="37.40182" lon="-8.77751">
        <ele>104.8177</ele>
        <time>2021-07-11T15:22:54Z</time>
      </trkpt>
      <trkpt lat="37.4001" lon="-8.77941">
        <ele>98.628</ele>
        <time>2021-07-11T15:23:05Z</time>
      </trkpt>
      <trkpt lat="37.3987" lon="-8.78089">
        <ele>93.71979</ele>
        <time>2021-07-11T15:23:16Z</time>
      </trkpt>
      <trkpt lat="37.39793" lon="-8.78167">
        <ele>95.25375</ele>
        <time>2021-07-11T15:23:27Z</time>
      </trkpt>
      <trkpt lat="37.39707" lon="-8.78237">
        <ele>97.42302</ele>
        <time>2021-07-11T15:23:38Z</time>
      </trkpt>
      <trkpt lat="37.3958" lon="-8.78342">
        <ele>100.9308</ele>
        <time>2021-07-11T15:23:49Z</time>
      </trkpt>
      <trkpt lat="37.39472" lon="-8.78429">
        <ele>101.2462</ele>
        <time>2021-07-11T15:24:00Z</time>
      </trkpt>
      <trkpt lat="37.39359" lon="-8.78521">
        <ele>102.9872</ele>
        <time>2021-07-11T15:24:11Z</time>
      </trkpt>
      <trkpt lat="37.39228" lon="-8.78624">
        <ele>102.6595</ele>
        <time>2021-07-11T15:24:22Z</time>
      </trkpt>
      <trkpt lat="37.39089" lon="-8.78735">
        <ele>99.64576</ele>
        <time>2021-07-11T15:24:33Z</time>
      </trkpt>
      <trkpt lat="37.38935" lon="-8.78862">
        <ele>98.42661</ele>
        <time>2021-07-11T15:24:44Z</time>
      </trkpt>
      <trkpt lat="37.38768" lon="-8.78993">
        <ele>94.12392</ele>
        <time>2021-07-11T15:24:55Z</time>
      </trkpt>
      <trkpt lat="37.38577" lon="-8.79146">
        <ele>91.7445</ele>
        <time>2021-07-11T15:25:06Z</time>
      </trkpt>
      <trkpt lat="37.38378" lon="-8.79303">
        <ele>89.69297</ele>
        <time>2021-07-11T15:25:17Z</time>
      </trkpt>
      <trkpt lat="37.3819" lon="-8.79454">
        <ele>90.10398</ele>
        <time>2021-07-11T15:25:28Z</time>
      </trkpt>
      <trkpt lat="37.38" lon="-8.79606">
        <ele>88.3437</ele>
        <time>2021-07-11T15:25:39Z</time>
      </trkpt>
      <trkpt lat="37.37799" lon="-8.79762">
        <ele>87.50261</ele>
        <time>2021-07-11T15:25:50Z</time>
      </trkpt>
      <trkpt lat="37.37644" lon="-8.79886">
        <ele>88.19788</ele>
        <time>2021-07-11T15:26:01Z</time>
      </trkpt>
      <trkpt lat="37.37501" lon="-8.79927">
        <ele>85.85986</ele>
        <time>2021-07-11T15:26:12Z</time>
      </trkpt>
      <trkpt lat="37.37386" lon="-8.7995">
        <ele>88.66548</ele>
        <time>2021-07-11T15:26:23Z</time>
      </trkpt>
      <trkpt lat="37.37269" lon="-8.79971">
        <ele>91.30357</ele>
        <time>2021-07-11T15:26:34Z</time>
      </trkpt>
      <trkpt lat="37.3718" lon="-8.79988">
        <ele>90.8015</ele>
        <time>2021-07-11T15:26:45Z</time>
      </trkpt>
      <trkpt lat="37.37172" lon="-8.79987">
        <ele>89.19949</ele>
        <time>2021-07-11T15:26:56Z</time>
      </trkpt>
      <trkpt lat="37.37176" lon="-8.79982">
        <ele>88.89708</ele>
        <time>2021-07-11T15:27:10Z</time>
      </trkpt>
      <trkpt lat="37.37276" lon="-8.79954">
        <ele>90.12548</ele>
        <time>2021-07-11T15:27:21Z</time>
      </trkpt>
      <trkpt lat="37.37391" lon="-8.79938">
        <ele>88.42306</ele>
        <time>2021-07-11T15:27:32Z</time>
      </trkpt>
      <trkpt lat="37.37487" lon="-8.79922">
        <ele>89.22531</ele>
        <time>2021-07-11T15:27:43Z</time>
      </trkpt>
      <trkpt lat="37.37537" lon="-8.79964">
        <ele>87.47893</ele>
        <time>2021-07-11T15:27:54Z</time>
      </trkpt>
      <trkpt lat="37.37544" lon="-8.79978">
        <ele>86.70233</ele>
        <time>2021-07-11T15:28:05Z</time>
      </trkpt>
      <trkpt lat="37.37544" lon="-8.79978">
        <ele>85.92112</ele>
        <time>2021-07-11T15:29:04Z</time>
      </trkpt>
      <trkpt lat="37.37543" lon="-8.79977">
        <ele>86.8666</ele>
        <time>2021-07-11T15:30:02Z</time>
      </trkpt>
      <trkpt lat="37.37543" lon="-8.79977">
        <ele>87.84404</ele>
        <time>2021-07-11T15:31:00Z</time>
      </trkpt>
      <trkpt lat="37.37539" lon="-8.79981">
        <ele>89.16285</ele>
        <time>2021-07-11T15:31:11Z</time>
      </trkpt>
      <trkpt lat="37.37537" lon="-8.79976">
        <ele>89.20745</ele>
        <time>2021-07-11T15:32:06Z</time>
      </trkpt>
      <trkpt lat="37.37534" lon="-8.79973">
        <ele>90.62101</ele>
        <time>2021-07-11T15:32:19Z</time>
      </trkpt>
      <trkpt lat="37.37531" lon="-8.79978">
        <ele>88.22337</ele>
        <time>2021-07-11T15:32:30Z</time>
      </trkpt>
      <trkpt lat="37.37527" lon="-8.79982">
        <ele>89.21665</ele>
        <time>2021-07-11T15:32:41Z</time>
      </trkpt>
      <trkpt lat="37.37524" lon="-8.79982">
        <ele>87.42726</ele>
        <time>2021-07-11T15:32:57Z</time>
      </trkpt>
      <trkpt lat="37.37522" lon="-8.79986">
        <ele>89.52697</ele>
        <time>2021-07-11T15:33:08Z</time>
      </trkpt>
      <trkpt lat="37.37524" lon="-8.79982">
        <ele>89.41422</ele>
        <time>2021-07-11T15:33:56Z</time>
      </trkpt>
      <trkpt lat="37.37525" lon="-8.79978">
        <ele>89.45532</ele>
        <time>2021-07-11T15:34:08Z</time>
      </trkpt>
      <trkpt lat="37.37523" lon="-8.79974">
        <ele>89.39527</ele>
        <time>2021-07-11T15:34:43Z</time>
      </trkpt>
      <trkpt lat="37.37524" lon="-8.79973">
        <ele>89.45545</ele>
        <time>2021-07-11T15:35:42Z</time>
      </trkpt>
      <trkpt lat="37.37524" lon="-8.79978">
        <ele>89.50207</ele>
        <time>2021-07-11T15:36:06Z</time>
      </trkpt>
      <trkpt lat="37.37519" lon="-8.79984">
        <ele>89.67328</ele>
        <time>2021-07-11T15:36:17Z</time>
      </trkpt>
      <trkpt lat="37.3752" lon="-8.79988">
        <ele>92.72463</ele>
        <time>2021-07-11T15:36:36Z</time>
      </trkpt>
      <trkpt lat="37.37523" lon="-8.79991">
        <ele>87.66476</ele>
        <time>2021-07-11T15:37:22Z</time>
      </trkpt>
      <trkpt lat="37.3752" lon="-8.79989">
        <ele>88.8517</ele>
        <time>2021-07-11T15:37:42Z</time>
      </trkpt>
      <trkpt lat="37.37527" lon="-8.79995">
        <ele>88.90162</ele>
        <time>2021-07-11T15:37:53Z</time>
      </trkpt>
      <trkpt lat="37.37521" lon="-8.79989">
        <ele>88.9788</ele>
        <time>2021-07-11T15:38:04Z</time>
      </trkpt>
      <trkpt lat="37.37527" lon="-8.79995">
        <ele>87.22302</ele>
        <time>2021-07-11T15:38:15Z</time>
      </trkpt>
      <trkpt lat="37.37528" lon="-8.79992">
        <ele>89.42664</ele>
        <time>2021-07-11T15:39:14Z</time>
      </trkpt>
      <trkpt lat="37.37529" lon="-8.79992">
        <ele>89.0311</ele>
        <time>2021-07-11T15:40:12Z</time>
      </trkpt>
      <trkpt lat="37.37527" lon="-8.7999">
        <ele>89.03494</ele>
        <time>2021-07-11T15:41:10Z</time>
      </trkpt>
      <trkpt lat="37.37527" lon="-8.79992">
        <ele>89.23904</ele>
        <time>2021-07-11T15:42:09Z</time>
      </trkpt>
      <trkpt lat="37.37528" lon="-8.79993">
        <ele>88.78161</ele>
        <time>2021-07-11T15:43:07Z</time>
      </trkpt>
      <trkpt lat="37.37527" lon="-8.79993">
        <ele>89.18478</ele>
        <time>2021-07-11T15:44:06Z</time>
      </trkpt>
      <trkpt lat="37.37527" lon="-8.79993">
        <ele>89.16645</ele>
        <time>2021-07-11T15:45:05Z</time>
      </trkpt>
      <trkpt lat="37.37527" lon="-8.79993">
        <ele>89.16645</ele>
        <time>2021-07-11T15:46:04Z</time>
      </trkpt>
      <trkpt lat="37.37527" lon="-8.79992">
        <ele>88.76329</ele>
        <time>2021-07-11T15:47:03Z</time>
      </trkpt>
      <trkpt lat="37.37527" lon="-8.79992">
        <ele>88.76329</ele>
        <time>2021-07-11T15:48:02Z</time>
      </trkpt>
      <trkpt lat="37.37527" lon="-8.79992">
        <ele>88.76329</ele>
        <time>2021-07-11T15:49:01Z</time>
      </trkpt>
      <trkpt lat="37.37527" lon="-8.79993">
        <ele>89.26767</ele>
        <time>2021-07-11T15:50:00Z</time>
      </trkpt>
      <trkpt lat="37.37527" lon="-8.79992">
        <ele>89.19638</ele>
        <time>2021-07-11T15:50:59Z</time>
      </trkpt>
      <trkpt lat="37.37527" lon="-8.79992">
        <ele>89.19638</ele>
        <time>2021-07-11T15:51:58Z</time>
      </trkpt>
      <trkpt lat="37.37527" lon="-8.79991">
        <ele>89.20659</ele>
        <time>2021-07-11T15:52:57Z</time>
      </trkpt>
      <trkpt lat="37.37527" lon="-8.79992">
        <ele>89.24074</ele>
        <time>2021-07-11T15:53:56Z</time>
      </trkpt>
      <trkpt lat="37.37527" lon="-8.79991">
        <ele>89.24137</ele>
        <time>2021-07-11T15:54:55Z</time>
      </trkpt>
      <trkpt lat="37.37527" lon="-8.79992">
        <ele>89.08158</ele>
        <time>2021-07-11T15:55:54Z</time>
      </trkpt>
      <trkpt lat="37.37529" lon="-8.79993">
        <ele>89.44942</ele>
        <time>2021-07-11T15:56:53Z</time>
      </trkpt>
      <trkpt lat="37.37529" lon="-8.79993">
        <ele>89.44942</ele>
        <time>2021-07-11T15:57:52Z</time>
      </trkpt>
      <trkpt lat="37.37529" lon="-8.79993">
        <ele>89.45019</ele>
        <time>2021-07-11T15:58:51Z</time>
      </trkpt>
      <trkpt lat="37.37527" lon="-8.79992">
        <ele>89.231</ele>
        <time>2021-07-11T15:59:50Z</time>
      </trkpt>
      <trkpt lat="37.37528" lon="-8.79992">
        <ele>88.70237</ele>
        <time>2021-07-11T16:00:49Z</time>
      </trkpt>
      <trkpt lat="37.37527" lon="-8.79992">
        <ele>89.11935</ele>
        <time>2021-07-11T16:01:48Z</time>
      </trkpt>
      <trkpt lat="37.37527" lon="-8.79992">
        <ele>89.11935</ele>
        <time>2021-07-11T16:02:47Z</time>
      </trkpt>
      <trkpt lat="37.37526" lon="-8.79993">
        <ele>89.34158</ele>
        <time>2021-07-11T16:03:46Z</time>
      </trkpt>
      <trkpt lat="37.37531" lon="-8.79991">
        <ele>89.82068</ele>
        <time>2021-07-11T16:04:10Z</time>
      </trkpt>
      <trkpt lat="37.37532" lon="-8.79979">
        <ele>89.89104</ele>
        <time>2021-07-11T16:04:21Z</time>
      </trkpt>
      <trkpt lat="37.3754" lon="-8.79984">
        <ele>89.5462</ele>
        <time>2021-07-11T16:04:32Z</time>
      </trkpt>
      <trkpt lat="37.3754" lon="-8.79981">
        <ele>89.22025</ele>
        <time>2021-07-11T16:05:30Z</time>
      </trkpt>
      <trkpt lat="37.37541" lon="-8.79982">
        <ele>89.17463</ele>
        <time>2021-07-11T16:06:30Z</time>
      </trkpt>
      <trkpt lat="37.37542" lon="-8.79982">
        <ele>90.06756</ele>
        <time>2021-07-11T16:07:29Z</time>
      </trkpt>
      <trkpt lat="37.37542" lon="-8.79983">
        <ele>89.22998</ele>
        <time>2021-07-11T16:08:28Z</time>
      </trkpt>
      <trkpt lat="37.37524" lon="-8.79953">
        <ele>88.38102</ele>
        <time>2021-07-11T16:08:39Z</time>
      </trkpt>
      <trkpt lat="37.37497" lon="-8.79929">
        <ele>88.81607</ele>
        <time>2021-07-11T16:08:50Z</time>
      </trkpt>
      <trkpt lat="37.37376" lon="-8.79949">
        <ele>88.91233</ele>
        <time>2021-07-11T16:09:01Z</time>
      </trkpt>
      <trkpt lat="37.37241" lon="-8.79975">
        <ele>91.37239</ele>
        <time>2021-07-11T16:09:12Z</time>
      </trkpt>
      <trkpt lat="37.37104" lon="-8.79997">
        <ele>91.70064</ele>
        <time>2021-07-11T16:09:23Z</time>
      </trkpt>
      <trkpt lat="37.37008" lon="-8.80011">
        <ele>93.85098</ele>
        <time>2021-07-11T16:09:34Z</time>
      </trkpt>
      <trkpt lat="37.36876" lon="-8.80039">
        <ele>93.29284</ele>
        <time>2021-07-11T16:09:45Z</time>
      </trkpt>
      <trkpt lat="37.36738" lon="-8.80062">
        <ele>96.81019</ele>
        <time>2021-07-11T16:09:56Z</time>
      </trkpt>
      <trkpt lat="37.36606" lon="-8.8008">
        <ele>98.60402</ele>
        <time>2021-07-11T16:10:07Z</time>
      </trkpt>
      <trkpt lat="37.36434" lon="-8.80077">
        <ele>99.70336</ele>
        <time>2021-07-11T16:10:18Z</time>
      </trkpt>
      <trkpt lat="37.36274" lon="-8.80073">
        <ele>100.4463</ele>
        <time>2021-07-11T16:10:29Z</time>
      </trkpt>
      <trkpt lat="37.36107" lon="-8.80073">
        <ele>101.4297</ele>
        <time>2021-07-11T16:10:40Z</time>
      </trkpt>
      <trkpt lat="37.35923" lon="-8.80071">
        <ele>103.1115</ele>
        <time>2021-07-11T16:10:51Z</time>
      </trkpt>
      <trkpt lat="37.35732" lon="-8.80065">
        <ele>105.4054</ele>
        <time>2021-07-11T16:11:02Z</time>
      </trkpt>
      <trkpt lat="37.35498" lon="-8.80061">
        <ele>106.4987</ele>
        <time>2021-07-11T16:11:13Z</time>
      </trkpt>
      <trkpt lat="37.35241" lon="-8.80058">
        <ele>107.0605</ele>
        <time>2021-07-11T16:11:24Z</time>
      </trkpt>
      <trkpt lat="37.35008" lon="-8.8007">
        <ele>108.6827</ele>
        <time>2021-07-11T16:11:35Z</time>
      </trkpt>
      <trkpt lat="37.34778" lon="-8.80111">
        <ele>110.7586</ele>
        <time>2021-07-11T16:11:46Z</time>
      </trkpt>
      <trkpt lat="37.34547" lon="-8.80147">
        <ele>112.0635</ele>
        <time>2021-07-11T16:11:57Z</time>
      </trkpt>
      <trkpt lat="37.34326" lon="-8.80181">
        <ele>114.712</ele>
        <time>2021-07-11T16:12:09Z</time>
      </trkpt>
      <trkpt lat="37.34128" lon="-8.80077">
        <ele>117.7276</ele>
        <time>2021-07-11T16:12:20Z</time>
      </trkpt>
      <trkpt lat="37.34079" lon="-8.79827">
        <ele>112.0185</ele>
        <time>2021-07-11T16:12:31Z</time>
      </trkpt>
      <trkpt lat="37.34031" lon="-8.79622">
        <ele>100.7691</ele>
        <time>2021-07-11T16:12:42Z</time>
      </trkpt>
      <trkpt lat="37.33803" lon="-8.7965">
        <ele>86.06635</ele>
        <time>2021-07-11T16:12:53Z</time>
      </trkpt>
      <trkpt lat="37.33572" lon="-8.79536">
        <ele>79.17508</ele>
        <time>2021-07-11T16:13:04Z</time>
      </trkpt>
      <trkpt lat="37.33365" lon="-8.79409">
        <ele>70.48414</ele>
        <time>2021-07-11T16:13:15Z</time>
      </trkpt>
      <trkpt lat="37.33169" lon="-8.79305">
        <ele>62.76139</ele>
        <time>2021-07-11T16:13:26Z</time>
      </trkpt>
      <trkpt lat="37.32973" lon="-8.79388">
        <ele>50.36095</ele>
        <time>2021-07-11T16:13:37Z</time>
      </trkpt>
      <trkpt lat="37.32763" lon="-8.79361">
        <ele>38.51492</ele>
        <time>2021-07-11T16:13:48Z</time>
      </trkpt>
      <trkpt lat="37.32564" lon="-8.79309">
        <ele>26.20511</ele>
        <time>2021-07-11T16:13:59Z</time>
      </trkpt>
      <trkpt lat="37.32479" lon="-8.79508">
        <ele>20.74423</ele>
        <time>2021-07-11T16:14:10Z</time>
      </trkpt>
      <trkpt lat="37.32296" lon="-8.79638">
        <ele>12.33822</ele>
        <time>2021-07-11T16:14:21Z</time>
      </trkpt>
      <trkpt lat="37.32107" lon="-8.79783">
        <ele>8.873832</ele>
        <time>2021-07-11T16:14:32Z</time>
      </trkpt>
      <trkpt lat="37.31939" lon="-8.79854">
        <ele>13.89184</ele>
        <time>2021-07-11T16:14:43Z</time>
      </trkpt>
      <trkpt lat="37.31795" lon="-8.79874">
        <ele>13.1409</ele>
        <time>2021-07-11T16:14:54Z</time>
      </trkpt>
      <trkpt lat="37.31674" lon="-8.7993">
        <ele>12.97633</ele>
        <time>2021-07-11T16:15:05Z</time>
      </trkpt>
      <trkpt lat="37.31675" lon="-8.80109">
        <ele>11.5612</ele>
        <time>2021-07-11T16:15:16Z</time>
      </trkpt>
      <trkpt lat="37.31676" lon="-8.80289">
        <ele>12.21089</ele>
        <time>2021-07-11T16:15:27Z</time>
      </trkpt>
      <trkpt lat="37.31625" lon="-8.80373">
        <ele>13.43332</ele>
        <time>2021-07-11T16:15:38Z</time>
      </trkpt>
      <trkpt lat="37.31501" lon="-8.80375">
        <ele>9.963839</ele>
        <time>2021-07-11T16:15:49Z</time>
      </trkpt>
      <trkpt lat="37.31376" lon="-8.80382">
        <ele>13.09603</ele>
        <time>2021-07-11T16:16:00Z</time>
      </trkpt>
      <trkpt lat="37.31224" lon="-8.8034">
        <ele>12.05797</ele>
        <time>2021-07-11T16:16:11Z</time>
      </trkpt>
      <trkpt lat="37.31083" lon="-8.80254">
        <ele>11.81162</ele>
        <time>2021-07-11T16:16:22Z</time>
      </trkpt>
      <trkpt lat="37.30899" lon="-8.80204">
        <ele>13.30343</ele>
        <time>2021-07-11T16:16:33Z</time>
      </trkpt>
      <trkpt lat="37.30694" lon="-8.80187">
        <ele>12.24026</ele>
        <time>2021-07-11T16:16:44Z</time>
      </trkpt>
      <trkpt lat="37.30477" lon="-8.80121">
        <ele>15.41279</ele>
        <time>2021-07-11T16:16:55Z</time>
      </trkpt>
      <trkpt lat="37.30271" lon="-8.79979">
        <ele>17.93212</ele>
        <time>2021-07-11T16:17:06Z</time>
      </trkpt>
      <trkpt lat="37.30062" lon="-8.79952">
        <ele>19.24286</ele>
        <time>2021-07-11T16:17:17Z</time>
      </trkpt>
      <trkpt lat="37.29879" lon="-8.80014">
        <ele>19.2686</ele>
        <time>2021-07-11T16:17:28Z</time>
      </trkpt>
      <trkpt lat="37.29726" lon="-8.799">
        <ele>19.55974</ele>
        <time>2021-07-11T16:17:39Z</time>
      </trkpt>
      <trkpt lat="37.29586" lon="-8.79749">
        <ele>23.16754</ele>
        <time>2021-07-11T16:17:50Z</time>
      </trkpt>
      <trkpt lat="37.29445" lon="-8.7978">
        <ele>27.45631</ele>
        <time>2021-07-11T16:18:01Z</time>
      </trkpt>
      <trkpt lat="37.29288" lon="-8.79872">
        <ele>24.36041</ele>
        <time>2021-07-11T16:18:12Z</time>
      </trkpt>
      <trkpt lat="37.29099" lon="-8.79855">
        <ele>25.2857</ele>
        <time>2021-07-11T16:18:23Z</time>
      </trkpt>
      <trkpt lat="37.28939" lon="-8.79885">
        <ele>23.35775</ele>
        <time>2021-07-11T16:18:34Z</time>
      </trkpt>
      <trkpt lat="37.28731" lon="-8.79958">
        <ele>32.80284</ele>
        <time>2021-07-11T16:18:45Z</time>
      </trkpt>
      <trkpt lat="37.28509" lon="-8.80056">
        <ele>33.57882</ele>
        <time>2021-07-11T16:18:56Z</time>
      </trkpt>
      <trkpt lat="37.28306" lon="-8.80227">
        <ele>41.26124</ele>
        <time>2021-07-11T16:19:07Z</time>
      </trkpt>
      <trkpt lat="37.28048" lon="-8.8023">
        <ele>55.46612</ele>
        <time>2021-07-11T16:19:18Z</time>
      </trkpt>
      <trkpt lat="37.27811" lon="-8.80293">
        <ele>62.54305</ele>
        <time>2021-07-11T16:19:29Z</time>
      </trkpt>
      <trkpt lat="37.27594" lon="-8.80435">
        <ele>65.2077</ele>
        <time>2021-07-11T16:19:40Z</time>
      </trkpt>
      <trkpt lat="37.27383" lon="-8.80594">
        <ele>69.54349</ele>
        <time>2021-07-11T16:19:51Z</time>
      </trkpt>
      <trkpt lat="37.27173" lon="-8.80751">
        <ele>75.5303</ele>
        <time>2021-07-11T16:20:02Z</time>
      </trkpt>
      <trkpt lat="37.26964" lon="-8.80916">
        <ele>66.90446</ele>
        <time>2021-07-11T16:20:13Z</time>
      </trkpt>
      <trkpt lat="37.26725" lon="-8.80937">
        <ele>75.53815</ele>
        <time>2021-07-11T16:20:24Z</time>
      </trkpt>
      <trkpt lat="37.26504" lon="-8.8093">
        <ele>74.93819</ele>
        <time>2021-07-11T16:20:35Z</time>
      </trkpt>
      <trkpt lat="37.26291" lon="-8.81083">
        <ele>75.8206</ele>
        <time>2021-07-11T16:20:46Z</time>
      </trkpt>
      <trkpt lat="37.26087" lon="-8.81244">
        <ele>78.92764</ele>
        <time>2021-07-11T16:20:57Z</time>
      </trkpt>
      <trkpt lat="37.25866" lon="-8.81319">
        <ele>77.56986</ele>
        <time>2021-07-11T16:21:08Z</time>
      </trkpt>
      <trkpt lat="37.25616" lon="-8.81314">
        <ele>85.48605</ele>
        <time>2021-07-11T16:21:19Z</time>
      </trkpt>
      <trkpt lat="37.25441" lon="-8.81222">
        <ele>103.6762</ele>
        <time>2021-07-11T16:21:30Z</time>
      </trkpt>
      <trkpt lat="37.25298" lon="-8.81126">
        <ele>111.0568</ele>
        <time>2021-07-11T16:21:41Z</time>
      </trkpt>
      <trkpt lat="37.25113" lon="-8.81031">
        <ele>123.0584</ele>
        <time>2021-07-11T16:21:52Z</time>
      </trkpt>
      <trkpt lat="37.24906" lon="-8.80955">
        <ele>135.6963</ele>
        <time>2021-07-11T16:22:03Z</time>
      </trkpt>
      <trkpt lat="37.2469" lon="-8.80831">
        <ele>141.556</ele>
        <time>2021-07-11T16:22:14Z</time>
      </trkpt>
      <trkpt lat="37.24493" lon="-8.80722">
        <ele>151.5175</ele>
        <time>2021-07-11T16:22:25Z</time>
      </trkpt>
      <trkpt lat="37.24351" lon="-8.80519">
        <ele>152.8974</ele>
        <time>2021-07-11T16:22:36Z</time>
      </trkpt>
      <trkpt lat="37.24172" lon="-8.80423">
        <ele>156.3878</ele>
        <time>2021-07-11T16:22:47Z</time>
      </trkpt>
      <trkpt lat="37.24096" lon="-8.80208">
        <ele>163.3499</ele>
        <time>2021-07-11T16:22:58Z</time>
      </trkpt>
      <trkpt lat="37.23885" lon="-8.80084">
        <ele>170.0545</ele>
        <time>2021-07-11T16:23:09Z</time>
      </trkpt>
      <trkpt lat="37.23662" lon="-8.79958">
        <ele>175.6133</ele>
        <time>2021-07-11T16:23:20Z</time>
      </trkpt>
      <trkpt lat="37.2344" lon="-8.79807">
        <ele>173.6428</ele>
        <time>2021-07-11T16:23:31Z</time>
      </trkpt>
      <trkpt lat="37.23238" lon="-8.79667">
        <ele>163.4844</ele>
        <time>2021-07-11T16:23:42Z</time>
      </trkpt>
      <trkpt lat="37.23047" lon="-8.79468">
        <ele>169.7718</ele>
        <time>2021-07-11T16:23:53Z</time>
      </trkpt>
      <trkpt lat="37.22868" lon="-8.79269">
        <ele>174.8501</ele>
        <time>2021-07-11T16:24:04Z</time>
      </trkpt>
      <trkpt lat="37.22706" lon="-8.79047">
        <ele>187.8589</ele>
        <time>2021-07-11T16:24:15Z</time>
      </trkpt>
      <trkpt lat="37.22564" lon="-8.78806">
        <ele>197.1889</ele>
        <time>2021-07-11T16:24:26Z</time>
      </trkpt>
      <trkpt lat="37.22432" lon="-8.78554">
        <ele>203.6027</ele>
        <time>2021-07-11T16:24:37Z</time>
      </trkpt>
      <trkpt lat="37.22361" lon="-8.78294">
        <ele>210.643</ele>
        <time>2021-07-11T16:24:48Z</time>
      </trkpt>
      <trkpt lat="37.22171" lon="-8.78097">
        <ele>223.607</ele>
        <time>2021-07-11T16:24:59Z</time>
      </trkpt>
      <trkpt lat="37.21951" lon="-8.7791">
        <ele>232.6072</ele>
        <time>2021-07-11T16:25:10Z</time>
      </trkpt>
      <trkpt lat="37.21716" lon="-8.7784">
        <ele>230.2944</ele>
        <time>2021-07-11T16:25:21Z</time>
      </trkpt>
      <trkpt lat="37.21482" lon="-8.77741">
        <ele>223.891</ele>
        <time>2021-07-11T16:25:32Z</time>
      </trkpt>
      <trkpt lat="37.21276" lon="-8.77615">
        <ele>205.0641</ele>
        <time>2021-07-11T16:25:43Z</time>
      </trkpt>
      <trkpt lat="37.21157" lon="-8.7742">
        <ele>191.5199</ele>
        <time>2021-07-11T16:25:54Z</time>
      </trkpt>
      <trkpt lat="37.21123" lon="-8.77177">
        <ele>178.3493</ele>
        <time>2021-07-11T16:26:05Z</time>
      </trkpt>
      <trkpt lat="37.20988" lon="-8.7699">
        <ele>164.3815</ele>
        <time>2021-07-11T16:26:16Z</time>
      </trkpt>
      <trkpt lat="37.20857" lon="-8.76891">
        <ele>153.4653</ele>
        <time>2021-07-11T16:26:27Z</time>
      </trkpt>
      <trkpt lat="37.20711" lon="-8.76806">
        <ele>143.434</ele>
        <time>2021-07-11T16:26:38Z</time>
      </trkpt>
      <trkpt lat="37.20627" lon="-8.76588">
        <ele>134.1049</ele>
        <time>2021-07-11T16:26:49Z</time>
      </trkpt>
      <trkpt lat="37.20486" lon="-8.76559">
        <ele>129.8262</ele>
        <time>2021-07-11T16:27:00Z</time>
      </trkpt>
      <trkpt lat="37.20306" lon="-8.76337">
        <ele>114.7275</ele>
        <time>2021-07-11T16:27:11Z</time>
      </trkpt>
      <trkpt lat="37.20177" lon="-8.76102">
        <ele>103.9278</ele>
        <time>2021-07-11T16:27:22Z</time>
      </trkpt>
      <trkpt lat="37.19948" lon="-8.76055">
        <ele>92.44979</ele>
        <time>2021-07-11T16:27:33Z</time>
      </trkpt>
      <trkpt lat="37.19692" lon="-8.76065">
        <ele>78.86285</ele>
        <time>2021-07-11T16:27:44Z</time>
      </trkpt>
      <trkpt lat="37.19459" lon="-8.75958">
        <ele>80.28079</ele>
        <time>2021-07-11T16:27:55Z</time>
      </trkpt>
      <trkpt lat="37.19231" lon="-8.75871">
        <ele>74.8965</ele>
        <time>2021-07-11T16:28:06Z</time>
      </trkpt>
      <trkpt lat="37.19042" lon="-8.75819">
        <ele>75.36446</ele>
        <time>2021-07-11T16:28:17Z</time>
      </trkpt>
      <trkpt lat="37.18932" lon="-8.75933">
        <ele>84.6928</ele>
        <time>2021-07-11T16:28:28Z</time>
      </trkpt>
      <trkpt lat="37.1883" lon="-8.76057">
        <ele>92.76096</ele>
        <time>2021-07-11T16:28:39Z</time>
      </trkpt>
      <trkpt lat="37.18668" lon="-8.76009">
        <ele>97.91203</ele>
        <time>2021-07-11T16:28:50Z</time>
      </trkpt>
      <trkpt lat="37.18458" lon="-8.75915">
        <ele>88.96945</ele>
        <time>2021-07-11T16:29:01Z</time>
      </trkpt>
      <trkpt lat="37.18232" lon="-8.75905">
        <ele>82.14094</ele>
        <time>2021-07-11T16:29:12Z</time>
      </trkpt>
      <trkpt lat="37.1803" lon="-8.75774">
        <ele>76.54024</ele>
        <time>2021-07-11T16:29:23Z</time>
      </trkpt>
      <trkpt lat="37.17882" lon="-8.75594">
        <ele>73.17537</ele>
        <time>2021-07-11T16:29:34Z</time>
      </trkpt>
      <trkpt lat="37.17819" lon="-8.75385">
        <ele>65.90617</ele>
        <time>2021-07-11T16:29:45Z</time>
      </trkpt>
      <trkpt lat="37.17876" lon="-8.75101">
        <ele>61.34578</ele>
        <time>2021-07-11T16:29:56Z</time>
      </trkpt>
      <trkpt lat="37.17705" lon="-8.74946">
        <ele>59.25676</ele>
        <time>2021-07-11T16:30:07Z</time>
      </trkpt>
      <trkpt lat="37.17452" lon="-8.74797">
        <ele>54.23889</ele>
        <time>2021-07-11T16:30:18Z</time>
      </trkpt>
      <trkpt lat="37.17187" lon="-8.74717">
        <ele>47.22478</ele>
        <time>2021-07-11T16:30:29Z</time>
      </trkpt>
      <trkpt lat="37.1693" lon="-8.74695">
        <ele>46.41033</ele>
        <time>2021-07-11T16:30:40Z</time>
      </trkpt>
      <trkpt lat="37.16684" lon="-8.74678">
        <ele>42.15485</ele>
        <time>2021-07-11T16:30:51Z</time>
      </trkpt>
      <trkpt lat="37.16487" lon="-8.74467">
        <ele>36.50607</ele>
        <time>2021-07-11T16:31:02Z</time>
      </trkpt>
      <trkpt lat="37.1632" lon="-8.74321">
        <ele>37.2557</ele>
        <time>2021-07-11T16:31:13Z</time>
      </trkpt>
      <trkpt lat="37.16137" lon="-8.74279">
        <ele>35.05138</ele>
        <time>2021-07-11T16:31:24Z</time>
      </trkpt>
      <trkpt lat="37.15978" lon="-8.74304">
        <ele>36.61848</ele>
        <time>2021-07-11T16:31:35Z</time>
      </trkpt>
      <trkpt lat="37.15827" lon="-8.74283">
        <ele>34.27078</ele>
        <time>2021-07-11T16:31:46Z</time>
      </trkpt>
      <trkpt lat="37.15769" lon="-8.74303">
        <ele>39.34807</ele>
        <time>2021-07-11T16:31:57Z</time>
      </trkpt>
      <trkpt lat="37.15709" lon="-8.74249">
        <ele>40.34363</ele>
        <time>2021-07-11T16:32:08Z</time>
      </trkpt>
      <trkpt lat="37.15572" lon="-8.74057">
        <ele>40.2189</ele>
        <time>2021-07-11T16:32:19Z</time>
      </trkpt>
      <trkpt lat="37.15521" lon="-8.73881">
        <ele>37.3747</ele>
        <time>2021-07-11T16:32:30Z</time>
      </trkpt>
      <trkpt lat="37.15526" lon="-8.73704">
        <ele>33.86769</ele>
        <time>2021-07-11T16:32:41Z</time>
      </trkpt>
      <trkpt lat="37.15534" lon="-8.73515">
        <ele>30.29374</ele>
        <time>2021-07-11T16:32:52Z</time>
      </trkpt>
      <trkpt lat="37.15525" lon="-8.73357">
        <ele>25.93711</ele>
        <time>2021-07-11T16:33:03Z</time>
      </trkpt>
      <trkpt lat="37.15413" lon="-8.73249">
        <ele>25.05455</ele>
        <time>2021-07-11T16:33:14Z</time>
      </trkpt>
      <trkpt lat="37.15446" lon="-8.73061">
        <ele>24.66534</ele>
        <time>2021-07-11T16:33:25Z</time>
      </trkpt>
      <trkpt lat="37.15529" lon="-8.72832">
        <ele>25.03017</ele>
        <time>2021-07-11T16:33:36Z</time>
      </trkpt>
      <trkpt lat="37.15592" lon="-8.72574">
        <ele>19.27242</ele>
        <time>2021-07-11T16:33:47Z</time>
      </trkpt>
      <trkpt lat="37.15509" lon="-8.7228">
        <ele>15.32277</ele>
        <time>2021-07-11T16:33:58Z</time>
      </trkpt>
      <trkpt lat="37.15351" lon="-8.72066">
        <ele>12.4264</ele>
        <time>2021-07-11T16:34:09Z</time>
      </trkpt>
      <trkpt lat="37.15113" lon="-8.71966">
        <ele>14.80819</ele>
        <time>2021-07-11T16:34:20Z</time>
      </trkpt>
      <trkpt lat="37.14925" lon="-8.7172">
        <ele>11.49134</ele>
        <time>2021-07-11T16:34:31Z</time>
      </trkpt>
      <trkpt lat="37.1473" lon="-8.71481">
        <ele>8.998727</ele>
        <time>2021-07-11T16:34:42Z</time>
      </trkpt>
      <trkpt lat="37.1454" lon="-8.71251">
        <ele>10.44362</ele>
        <time>2021-07-11T16:34:53Z</time>
      </trkpt>
      <trkpt lat="37.14362" lon="-8.71024">
        <ele>7.656568</ele>
        <time>2021-07-11T16:35:04Z</time>
      </trkpt>
      <trkpt lat="37.14188" lon="-8.70874">
        <ele>9.527136</ele>
        <time>2021-07-11T16:35:15Z</time>
      </trkpt>
      <trkpt lat="37.14056" lon="-8.70682">
        <ele>6.910769</ele>
        <time>2021-07-11T16:35:26Z</time>
      </trkpt>
      <trkpt lat="37.13924" lon="-8.70493">
        <ele>5.146163</ele>
        <time>2021-07-11T16:35:37Z</time>
      </trkpt>
      <trkpt lat="37.13748" lon="-8.70269">
        <ele>1.84656</ele>
        <time>2021-07-11T16:35:48Z</time>
      </trkpt>
      <trkpt lat="37.13594" lon="-8.70003">
        <ele>0.244707</ele>
        <time>2021-07-11T16:35:59Z</time>
      </trkpt>
      <trkpt lat="37.13395" lon="-8.69829">
        <ele>3.565588</ele>
        <time>2021-07-11T16:36:10Z</time>
      </trkpt>
      <trkpt lat="37.13167" lon="-8.69716">
        <ele>4.388257</ele>
        <time>2021-07-11T16:36:21Z</time>
      </trkpt>
      <trkpt lat="37.12943" lon="-8.6969">
        <ele>4.448208</ele>
        <time>2021-07-11T16:36:32Z</time>
      </trkpt>
      <trkpt lat="37.12762" lon="-8.69498">
        <ele>5.034154</ele>
        <time>2021-07-11T16:36:43Z</time>
      </trkpt>
      <trkpt lat="37.12574" lon="-8.69529">
        <ele>9.515363</ele>
        <time>2021-07-11T16:36:54Z</time>
      </trkpt>
      <trkpt lat="37.12465" lon="-8.69467">
        <ele>13.21554</ele>
        <time>2021-07-11T16:37:05Z</time>
      </trkpt>
      <trkpt lat="37.12324" lon="-8.6944">
        <ele>15.12359</ele>
        <time>2021-07-11T16:37:16Z</time>
      </trkpt>
      <trkpt lat="37.12199" lon="-8.69383">
        <ele>19.40536</ele>
        <time>2021-07-11T16:37:27Z</time>
      </trkpt>
      <trkpt lat="37.12065" lon="-8.69302">
        <ele>16.14778</ele>
        <time>2021-07-11T16:37:38Z</time>
      </trkpt>
      <trkpt lat="37.11876" lon="-8.69188">
        <ele>22.57889</ele>
        <time>2021-07-11T16:37:49Z</time>
      </trkpt>
      <trkpt lat="37.11737" lon="-8.68996">
        <ele>35.61817</ele>
        <time>2021-07-11T16:38:00Z</time>
      </trkpt>
      <trkpt lat="37.11609" lon="-8.68761">
        <ele>30.20241</ele>
        <time>2021-07-11T16:38:11Z</time>
      </trkpt>
      <trkpt lat="37.11473" lon="-8.68644">
        <ele>20.52882</ele>
        <time>2021-07-11T16:38:22Z</time>
      </trkpt>
      <trkpt lat="37.1136" lon="-8.68429">
        <ele>17.74768</ele>
        <time>2021-07-11T16:38:33Z</time>
      </trkpt>
      <trkpt lat="37.11297" lon="-8.68218">
        <ele>4.112523</ele>
        <time>2021-07-11T16:38:44Z</time>
      </trkpt>
      <trkpt lat="37.11195" lon="-8.68149">
        <ele>1.144841</ele>
        <time>2021-07-11T16:38:55Z</time>
      </trkpt>
      <trkpt lat="37.11117" lon="-8.68219">
        <ele>8.395926</ele>
        <time>2021-07-11T16:39:06Z</time>
      </trkpt>
      <trkpt lat="37.11048" lon="-8.68447">
        <ele>11.13392</ele>
        <time>2021-07-11T16:39:17Z</time>
      </trkpt>
      <trkpt lat="37.11019" lon="-8.68689">
        <ele>14.7439</ele>
        <time>2021-07-11T16:39:28Z</time>
      </trkpt>
      <trkpt lat="37.11057" lon="-8.68915">
        <ele>20.16211</ele>
        <time>2021-07-11T16:39:39Z</time>
      </trkpt>
      <trkpt lat="37.11081" lon="-8.69017">
        <ele>24.15252</ele>
        <time>2021-07-11T16:39:50Z</time>
      </trkpt>
      <trkpt lat="37.10978" lon="-8.68994">
        <ele>24.04302</ele>
        <time>2021-07-11T16:40:01Z</time>
      </trkpt>
      <trkpt lat="37.10886" lon="-8.68916">
        <ele>23.61177</ele>
        <time>2021-07-11T16:40:12Z</time>
      </trkpt>
      <trkpt lat="37.10782" lon="-8.68811">
        <ele>27.8748</ele>
        <time>2021-07-11T16:40:23Z</time>
      </trkpt>
      <trkpt lat="37.10715" lon="-8.68754">
        <ele>29.71735</ele>
        <time>2021-07-11T16:40:34Z</time>
      </trkpt>
      <trkpt lat="37.10619" lon="-8.68717">
        <ele>26.19751</ele>
        <time>2021-07-11T16:40:45Z</time>
      </trkpt>
      <trkpt lat="37.10518" lon="-8.68669">
        <ele>34.27063</ele>
        <time>2021-07-11T16:40:56Z</time>
      </trkpt>
      <trkpt lat="37.10425" lon="-8.68588">
        <ele>31.34183</ele>
        <time>2021-07-11T16:41:07Z</time>
      </trkpt>
      <trkpt lat="37.1037" lon="-8.68517">
        <ele>20.51753</ele>
        <time>2021-07-11T16:41:18Z</time>
      </trkpt>
      <trkpt lat="37.10314" lon="-8.68546">
        <ele>22.21545</ele>
        <time>2021-07-11T16:41:29Z</time>
      </trkpt>
      <trkpt lat="37.10221" lon="-8.68676">
        <ele>31.11582</ele>
        <time>2021-07-11T16:41:40Z</time>
      </trkpt>
      <trkpt lat="37.1015" lon="-8.68771">
        <ele>41.97479</ele>
        <time>2021-07-11T16:41:51Z</time>
      </trkpt>
      <trkpt lat="37.10109" lon="-8.68735">
        <ele>41.93953</ele>
        <time>2021-07-11T16:42:02Z</time>
      </trkpt>
      <trkpt lat="37.10087" lon="-8.68608">
        <ele>41.99305</ele>
        <time>2021-07-11T16:42:13Z</time>
      </trkpt>
      <trkpt lat="37.10063" lon="-8.68462">
        <ele>38.6612</ele>
        <time>2021-07-11T16:42:24Z</time>
      </trkpt>
      <trkpt lat="37.10041" lon="-8.68339">
        <ele>31.24016</ele>
        <time>2021-07-11T16:42:35Z</time>
      </trkpt>
      <trkpt lat="37.10021" lon="-8.68235">
        <ele>30.13887</ele>
        <time>2021-07-11T16:42:46Z</time>
      </trkpt>
      <trkpt lat="37.10017" lon="-8.68197">
        <ele>33.31372</ele>
        <time>2021-07-11T16:42:57Z</time>
      </trkpt>
      <trkpt lat="37.09978" lon="-8.68033">
        <ele>41.24952</ele>
        <time>2021-07-11T16:43:08Z</time>
      </trkpt>
      <trkpt lat="37.09852" lon="-8.67927">
        <ele>45.61636</ele>
        <time>2021-07-11T16:43:19Z</time>
      </trkpt>
      <trkpt lat="37.09784" lon="-8.67905">
        <ele>42.72673</ele>
        <time>2021-07-11T16:43:30Z</time>
      </trkpt>
      <trkpt lat="37.09765" lon="-8.68042">
        <ele>44.25537</ele>
        <time>2021-07-11T16:43:41Z</time>
      </trkpt>
      <trkpt lat="37.09768" lon="-8.68149">
        <ele>49.06235</ele>
        <time>2021-07-11T16:43:52Z</time>
      </trkpt>
      <trkpt lat="37.09741" lon="-8.68242">
        <ele>45.30906</ele>
        <time>2021-07-11T16:44:03Z</time>
      </trkpt>
      <trkpt lat="37.09727" lon="-8.68332">
        <ele>42.50465</ele>
        <time>2021-07-11T16:44:14Z</time>
      </trkpt>
      <trkpt lat="37.09688" lon="-8.68455">
        <ele>41.63138</ele>
        <time>2021-07-11T16:44:25Z</time>
      </trkpt>
      <trkpt lat="37.09634" lon="-8.68558">
        <ele>35.03403</ele>
        <time>2021-07-11T16:44:36Z</time>
      </trkpt>
      <trkpt lat="37.09628" lon="-8.68569">
        <ele>35.27628</ele>
        <time>2021-07-11T16:44:47Z</time>
      </trkpt>
      <trkpt lat="37.09626" lon="-8.6857">
        <ele>36.53135</ele>
        <time>2021-07-11T16:45:46Z</time>
      </trkpt>
      <trkpt lat="37.09621" lon="-8.68565">
        <ele>37.13122</ele>
        <time>2021-07-11T16:46:21Z</time>
      </trkpt>
      <trkpt lat="37.0967" lon="-8.68477">
        <ele>42.20592</ele>
        <time>2021-07-11T16:46:32Z</time>
      </trkpt>
      <trkpt lat="37.09723" lon="-8.68348">
        <ele>40.07318</ele>
        <time>2021-07-11T16:46:43Z</time>
      </trkpt>
      <trkpt lat="37.0974" lon="-8.68251">
        <ele>40.35583</ele>
        <time>2021-07-11T16:46:54Z</time>
      </trkpt>
      <trkpt lat="37.09791" lon="-8.68248">
        <ele>41.36153</ele>
        <time>2021-07-11T16:47:05Z</time>
      </trkpt>
      <trkpt lat="37.09853" lon="-8.68228">
        <ele>43.27104</ele>
        <time>2021-07-11T16:47:16Z</time>
      </trkpt>
      <trkpt lat="37.09884" lon="-8.68297">
        <ele>46.60325</ele>
        <time>2021-07-11T16:47:27Z</time>
      </trkpt>
      <trkpt lat="37.09912" lon="-8.6848">
        <ele>54.40046</ele>
        <time>2021-07-11T16:47:38Z</time>
      </trkpt>
      <trkpt lat="37.09907" lon="-8.68656">
        <ele>47.32948</ele>
        <time>2021-07-11T16:47:49Z</time>
      </trkpt>
      <trkpt lat="37.0991" lon="-8.68805">
        <ele>41.9802</ele>
        <time>2021-07-11T16:48:00Z</time>
      </trkpt>
      <trkpt lat="37.10019" lon="-8.68796">
        <ele>39.44783</ele>
        <time>2021-07-11T16:48:11Z</time>
      </trkpt>
      <trkpt lat="37.1011" lon="-8.68759">
        <ele>45.55006</ele>
        <time>2021-07-11T16:48:22Z</time>
      </trkpt>
      <trkpt lat="37.10189" lon="-8.68713">
        <ele>39.38491</ele>
        <time>2021-07-11T16:48:33Z</time>
      </trkpt>
      <trkpt lat="37.1026" lon="-8.68613">
        <ele>27.63826</ele>
        <time>2021-07-11T16:48:44Z</time>
      </trkpt>
      <trkpt lat="37.10332" lon="-8.68511">
        <ele>23.34724</ele>
        <time>2021-07-11T16:48:55Z</time>
      </trkpt>
      <trkpt lat="37.10369" lon="-8.68466">
        <ele>22.78298</ele>
        <time>2021-07-11T16:49:06Z</time>
      </trkpt>
      <trkpt lat="37.10491" lon="-8.68417">
        <ele>17.94221</ele>
        <time>2021-07-11T16:49:17Z</time>
      </trkpt>
      <trkpt lat="37.10621" lon="-8.68387">
        <ele>13.88265</ele>
        <time>2021-07-11T16:49:28Z</time>
      </trkpt>
      <trkpt lat="37.10679" lon="-8.68231">
        <ele>10.57498</ele>
        <time>2021-07-11T16:49:39Z</time>
      </trkpt>
      <trkpt lat="37.10709" lon="-8.6811">
        <ele>7.112971</ele>
        <time>2021-07-11T16:49:50Z</time>
      </trkpt>
      <trkpt lat="37.108" lon="-8.68135">
        <ele>9.068841</ele>
        <time>2021-07-11T16:50:01Z</time>
      </trkpt>
      <trkpt lat="37.10954" lon="-8.68155">
        <ele>18.28761</ele>
        <time>2021-07-11T16:50:12Z</time>
      </trkpt>
      <trkpt lat="37.11066" lon="-8.68244">
        <ele>8.208107</ele>
        <time>2021-07-11T16:50:23Z</time>
      </trkpt>
      <trkpt lat="37.11091" lon="-8.68261">
        <ele>7.383844</ele>
        <time>2021-07-11T16:50:34Z</time>
      </trkpt>
      <trkpt lat="37.11116" lon="-8.68191">
        <ele>5.07913</ele>
        <time>2021-07-11T16:50:45Z</time>
      </trkpt>
      <trkpt lat="37.1111" lon="-8.68106">
        <ele>2.39677</ele>
        <time>2021-07-11T16:50:56Z</time>
      </trkpt>
      <trkpt lat="37.11205" lon="-8.6814">
        <ele>9.416043</ele>
        <time>2021-07-11T16:51:07Z</time>
      </trkpt>
      <trkpt lat="37.11348" lon="-8.6811">
        <ele>7.692358</ele>
        <time>2021-07-11T16:51:18Z</time>
      </trkpt>
      <trkpt lat="37.11422" lon="-8.68032">
        <ele>4.698214</ele>
        <time>2021-07-11T16:51:29Z</time>
      </trkpt>
      <trkpt lat="37.11366" lon="-8.67846">
        <ele>5.561039</ele>
        <time>2021-07-11T16:51:40Z</time>
      </trkpt>
      <trkpt lat="37.11386" lon="-8.67689">
        <ele>2.02461</ele>
        <time>2021-07-11T16:51:51Z</time>
      </trkpt>
      <trkpt lat="37.11438" lon="-8.67593">
        <ele>0.027821</ele>
        <time>2021-07-11T16:52:02Z</time>
      </trkpt>
      <trkpt lat="37.11568" lon="-8.67472">
        <ele>-0.185167</ele>
        <time>2021-07-11T16:52:13Z</time>
      </trkpt>
      <trkpt lat="37.11734" lon="-8.67332">
        <ele>1.120083</ele>
        <time>2021-07-11T16:52:24Z</time>
      </trkpt>
      <trkpt lat="37.1194" lon="-8.67314">
        <ele>2.038917</ele>
        <time>2021-07-11T16:52:35Z</time>
      </trkpt>
      <trkpt lat="37.12144" lon="-8.6731">
        <ele>4.130387</ele>
        <time>2021-07-11T16:52:46Z</time>
      </trkpt>
      <trkpt lat="37.12357" lon="-8.67301">
        <ele>1.641066</ele>
        <time>2021-07-11T16:52:57Z</time>
      </trkpt>
      <trkpt lat="37.12526" lon="-8.67243">
        <ele>0.698739</ele>
        <time>2021-07-11T16:53:08Z</time>
      </trkpt>
      <trkpt lat="37.12701" lon="-8.67122">
        <ele>4.793993</ele>
        <time>2021-07-11T16:53:19Z</time>
      </trkpt>
      <trkpt lat="37.12873" lon="-8.67004">
        <ele>13.27724</ele>
        <time>2021-07-11T16:53:30Z</time>
      </trkpt>
      <trkpt lat="37.13021" lon="-8.66861">
        <ele>14.32185</ele>
        <time>2021-07-11T16:53:41Z</time>
      </trkpt>
      <trkpt lat="37.13121" lon="-8.66745">
        <ele>21.63354</ele>
        <time>2021-07-11T16:53:52Z</time>
      </trkpt>
      <trkpt lat="37.13182" lon="-8.66669">
        <ele>25.74942</ele>
        <time>2021-07-11T16:54:03Z</time>
      </trkpt>
      <trkpt lat="37.13255" lon="-8.66594">
        <ele>21.7156</ele>
        <time>2021-07-11T16:54:14Z</time>
      </trkpt>
      <trkpt lat="37.13388" lon="-8.66453">
        <ele>20.77529</ele>
        <time>2021-07-11T16:54:25Z</time>
      </trkpt>
      <trkpt lat="37.1354" lon="-8.66359">
        <ele>24.59599</ele>
        <time>2021-07-11T16:54:36Z</time>
      </trkpt>
      <trkpt lat="37.13679" lon="-8.66329">
        <ele>23.34167</ele>
        <time>2021-07-11T16:54:47Z</time>
      </trkpt>
      <trkpt lat="37.13838" lon="-8.66311">
        <ele>23.66632</ele>
        <time>2021-07-11T16:54:58Z</time>
      </trkpt>
      <trkpt lat="37.13939" lon="-8.6627">
        <ele>23.57832</ele>
        <time>2021-07-11T16:55:09Z</time>
      </trkpt>
      <trkpt lat="37.14069" lon="-8.66269">
        <ele>24.02964</ele>
        <time>2021-07-11T16:55:20Z</time>
      </trkpt>
      <trkpt lat="37.14239" lon="-8.66222">
        <ele>24.66649</ele>
        <time>2021-07-11T16:55:31Z</time>
      </trkpt>
      <trkpt lat="37.14393" lon="-8.66166">
        <ele>23.65581</ele>
        <time>2021-07-11T16:55:42Z</time>
      </trkpt>
      <trkpt lat="37.1451" lon="-8.66105">
        <ele>23.78883</ele>
        <time>2021-07-11T16:55:53Z</time>
      </trkpt>
      <trkpt lat="37.14607" lon="-8.66047">
        <ele>25.64797</ele>
        <time>2021-07-11T16:56:04Z</time>
      </trkpt>
      <trkpt lat="37.1468" lon="-8.65978">
        <ele>26.68474</ele>
        <time>2021-07-11T16:56:15Z</time>
      </trkpt>
      <trkpt lat="37.14754" lon="-8.65903">
        <ele>23.72437</ele>
        <time>2021-07-11T16:56:26Z</time>
      </trkpt>
      <trkpt lat="37.14827" lon="-8.65828">
        <ele>22.2883</ele>
        <time>2021-07-11T16:56:37Z</time>
      </trkpt>
      <trkpt lat="37.14895" lon="-8.65713">
        <ele>20.88845</ele>
        <time>2021-07-11T16:56:48Z</time>
      </trkpt>
      <trkpt lat="37.14945" lon="-8.65579">
        <ele>21.39979</ele>
        <time>2021-07-11T16:56:59Z</time>
      </trkpt>
      <trkpt lat="37.14992" lon="-8.65429">
        <ele>16.88997</ele>
        <time>2021-07-11T16:57:10Z</time>
      </trkpt>
      <trkpt lat="37.15049" lon="-8.65238">
        <ele>11.82713</ele>
        <time>2021-07-11T16:57:21Z</time>
      </trkpt>
      <trkpt lat="37.15124" lon="-8.65037">
        <ele>5.055037</ele>
        <time>2021-07-11T16:57:32Z</time>
      </trkpt>
      <trkpt lat="37.15248" lon="-8.64844">
        <ele>3.365353</ele>
        <time>2021-07-11T16:57:43Z</time>
      </trkpt>
      <trkpt lat="37.15364" lon="-8.64675">
        <ele>3.315031</ele>
        <time>2021-07-11T16:57:54Z</time>
      </trkpt>
      <trkpt lat="37.15484" lon="-8.64498">
        <ele>1.915247</ele>
        <time>2021-07-11T16:58:05Z</time>
      </trkpt>
      <trkpt lat="37.15594" lon="-8.6433">
        <ele>4.745418</ele>
        <time>2021-07-11T16:58:16Z</time>
      </trkpt>
      <trkpt lat="37.15702" lon="-8.64139">
        <ele>4.348595</ele>
        <time>2021-07-11T16:58:27Z</time>
      </trkpt>
      <trkpt lat="37.15785" lon="-8.63899">
        <ele>5.380294</ele>
        <time>2021-07-11T16:58:38Z</time>
      </trkpt>
      <trkpt lat="37.15845" lon="-8.63642">
        <ele>2.13756</ele>
        <time>2021-07-11T16:58:49Z</time>
      </trkpt>
      <trkpt lat="37.15873" lon="-8.63427">
        <ele>1.541104</ele>
        <time>2021-07-11T16:59:00Z</time>
      </trkpt>
      <trkpt lat="37.15854" lon="-8.6328">
        <ele>3.795124</ele>
        <time>2021-07-11T16:59:11Z</time>
      </trkpt>
      <trkpt lat="37.15809" lon="-8.63127">
        <ele>3.466067</ele>
        <time>2021-07-11T16:59:22Z</time>
      </trkpt>
      <trkpt lat="37.1568" lon="-8.62936">
        <ele>3.222872</ele>
        <time>2021-07-11T16:59:33Z</time>
      </trkpt>
      <trkpt lat="37.15513" lon="-8.628">
        <ele>7.669335</ele>
        <time>2021-07-11T16:59:44Z</time>
      </trkpt>
      <trkpt lat="37.1538" lon="-8.62602">
        <ele>7.545134</ele>
        <time>2021-07-11T16:59:55Z</time>
      </trkpt>
      <trkpt lat="37.15311" lon="-8.62378">
        <ele>6.716075</ele>
        <time>2021-07-11T17:00:06Z</time>
      </trkpt>
      <trkpt lat="37.15254" lon="-8.62142">
        <ele>5.073322</ele>
        <time>2021-07-11T17:00:17Z</time>
      </trkpt>
      <trkpt lat="37.15238" lon="-8.61893">
        <ele>16.40234</ele>
        <time>2021-07-11T17:00:28Z</time>
      </trkpt>
      <trkpt lat="37.15279" lon="-8.61656">
        <ele>18.43254</ele>
        <time>2021-07-11T17:00:39Z</time>
      </trkpt>
      <trkpt lat="37.15345" lon="-8.61481">
        <ele>18.29155</ele>
        <time>2021-07-11T17:00:50Z</time>
      </trkpt>
      <trkpt lat="37.15386" lon="-8.61363">
        <ele>16.90409</ele>
        <time>2021-07-11T17:01:01Z</time>
      </trkpt>
      <trkpt lat="37.15453" lon="-8.61231">
        <ele>16.83442</ele>
        <time>2021-07-11T17:01:12Z</time>
      </trkpt>
      <trkpt lat="37.15529" lon="-8.61028">
        <ele>15.19276</ele>
        <time>2021-07-11T17:01:23Z</time>
      </trkpt>
      <trkpt lat="37.15607" lon="-8.60824">
        <ele>14.88822</ele>
        <time>2021-07-11T17:01:34Z</time>
      </trkpt>
      <trkpt lat="37.15695" lon="-8.60669">
        <ele>13.69443</ele>
        <time>2021-07-11T17:01:45Z</time>
      </trkpt>
      <trkpt lat="37.15802" lon="-8.6051">
        <ele>8.574143</ele>
        <time>2021-07-11T17:01:56Z</time>
      </trkpt>
      <trkpt lat="37.15897" lon="-8.60316">
        <ele>4.934555</ele>
        <time>2021-07-11T17:02:07Z</time>
      </trkpt>
      <trkpt lat="37.15986" lon="-8.60128">
        <ele>9.561411</ele>
        <time>2021-07-11T17:02:18Z</time>
      </trkpt>
      <trkpt lat="37.16076" lon="-8.6004">
        <ele>20.06895</ele>
        <time>2021-07-11T17:02:29Z</time>
      </trkpt>
      <trkpt lat="37.16187" lon="-8.59943">
        <ele>24.04636</ele>
        <time>2021-07-11T17:02:40Z</time>
      </trkpt>
      <trkpt lat="37.16238" lon="-8.59755">
        <ele>22.24743</ele>
        <time>2021-07-11T17:02:51Z</time>
      </trkpt>
      <trkpt lat="37.16202" lon="-8.59512">
        <ele>20.31012</ele>
        <time>2021-07-11T17:03:02Z</time>
      </trkpt>
      <trkpt lat="37.16179" lon="-8.59395">
        <ele>17.76497</ele>
        <time>2021-07-11T17:03:13Z</time>
      </trkpt>
      <trkpt lat="37.16165" lon="-8.59327">
        <ele>16.63498</ele>
        <time>2021-07-11T17:03:24Z</time>
      </trkpt>
      <trkpt lat="37.1615" lon="-8.59126">
        <ele>8.642671</ele>
        <time>2021-07-11T17:03:35Z</time>
      </trkpt>
      <trkpt lat="37.16161" lon="-8.58903">
        <ele>6.326759</ele>
        <time>2021-07-11T17:03:46Z</time>
      </trkpt>
      <trkpt lat="37.16176" lon="-8.58655">
        <ele>3.005595</ele>
        <time>2021-07-11T17:03:57Z</time>
      </trkpt>
      <trkpt lat="37.16192" lon="-8.58419">
        <ele>5.859143</ele>
        <time>2021-07-11T17:04:08Z</time>
      </trkpt>
      <trkpt lat="37.16204" lon="-8.58196">
        <ele>4.249518</ele>
        <time>2021-07-11T17:04:19Z</time>
      </trkpt>
      <trkpt lat="37.16213" lon="-8.58002">
        <ele>4.133888</ele>
        <time>2021-07-11T17:04:30Z</time>
      </trkpt>
      <trkpt lat="37.16195" lon="-8.57816">
        <ele>-1.580567</ele>
        <time>2021-07-11T17:04:41Z</time>
      </trkpt>
      <trkpt lat="37.16184" lon="-8.57679">
        <ele>0.11533</ele>
        <time>2021-07-11T17:04:52Z</time>
      </trkpt>
      <trkpt lat="37.16167" lon="-8.57482">
        <ele>-1.459752</ele>
        <time>2021-07-11T17:05:04Z</time>
      </trkpt>
      <trkpt lat="37.16149" lon="-8.57274">
        <ele>-2.057717</ele>
        <time>2021-07-11T17:05:15Z</time>
      </trkpt>
      <trkpt lat="37.16124" lon="-8.5707">
        <ele>1.223787</ele>
        <time>2021-07-11T17:05:26Z</time>
      </trkpt>
      <trkpt lat="37.16073" lon="-8.56984">
        <ele>-0.095643</ele>
        <time>2021-07-11T17:05:37Z</time>
      </trkpt>
      <trkpt lat="37.15974" lon="-8.57059">
        <ele>-0.629561</ele>
        <time>2021-07-11T17:05:48Z</time>
      </trkpt>
      <trkpt lat="37.15876" lon="-8.57143">
        <ele>-1.206839</ele>
        <time>2021-07-11T17:05:59Z</time>
      </trkpt>
      <trkpt lat="37.15768" lon="-8.57235">
        <ele>0.658866</ele>
        <time>2021-07-11T17:06:10Z</time>
      </trkpt>
      <trkpt lat="37.15636" lon="-8.57361">
        <ele>3.234525</ele>
        <time>2021-07-11T17:06:21Z</time>
      </trkpt>
      <trkpt lat="37.15505" lon="-8.57477">
        <ele>1.97025</ele>
        <time>2021-07-11T17:06:32Z</time>
      </trkpt>
      <trkpt lat="37.15371" lon="-8.57524">
        <ele>0.879058</ele>
        <time>2021-07-11T17:06:43Z</time>
      </trkpt>
      <trkpt lat="37.15221" lon="-8.57615">
        <ele>0.008923</ele>
        <time>2021-07-11T17:06:54Z</time>
      </trkpt>
      <trkpt lat="37.15066" lon="-8.57671">
        <ele>-2.110717</ele>
        <time>2021-07-11T17:07:05Z</time>
      </trkpt>
      <trkpt lat="37.14932" lon="-8.57689">
        <ele>-0.072481</ele>
        <time>2021-07-11T17:07:16Z</time>
      </trkpt>
      <trkpt lat="37.14839" lon="-8.57846">
        <ele>1.097304</ele>
        <time>2021-07-11T17:07:27Z</time>
      </trkpt>
      <trkpt lat="37.1475" lon="-8.57999">
        <ele>1.433718</ele>
        <time>2021-07-11T17:07:38Z</time>
      </trkpt>
      <trkpt lat="37.14717" lon="-8.58148">
        <ele>3.253425</ele>
        <time>2021-07-11T17:07:49Z</time>
      </trkpt>
      <trkpt lat="37.14656" lon="-8.58278">
        <ele>7.146591</ele>
        <time>2021-07-11T17:08:00Z</time>
      </trkpt>
      <trkpt lat="37.14575" lon="-8.58369">
        <ele>11.82587</ele>
        <time>2021-07-11T17:08:11Z</time>
      </trkpt>
      <trkpt lat="37.14481" lon="-8.58477">
        <ele>16.81245</ele>
        <time>2021-07-11T17:08:22Z</time>
      </trkpt>
      <trkpt lat="37.14362" lon="-8.58601">
        <ele>11.58329</ele>
        <time>2021-07-11T17:08:33Z</time>
      </trkpt>
      <trkpt lat="37.14253" lon="-8.5877">
        <ele>5.328862</ele>
        <time>2021-07-11T17:08:44Z</time>
      </trkpt>
      <trkpt lat="37.14095" lon="-8.58895">
        <ele>5.029525</ele>
        <time>2021-07-11T17:08:55Z</time>
      </trkpt>
      <trkpt lat="37.13914" lon="-8.58938">
        <ele>10.78957</ele>
        <time>2021-07-11T17:09:06Z</time>
      </trkpt>
      <trkpt lat="37.13769" lon="-8.58947">
        <ele>20.24912</ele>
        <time>2021-07-11T17:09:17Z</time>
      </trkpt>
      <trkpt lat="37.13627" lon="-8.5902">
        <ele>30.28317</ele>
        <time>2021-07-11T17:09:28Z</time>
      </trkpt>
      <trkpt lat="37.13521" lon="-8.59055">
        <ele>29.46792</ele>
        <time>2021-07-11T17:09:39Z</time>
      </trkpt>
      <trkpt lat="37.13497" lon="-8.59039">
        <ele>28.53372</ele>
        <time>2021-07-11T17:09:50Z</time>
      </trkpt>
      <trkpt lat="37.13494" lon="-8.59034">
        <ele>29.96186</ele>
        <time>2021-07-11T17:10:01Z</time>
      </trkpt>
      <trkpt lat="37.13495" lon="-8.59034">
        <ele>25.81798</ele>
        <time>2021-07-11T17:11:00Z</time>
      </trkpt>
      <trkpt lat="37.13495" lon="-8.59039">
        <ele>29.30053</ele>
        <time>2021-07-11T17:11:20Z</time>
      </trkpt>
      <trkpt lat="37.13495" lon="-8.59034">
        <ele>29.438</ele>
        <time>2021-07-11T17:11:32Z</time>
      </trkpt>
      <trkpt lat="37.13505" lon="-8.59032">
        <ele>29.8827</ele>
        <time>2021-07-11T17:11:43Z</time>
      </trkpt>
      <trkpt lat="37.13504" lon="-8.59037">
        <ele>30.4769</ele>
        <time>2021-07-11T17:11:54Z</time>
      </trkpt>
      <trkpt lat="37.13508" lon="-8.59033">
        <ele>30.17142</ele>
        <time>2021-07-11T17:12:05Z</time>
      </trkpt>
      <trkpt lat="37.13511" lon="-8.59033">
        <ele>29.9592</ele>
        <time>2021-07-11T17:12:27Z</time>
      </trkpt>
      <trkpt lat="37.13505" lon="-8.59043">
        <ele>30.7047</ele>
        <time>2021-07-11T17:12:38Z</time>
      </trkpt>
      <trkpt lat="37.13503" lon="-8.59035">
        <ele>30.35607</ele>
        <time>2021-07-11T17:12:49Z</time>
      </trkpt>
      <trkpt lat="37.13502" lon="-8.59044">
        <ele>30.91953</ele>
        <time>2021-07-11T17:13:00Z</time>
      </trkpt>
      <trkpt lat="37.13507" lon="-8.59041">
        <ele>30.79066</ele>
        <time>2021-07-11T17:13:11Z</time>
      </trkpt>
      <trkpt lat="37.1351" lon="-8.59042">
        <ele>30.86439</ele>
        <time>2021-07-11T17:13:52Z</time>
      </trkpt>
      <trkpt lat="37.1351" lon="-8.5904">
        <ele>31.2959</ele>
        <time>2021-07-11T17:14:52Z</time>
      </trkpt>
      <trkpt lat="37.13506" lon="-8.59041">
        <ele>31.53548</ele>
        <time>2021-07-11T17:15:32Z</time>
      </trkpt>
      <trkpt lat="37.13494" lon="-8.59038">
        <ele>30.12569</ele>
        <time>2021-07-11T17:15:43Z</time>
      </trkpt>
      <trkpt lat="37.1349" lon="-8.59039">
        <ele>28.29933</ele>
        <time>2021-07-11T17:15:54Z</time>
      </trkpt>
      <trkpt lat="37.13488" lon="-8.59036">
        <ele>29.30827</ele>
        <time>2021-07-11T17:16:16Z</time>
      </trkpt>
      <trkpt lat="37.13491" lon="-8.59034">
        <ele>29.77877</ele>
        <time>2021-07-11T17:16:33Z</time>
      </trkpt>
      <trkpt lat="37.13489" lon="-8.59039">
        <ele>31.16242</ele>
        <time>2021-07-11T17:17:00Z</time>
      </trkpt>
      <trkpt lat="37.13492" lon="-8.59034">
        <ele>30.03291</ele>
        <time>2021-07-11T17:17:15Z</time>
      </trkpt>
      <trkpt lat="37.13496" lon="-8.59034">
        <ele>28.01657</ele>
        <time>2021-07-11T17:17:26Z</time>
      </trkpt>
      <trkpt lat="37.135" lon="-8.59031">
        <ele>30.27488</ele>
        <time>2021-07-11T17:17:39Z</time>
      </trkpt>
      <trkpt lat="37.13496" lon="-8.59033">
        <ele>30.7055</ele>
        <time>2021-07-11T17:17:56Z</time>
      </trkpt>
      <trkpt lat="37.13495" lon="-8.59036">
        <ele>29.99905</ele>
        <time>2021-07-11T17:18:56Z</time>
      </trkpt>
      <trkpt lat="37.13492" lon="-8.59038">
        <ele>30.11472</ele>
        <time>2021-07-11T17:19:55Z</time>
      </trkpt>
      <trkpt lat="37.13493" lon="-8.59037">
        <ele>30.0166</ele>
        <time>2021-07-11T17:20:55Z</time>
      </trkpt>
      <trkpt lat="37.13495" lon="-8.59034">
        <ele>30.23849</ele>
        <time>2021-07-11T17:21:55Z</time>
      </trkpt>
      <trkpt lat="37.13494" lon="-8.59038">
        <ele>30.49631</ele>
        <time>2021-07-11T17:22:20Z</time>
      </trkpt>
      <trkpt lat="37.13493" lon="-8.59042">
        <ele>30.19637</ele>
        <time>2021-07-11T17:22:52Z</time>
      </trkpt>
      <trkpt lat="37.13496" lon="-8.59041">
        <ele>29.67064</ele>
        <time>2021-07-11T17:23:25Z</time>
      </trkpt>
      <trkpt lat="37.13493" lon="-8.5904">
        <ele>30.35435</ele>
        <time>2021-07-11T17:24:09Z</time>
      </trkpt>
      <trkpt lat="37.13494" lon="-8.59042">
        <ele>30.20445</ele>
        <time>2021-07-11T17:25:08Z</time>
      </trkpt>
      <trkpt lat="37.13495" lon="-8.5904">
        <ele>30.49254</ele>
        <time>2021-07-11T17:26:08Z</time>
      </trkpt>
      <trkpt lat="37.13492" lon="-8.59039">
        <ele>30.17213</ele>
        <time>2021-07-11T17:26:58Z</time>
      </trkpt>
      <trkpt lat="37.13488" lon="-8.59041">
        <ele>30.21815</ele>
        <time>2021-07-11T17:27:09Z</time>
      </trkpt>
      <trkpt lat="37.13491" lon="-8.59041">
        <ele>29.87863</ele>
        <time>2021-07-11T17:27:43Z</time>
      </trkpt>
      <trkpt lat="37.13495" lon="-8.59041">
        <ele>30.26931</ele>
        <time>2021-07-11T17:28:06Z</time>
      </trkpt>
      <trkpt lat="37.13494" lon="-8.59036">
        <ele>29.73435</ele>
        <time>2021-07-11T17:28:24Z</time>
      </trkpt>
      <trkpt lat="37.13495" lon="-8.5904">
        <ele>30.08133</ele>
        <time>2021-07-11T17:28:45Z</time>
      </trkpt>
      <trkpt lat="37.13491" lon="-8.5904">
        <ele>30.23111</ele>
        <time>2021-07-11T17:28:56Z</time>
      </trkpt>
      <trkpt lat="37.13495" lon="-8.59041">
        <ele>29.31882</ele>
        <time>2021-07-11T17:29:13Z</time>
      </trkpt>
      <trkpt lat="37.13494" lon="-8.59045">
        <ele>30.18653</ele>
        <time>2021-07-11T17:30:12Z</time>
      </trkpt>
      <trkpt lat="37.1349" lon="-8.59045">
        <ele>31.13585</ele>
        <time>2021-07-11T17:30:49Z</time>
      </trkpt>
      <trkpt lat="37.13491" lon="-8.59039">
        <ele>29.79327</ele>
        <time>2021-07-11T17:31:30Z</time>
      </trkpt>
      <trkpt lat="37.13494" lon="-8.59038">
        <ele>29.82765</ele>
        <time>2021-07-11T17:31:53Z</time>
      </trkpt>
      <trkpt lat="37.13497" lon="-8.5904">
        <ele>30.92763</ele>
        <time>2021-07-11T17:32:29Z</time>
      </trkpt>
      <trkpt lat="37.13496" lon="-8.59036">
        <ele>29.92809</ele>
        <time>2021-07-11T17:33:10Z</time>
      </trkpt>
      <trkpt lat="37.13499" lon="-8.59039">
        <ele>31.77096</ele>
        <time>2021-07-11T17:33:46Z</time>
      </trkpt>
      <trkpt lat="37.13497" lon="-8.59044">
        <ele>30.29683</ele>
        <time>2021-07-11T17:34:14Z</time>
      </trkpt>
      <trkpt lat="37.13499" lon="-8.5904">
        <ele>30.7545</ele>
        <time>2021-07-11T17:34:58Z</time>
      </trkpt>
      <trkpt lat="37.135" lon="-8.59044">
        <ele>30.21648</ele>
        <time>2021-07-11T17:35:13Z</time>
      </trkpt>
      <trkpt lat="37.13505" lon="-8.59044">
        <ele>30.75082</ele>
        <time>2021-07-11T17:35:24Z</time>
      </trkpt>
      <trkpt lat="37.13506" lon="-8.59039">
        <ele>31.17215</ele>
        <time>2021-07-11T17:35:49Z</time>
      </trkpt>
      <trkpt lat="37.13506" lon="-8.59034">
        <ele>30.83664</ele>
        <time>2021-07-11T17:36:30Z</time>
      </trkpt>
      <trkpt lat="37.13504" lon="-8.59038">
        <ele>31.12062</ele>
        <time>2021-07-11T17:36:41Z</time>
      </trkpt>
      <trkpt lat="37.13503" lon="-8.59043">
        <ele>31.4596</ele>
        <time>2021-07-11T17:37:06Z</time>
      </trkpt>
      <trkpt lat="37.13503" lon="-8.59038">
        <ele>31.33696</ele>
        <time>2021-07-11T17:37:39Z</time>
      </trkpt>
      <trkpt lat="37.13507" lon="-8.59038">
        <ele>30.50641</ele>
        <time>2021-07-11T17:38:22Z</time>
      </trkpt>
      <trkpt lat="37.13504" lon="-8.59041">
        <ele>31.51728</ele>
        <time>2021-07-11T17:38:33Z</time>
      </trkpt>
      <trkpt lat="37.13505" lon="-8.59037">
        <ele>30.24781</ele>
        <time>2021-07-11T17:39:11Z</time>
      </trkpt>
      <trkpt lat="37.13503" lon="-8.5904">
        <ele>30.10194</ele>
        <time>2021-07-11T17:40:02Z</time>
      </trkpt>
      <trkpt lat="37.13501" lon="-8.59044">
        <ele>30.43778</ele>
        <time>2021-07-11T17:40:54Z</time>
      </trkpt>
      <trkpt lat="37.13501" lon="-8.59047">
        <ele>31.37943</ele>
        <time>2021-07-11T17:41:53Z</time>
      </trkpt>
      <trkpt lat="37.13497" lon="-8.59045">
        <ele>31.22531</ele>
        <time>2021-07-11T17:42:32Z</time>
      </trkpt>
      <trkpt lat="37.13499" lon="-8.59042">
        <ele>32.65499</ele>
        <time>2021-07-11T17:43:08Z</time>
      </trkpt>
      <trkpt lat="37.13497" lon="-8.59045">
        <ele>30.80408</ele>
        <time>2021-07-11T17:43:42Z</time>
      </trkpt>
      <trkpt lat="37.13494" lon="-8.59042">
        <ele>34.73788</ele>
        <time>2021-07-11T17:44:29Z</time>
      </trkpt>
      <trkpt lat="37.1349" lon="-8.59041">
        <ele>30.24331</ele>
        <time>2021-07-11T17:44:52Z</time>
      </trkpt>
      <trkpt lat="37.13495" lon="-8.5904">
        <ele>29.72443</ele>
        <time>2021-07-11T17:45:03Z</time>
      </trkpt>
      <trkpt lat="37.13491" lon="-8.59033">
        <ele>29.83233</ele>
        <time>2021-07-11T17:45:14Z</time>
      </trkpt>
      <trkpt lat="37.13494" lon="-8.59031">
        <ele>29.99877</ele>
        <time>2021-07-11T17:45:51Z</time>
      </trkpt>
      <trkpt lat="37.13491" lon="-8.59027">
        <ele>29.87603</ele>
        <time>2021-07-11T17:46:02Z</time>
      </trkpt>
      <trkpt lat="37.13495" lon="-8.59031">
        <ele>29.96879</ele>
        <time>2021-07-11T17:46:14Z</time>
      </trkpt>
      <trkpt lat="37.13496" lon="-8.59026">
        <ele>30.12581</ele>
        <time>2021-07-11T17:47:09Z</time>
      </trkpt>
      <trkpt lat="37.13492" lon="-8.58986">
        <ele>28.44252</ele>
        <time>2021-07-11T17:47:20Z</time>
      </trkpt>
      <trkpt lat="37.13461" lon="-8.58947">
        <ele>27.83554</ele>
        <time>2021-07-11T17:47:31Z</time>
      </trkpt>
      <trkpt lat="37.13491" lon="-8.58912">
        <ele>30.66463</ele>
        <time>2021-07-11T17:47:42Z</time>
      </trkpt>
      <trkpt lat="37.13535" lon="-8.58894">
        <ele>33.09352</ele>
        <time>2021-07-11T17:47:53Z</time>
      </trkpt>
      <trkpt lat="37.1352" lon="-8.5883">
        <ele>26.76736</ele>
        <time>2021-07-11T17:48:04Z</time>
      </trkpt>
      <trkpt lat="37.13487" lon="-8.58801">
        <ele>24.02684</ele>
        <time>2021-07-11T17:48:15Z</time>
      </trkpt>
      <trkpt lat="37.13453" lon="-8.58752">
        <ele>19.14359</ele>
        <time>2021-07-11T17:48:26Z</time>
      </trkpt>
      <trkpt lat="37.13433" lon="-8.58714">
        <ele>18.48726</ele>
        <time>2021-07-11T17:48:37Z</time>
      </trkpt>
      <trkpt lat="37.13412" lon="-8.5869">
        <ele>15.22488</ele>
        <time>2021-07-11T17:48:48Z</time>
      </trkpt>
      <trkpt lat="37.13396" lon="-8.58695">
        <ele>15.72285</ele>
        <time>2021-07-11T17:48:59Z</time>
      </trkpt>
      <trkpt lat="37.13411" lon="-8.58719">
        <ele>17.04176</ele>
        <time>2021-07-11T17:49:10Z</time>
      </trkpt>
      <trkpt lat="37.13416" lon="-8.58722">
        <ele>16.70064</ele>
        <time>2021-07-11T17:49:21Z</time>
      </trkpt>
      <trkpt lat="37.13422" lon="-8.58722">
        <ele>16.92397</ele>
        <time>2021-07-11T17:49:32Z</time>
      </trkpt>
      <trkpt lat="37.13419" lon="-8.58722">
        <ele>16.78771</ele>
        <time>2021-07-11T17:50:01Z</time>
      </trkpt>
      <trkpt lat="37.13416" lon="-8.58726">
        <ele>18.79828</ele>
        <time>2021-07-11T17:50:12Z</time>
      </trkpt>
      <trkpt lat="37.13413" lon="-8.58734">
        <ele>17.3705</ele>
        <time>2021-07-11T17:50:23Z</time>
      </trkpt>
      <trkpt lat="37.13413" lon="-8.58738">
        <ele>14.52633</ele>
        <time>2021-07-11T17:50:35Z</time>
      </trkpt>
      <trkpt lat="37.13417" lon="-8.58735">
        <ele>13.4721</ele>
        <time>2021-07-11T17:50:46Z</time>
      </trkpt>
      <trkpt lat="37.13413" lon="-8.58733">
        <ele>16.52995</ele>
        <time>2021-07-11T17:51:07Z</time>
      </trkpt>
      <trkpt lat="37.13412" lon="-8.58737">
        <ele>16.60502</ele>
        <time>2021-07-11T17:51:38Z</time>
      </trkpt>
      <trkpt lat="37.13414" lon="-8.58732">
        <ele>16.49234</ele>
        <time>2021-07-11T17:52:06Z</time>
      </trkpt>
      <trkpt lat="37.13412" lon="-8.58729">
        <ele>15.92472</ele>
        <time>2021-07-11T17:52:33Z</time>
      </trkpt>
      <trkpt lat="37.13409" lon="-8.58725">
        <ele>15.77608</ele>
        <time>2021-07-11T17:52:52Z</time>
      </trkpt>
      <trkpt lat="37.13413" lon="-8.58728">
        <ele>13.90644</ele>
        <time>2021-07-11T17:53:06Z</time>
      </trkpt>
      <trkpt lat="37.13418" lon="-8.58732">
        <ele>16.17403</ele>
        <time>2021-07-11T17:53:17Z</time>
      </trkpt>
      <trkpt lat="37.13414" lon="-8.58733">
        <ele>16.76805</ele>
        <time>2021-07-11T17:53:31Z</time>
      </trkpt>
      <trkpt lat="37.13416" lon="-8.58736">
        <ele>16.79915</ele>
        <time>2021-07-11T17:53:48Z</time>
      </trkpt>
      <trkpt lat="37.13416" lon="-8.5873">
        <ele>17.19325</ele>
        <time>2021-07-11T17:54:13Z</time>
      </trkpt>
      <trkpt lat="37.1342" lon="-8.58731">
        <ele>16.82822</ele>
        <time>2021-07-11T17:54:33Z</time>
      </trkpt>
      <trkpt lat="37.13415" lon="-8.58733">
        <ele>16.00005</ele>
        <time>2021-07-11T17:54:44Z</time>
      </trkpt>
      <trkpt lat="37.13413" lon="-8.58736">
        <ele>17.04348</ele>
        <time>2021-07-11T17:54:56Z</time>
      </trkpt>
      <trkpt lat="37.13411" lon="-8.58732">
        <ele>16.37573</ele>
        <time>2021-07-11T17:55:31Z</time>
      </trkpt>
      <trkpt lat="37.13412" lon="-8.58733">
        <ele>16.15582</ele>
        <time>2021-07-11T17:56:29Z</time>
      </trkpt>
      <trkpt lat="37.13416" lon="-8.58734">
        <ele>18.03797</ele>
        <time>2021-07-11T17:56:49Z</time>
      </trkpt>
      <trkpt lat="37.13412" lon="-8.58731">
        <ele>16.63537</ele>
        <time>2021-07-11T17:57:08Z</time>
      </trkpt>
      <trkpt lat="37.13415" lon="-8.5873">
        <ele>16.57305</ele>
        <time>2021-07-11T17:58:06Z</time>
      </trkpt>
      <trkpt lat="37.13414" lon="-8.58734">
        <ele>17.40257</ele>
        <time>2021-07-11T17:58:35Z</time>
      </trkpt>
      <trkpt lat="37.13416" lon="-8.58738">
        <ele>17.01328</ele>
        <time>2021-07-11T17:59:22Z</time>
      </trkpt>
      <trkpt lat="37.13418" lon="-8.58738">
        <ele>17.48691</ele>
        <time>2021-07-11T18:00:21Z</time>
      </trkpt>
      <trkpt lat="37.13418" lon="-8.58738">
        <ele>17.48691</ele>
        <time>2021-07-11T18:01:21Z</time>
      </trkpt>
      <trkpt lat="37.13418" lon="-8.58738">
        <ele>17.48691</ele>
        <time>2021-07-11T18:02:20Z</time>
      </trkpt>
      <trkpt lat="37.13418" lon="-8.58738">
        <ele>17.48691</ele>
        <time>2021-07-11T18:03:19Z</time>
      </trkpt>
      <trkpt lat="37.13418" lon="-8.58738">
        <ele>17.48691</ele>
        <time>2021-07-11T18:04:19Z</time>
      </trkpt>
      <trkpt lat="37.13418" lon="-8.58738">
        <ele>17.48691</ele>
        <time>2021-07-11T18:05:18Z</time>
      </trkpt>
      <trkpt lat="37.13418" lon="-8.58738">
        <ele>17.48691</ele>
        <time>2021-07-11T18:06:18Z</time>
      </trkpt>
      <trkpt lat="37.13418" lon="-8.58738">
        <ele>17.48691</ele>
        <time>2021-07-11T18:07:17Z</time>
      </trkpt>
      <trkpt lat="37.13418" lon="-8.58738">
        <ele>17.48691</ele>
        <time>2021-07-11T18:08:17Z</time>
      </trkpt>
      <trkpt lat="37.13418" lon="-8.58738">
        <ele>17.48691</ele>
        <time>2021-07-11T18:09:16Z</time>
      </trkpt>
      <trkpt lat="37.13418" lon="-8.58738">
        <ele>17.48691</ele>
        <time>2021-07-11T18:10:16Z</time>
      </trkpt>
      <trkpt lat="37.13416" lon="-8.58733">
        <ele>17.60628</ele>
        <time>2021-07-11T18:10:27Z</time>
      </trkpt>
      <trkpt lat="37.13416" lon="-8.58738">
        <ele>16.80379</ele>
        <time>2021-07-11T18:10:48Z</time>
      </trkpt>
      <trkpt lat="37.13416" lon="-8.58738">
        <ele>15.5847</ele>
        <time>2021-07-11T18:11:47Z</time>
      </trkpt>
      <trkpt lat="37.13416" lon="-8.58738">
        <ele>15.5847</ele>
        <time>2021-07-11T18:12:46Z</time>
      </trkpt>
      <trkpt lat="37.13416" lon="-8.58738">
        <ele>15.5847</ele>
        <time>2021-07-11T18:13:45Z</time>
      </trkpt>
      <trkpt lat="37.13416" lon="-8.58738">
        <ele>15.5847</ele>
        <time>2021-07-11T18:14:44Z</time>
      </trkpt>
      <trkpt lat="37.13411" lon="-8.58736">
        <ele>16.93164</ele>
        <time>2021-07-11T18:15:26Z</time>
      </trkpt>
      <trkpt lat="37.13412" lon="-8.58735">
        <ele>16.52111</ele>
        <time>2021-07-11T18:16:26Z</time>
      </trkpt>
      <trkpt lat="37.13412" lon="-8.58735">
        <ele>16.52111</ele>
        <time>2021-07-11T18:17:25Z</time>
      </trkpt>
      <trkpt lat="37.13412" lon="-8.58735">
        <ele>16.52111</ele>
        <time>2021-07-11T18:18:25Z</time>
      </trkpt>
      <trkpt lat="37.13412" lon="-8.58735">
        <ele>16.52111</ele>
        <time>2021-07-11T18:19:24Z</time>
      </trkpt>
      <trkpt lat="37.13414" lon="-8.58738">
        <ele>16.17177</ele>
        <time>2021-07-11T18:20:24Z</time>
      </trkpt>
      <trkpt lat="37.13413" lon="-8.58732">
        <ele>16.30799</ele>
        <time>2021-07-11T18:20:50Z</time>
      </trkpt>
      <trkpt lat="37.13418" lon="-8.58732">
        <ele>15.90201</ele>
        <time>2021-07-11T18:21:01Z</time>
      </trkpt>
      <trkpt lat="37.13413" lon="-8.58737">
        <ele>16.27313</ele>
        <time>2021-07-11T18:21:12Z</time>
      </trkpt>
      <trkpt lat="37.13416" lon="-8.58733">
        <ele>16.45287</ele>
        <time>2021-07-11T18:21:24Z</time>
      </trkpt>
      <trkpt lat="37.13413" lon="-8.58736">
        <ele>14.26661</ele>
        <time>2021-07-11T18:21:48Z</time>
      </trkpt>
      <trkpt lat="37.13416" lon="-8.58733">
        <ele>16.57302</ele>
        <time>2021-07-11T18:22:09Z</time>
      </trkpt>
      <trkpt lat="37.13412" lon="-8.58735">
        <ele>15.99917</ele>
        <time>2021-07-11T18:22:26Z</time>
      </trkpt>
      <trkpt lat="37.13416" lon="-8.58735">
        <ele>17.13346</ele>
        <time>2021-07-11T18:23:05Z</time>
      </trkpt>
      <trkpt lat="37.13414" lon="-8.58731">
        <ele>16.57277</ele>
        <time>2021-07-11T18:23:31Z</time>
      </trkpt>
      <trkpt lat="37.1342" lon="-8.58717">
        <ele>16.48926</ele>
        <time>2021-07-11T18:23:42Z</time>
      </trkpt>
      <trkpt lat="37.13425" lon="-8.58701">
        <ele>16.89898</ele>
        <time>2021-07-11T18:23:53Z</time>
      </trkpt>
      <trkpt lat="37.13429" lon="-8.5869">
        <ele>15.9067</ele>
        <time>2021-07-11T18:24:04Z</time>
      </trkpt>
      <trkpt lat="37.13416" lon="-8.58691">
        <ele>18.38569</ele>
        <time>2021-07-11T18:24:15Z</time>
      </trkpt>
      <trkpt lat="37.13417" lon="-8.58686">
        <ele>10.80512</ele>
        <time>2021-07-11T18:24:33Z</time>
      </trkpt>
      <trkpt lat="37.13419" lon="-8.5868">
        <ele>15.7602</ele>
        <time>2021-07-11T18:24:44Z</time>
      </trkpt>
      <trkpt lat="37.1343" lon="-8.58697">
        <ele>16.31319</ele>
        <time>2021-07-11T18:24:55Z</time>
      </trkpt>
      <trkpt lat="37.13422" lon="-8.58695">
        <ele>16.69061</ele>
        <time>2021-07-11T18:25:06Z</time>
      </trkpt>
      <trkpt lat="37.1342" lon="-8.58689">
        <ele>16.56214</ele>
        <time>2021-07-11T18:25:23Z</time>
      </trkpt>
      <trkpt lat="37.13418" lon="-8.58686">
        <ele>15.88045</ele>
        <time>2021-07-11T18:25:49Z</time>
      </trkpt>
      <trkpt lat="37.13414" lon="-8.58687">
        <ele>15.88282</ele>
        <time>2021-07-11T18:26:49Z</time>
      </trkpt>
      <trkpt lat="37.13415" lon="-8.58685">
        <ele>15.79635</ele>
        <time>2021-07-11T18:27:48Z</time>
      </trkpt>
      <trkpt lat="37.1342" lon="-8.5869">
        <ele>16.28641</ele>
        <time>2021-07-11T18:28:03Z</time>
      </trkpt>
      <trkpt lat="37.13419" lon="-8.58692">
        <ele>16.16653</ele>
        <time>2021-07-11T18:29:02Z</time>
      </trkpt>
      <trkpt lat="37.13418" lon="-8.58688">
        <ele>15.97389</ele>
        <time>2021-07-11T18:29:35Z</time>
      </trkpt>
      <trkpt lat="37.13421" lon="-8.58691">
        <ele>15.80237</ele>
        <time>2021-07-11T18:29:59Z</time>
      </trkpt>
      <trkpt lat="37.13416" lon="-8.58692">
        <ele>15.76111</ele>
        <time>2021-07-11T18:30:35Z</time>
      </trkpt>
      <trkpt lat="37.13418" lon="-8.58696">
        <ele>16.15803</ele>
        <time>2021-07-11T18:31:16Z</time>
      </trkpt>
      <trkpt lat="37.13418" lon="-8.58691">
        <ele>16.48883</ele>
        <time>2021-07-11T18:32:05Z</time>
      </trkpt>
      <trkpt lat="37.1342" lon="-8.58687">
        <ele>19.83208</ele>
        <time>2021-07-11T18:32:22Z</time>
      </trkpt>
      <trkpt lat="37.13424" lon="-8.58686">
        <ele>16.60502</ele>
        <time>2021-07-11T18:32:34Z</time>
      </trkpt>
      <trkpt lat="37.13419" lon="-8.58696">
        <ele>16.44491</ele>
        <time>2021-07-11T18:32:45Z</time>
      </trkpt>
      <trkpt lat="37.13417" lon="-8.587">
        <ele>16.43173</ele>
        <time>2021-07-11T18:32:58Z</time>
      </trkpt>
      <trkpt lat="37.13411" lon="-8.58701">
        <ele>16.28682</ele>
        <time>2021-07-11T18:33:09Z</time>
      </trkpt>
      <trkpt lat="37.1342" lon="-8.58694">
        <ele>16.02232</ele>
        <time>2021-07-11T18:33:20Z</time>
      </trkpt>
      <trkpt lat="37.13428" lon="-8.58695">
        <ele>16.52848</ele>
        <time>2021-07-11T18:33:31Z</time>
      </trkpt>
      <trkpt lat="37.13421" lon="-8.58711">
        <ele>16.97484</ele>
        <time>2021-07-11T18:33:42Z</time>
      </trkpt>
      <trkpt lat="37.13414" lon="-8.58726">
        <ele>17.17566</ele>
        <time>2021-07-11T18:33:53Z</time>
      </trkpt>
      <trkpt lat="37.13413" lon="-8.58735">
        <ele>16.66173</ele>
        <time>2021-07-11T18:34:04Z</time>
      </trkpt>
      <trkpt lat="37.13409" lon="-8.58737">
        <ele>17.85463</ele>
        <time>2021-07-11T18:34:35Z</time>
      </trkpt>
      <trkpt lat="37.13414" lon="-8.5874">
        <ele>19.12877</ele>
        <time>2021-07-11T18:34:46Z</time>
      </trkpt>
      <trkpt lat="37.13414" lon="-8.5874">
        <ele>16.57912</ele>
        <time>2021-07-11T18:35:45Z</time>
      </trkpt>
      <trkpt lat="37.13414" lon="-8.58737">
        <ele>16.42255</ele>
        <time>2021-07-11T18:36:43Z</time>
      </trkpt>
      <trkpt lat="37.13411" lon="-8.58738">
        <ele>16.63025</ele>
        <time>2021-07-11T18:37:07Z</time>
      </trkpt>
      <trkpt lat="37.13408" lon="-8.58742">
        <ele>15.66839</ele>
        <time>2021-07-11T18:37:51Z</time>
      </trkpt>
      <trkpt lat="37.13409" lon="-8.58747">
        <ele>16.3269</ele>
        <time>2021-07-11T18:38:02Z</time>
      </trkpt>
      <trkpt lat="37.13409" lon="-8.58747">
        <ele>16.03145</ele>
        <time>2021-07-11T18:39:01Z</time>
      </trkpt>
      <trkpt lat="37.13411" lon="-8.58751">
        <ele>16.87351</ele>
        <time>2021-07-11T18:39:22Z</time>
      </trkpt>
      <trkpt lat="37.13412" lon="-8.58746">
        <ele>15.72989</ele>
        <time>2021-07-11T18:39:47Z</time>
      </trkpt>
      <trkpt lat="37.13414" lon="-8.58742">
        <ele>17.14399</ele>
        <time>2021-07-11T18:39:58Z</time>
      </trkpt>
      <trkpt lat="37.13415" lon="-8.58737">
        <ele>16.67593</ele>
        <time>2021-07-11T18:40:09Z</time>
      </trkpt>
      <trkpt lat="37.13415" lon="-8.58732">
        <ele>16.64589</ele>
        <time>2021-07-11T18:40:55Z</time>
      </trkpt>
      <trkpt lat="37.13418" lon="-8.58728">
        <ele>16.683</ele>
        <time>2021-07-11T18:41:11Z</time>
      </trkpt>
      <trkpt lat="37.13417" lon="-8.58709">
        <ele>17.00061</ele>
        <time>2021-07-11T18:41:22Z</time>
      </trkpt>
      <trkpt lat="37.1342" lon="-8.58694">
        <ele>15.4904</ele>
        <time>2021-07-11T18:41:33Z</time>
      </trkpt>
      <trkpt lat="37.13423" lon="-8.58691">
        <ele>16.8348</ele>
        <time>2021-07-11T18:42:00Z</time>
      </trkpt>
      <trkpt lat="37.13418" lon="-8.58688">
        <ele>16.00598</ele>
        <time>2021-07-11T18:42:50Z</time>
      </trkpt>
      <trkpt lat="37.13418" lon="-8.58688">
        <ele>16.00598</ele>
        <time>2021-07-11T18:43:50Z</time>
      </trkpt>
      <trkpt lat="37.13418" lon="-8.58688">
        <ele>16.00598</ele>
        <time>2021-07-11T18:44:49Z</time>
      </trkpt>
      <trkpt lat="37.13418" lon="-8.58688">
        <ele>16.00598</ele>
        <time>2021-07-11T18:45:49Z</time>
      </trkpt>
      <trkpt lat="37.13414" lon="-8.58692">
        <ele>15.74886</ele>
        <time>2021-07-11T18:46:43Z</time>
      </trkpt>
      <trkpt lat="37.13415" lon="-8.58691">
        <ele>15.8716</ele>
        <time>2021-07-11T18:47:43Z</time>
      </trkpt>
      <trkpt lat="37.13419" lon="-8.58688">
        <ele>15.76515</ele>
        <time>2021-07-11T18:48:29Z</time>
      </trkpt>
      <trkpt lat="37.13426" lon="-8.58691">
        <ele>16.56248</ele>
        <time>2021-07-11T18:48:40Z</time>
      </trkpt>
      <trkpt lat="37.13431" lon="-8.5869">
        <ele>17.22451</ele>
        <time>2021-07-11T18:48:51Z</time>
      </trkpt>
      <trkpt lat="37.13435" lon="-8.5869">
        <ele>16.66298</ele>
        <time>2021-07-11T18:49:26Z</time>
      </trkpt>
      <trkpt lat="37.13431" lon="-8.58689">
        <ele>16.05727</ele>
        <time>2021-07-11T18:49:54Z</time>
      </trkpt>
      <trkpt lat="37.13429" lon="-8.58693">
        <ele>16.20722</ele>
        <time>2021-07-11T18:50:09Z</time>
      </trkpt>
      <trkpt lat="37.13432" lon="-8.5869">
        <ele>16.10105</ele>
        <time>2021-07-11T18:50:33Z</time>
      </trkpt>
      <trkpt lat="37.13436" lon="-8.58681">
        <ele>16.32969</ele>
        <time>2021-07-11T18:50:44Z</time>
      </trkpt>
      <trkpt lat="37.13434" lon="-8.58685">
        <ele>16.17283</ele>
        <time>2021-07-11T18:51:21Z</time>
      </trkpt>
      <trkpt lat="37.13432" lon="-8.58689">
        <ele>16.50881</ele>
        <time>2021-07-11T18:51:50Z</time>
      </trkpt>
      <trkpt lat="37.13431" lon="-8.58694">
        <ele>16.4739</ele>
        <time>2021-07-11T18:52:02Z</time>
      </trkpt>
      <trkpt lat="37.13432" lon="-8.5869">
        <ele>16.60574</ele>
        <time>2021-07-11T18:52:13Z</time>
      </trkpt>
      <trkpt lat="37.13429" lon="-8.58687">
        <ele>16.42278</ele>
        <time>2021-07-11T18:52:48Z</time>
      </trkpt>
      <trkpt lat="37.13431" lon="-8.58689">
        <ele>17.39391</ele>
        <time>2021-07-11T18:53:46Z</time>
      </trkpt>
      <trkpt lat="37.13429" lon="-8.58693">
        <ele>16.26203</ele>
        <time>2021-07-11T18:54:33Z</time>
      </trkpt>
      <trkpt lat="37.1343" lon="-8.587">
        <ele>16.61162</ele>
        <time>2021-07-11T18:54:44Z</time>
      </trkpt>
      <trkpt lat="37.13432" lon="-8.58704">
        <ele>16.28569</ele>
        <time>2021-07-11T18:55:11Z</time>
      </trkpt>
      <trkpt lat="37.13435" lon="-8.58701">
        <ele>16.27817</ele>
        <time>2021-07-11T18:55:23Z</time>
      </trkpt>
      <trkpt lat="37.13439" lon="-8.58695">
        <ele>16.29377</ele>
        <time>2021-07-11T18:55:34Z</time>
      </trkpt>
      <trkpt lat="37.13444" lon="-8.5869">
        <ele>16.65747</ele>
        <time>2021-07-11T18:55:45Z</time>
      </trkpt>
      <trkpt lat="37.13441" lon="-8.58693">
        <ele>16.91358</ele>
        <time>2021-07-11T18:56:02Z</time>
      </trkpt>
      <trkpt lat="37.13437" lon="-8.58699">
        <ele>16.74527</ele>
        <time>2021-07-11T18:56:13Z</time>
      </trkpt>
      <trkpt lat="37.13434" lon="-8.58704">
        <ele>16.52011</ele>
        <time>2021-07-11T18:56:24Z</time>
      </trkpt>
      <trkpt lat="37.1343" lon="-8.58705">
        <ele>17.31443</ele>
        <time>2021-07-11T18:56:49Z</time>
      </trkpt>
      <trkpt lat="37.13422" lon="-8.5871">
        <ele>16.73805</ele>
        <time>2021-07-11T18:57:00Z</time>
      </trkpt>
      <trkpt lat="37.13417" lon="-8.58719">
        <ele>16.26266</ele>
        <time>2021-07-11T18:57:11Z</time>
      </trkpt>
      <trkpt lat="37.13412" lon="-8.58732">
        <ele>16.17956</ele>
        <time>2021-07-11T18:57:22Z</time>
      </trkpt>
      <trkpt lat="37.13416" lon="-8.58733">
        <ele>17.401</ele>
        <time>2021-07-11T18:57:34Z</time>
      </trkpt>
      <trkpt lat="37.13418" lon="-8.58728">
        <ele>16.40044</ele>
        <time>2021-07-11T18:57:47Z</time>
      </trkpt>
      <trkpt lat="37.13414" lon="-8.58733">
        <ele>16.1794</ele>
        <time>2021-07-11T18:57:58Z</time>
      </trkpt>
      <trkpt lat="37.13415" lon="-8.58727">
        <ele>16.78625</ele>
        <time>2021-07-11T18:58:43Z</time>
      </trkpt>
      <trkpt lat="37.13416" lon="-8.58732">
        <ele>16.58616</ele>
        <time>2021-07-11T18:58:58Z</time>
      </trkpt>
      <trkpt lat="37.13414" lon="-8.58736">
        <ele>16.2278</ele>
        <time>2021-07-11T18:59:17Z</time>
      </trkpt>
      <trkpt lat="37.13413" lon="-8.58733">
        <ele>16.18938</ele>
        <time>2021-07-11T19:00:16Z</time>
      </trkpt>
      <trkpt lat="37.13415" lon="-8.58731">
        <ele>16.33244</ele>
        <time>2021-07-11T19:01:15Z</time>
      </trkpt>
      <trkpt lat="37.13415" lon="-8.5873">
        <ele>16.34646</ele>
        <time>2021-07-11T19:02:14Z</time>
      </trkpt>
      <trkpt lat="37.13415" lon="-8.58731">
        <ele>16.08759</ele>
        <time>2021-07-11T19:03:12Z</time>
      </trkpt>
      <trkpt lat="37.13416" lon="-8.58732">
        <ele>13.22651</ele>
        <time>2021-07-11T19:04:11Z</time>
      </trkpt>
      <trkpt lat="37.13415" lon="-8.58734">
        <ele>16.36251</ele>
        <time>2021-07-11T19:05:10Z</time>
      </trkpt>
      <trkpt lat="37.13415" lon="-8.58732">
        <ele>17.31272</ele>
        <time>2021-07-11T19:06:09Z</time>
      </trkpt>
      <trkpt lat="37.13414" lon="-8.5873">
        <ele>16.65934</ele>
        <time>2021-07-11T19:07:08Z</time>
      </trkpt>
    </trkseg>
  </trk>
</gpx>